<?xml version="1.0" encoding="utf-8"?>
<gpx xmlns:xsi="http://www.w3.org/2001/XMLSchema-instance" xmlns:xsd="http://www.w3.org/2001/XMLSchema" version="1.1" creator="Shapelink.com" xmlns="http://www.topografix.com/GPX/1/1" xmlns:gpxtpx="http://www.garmin.com/xmlschemas/TrackPointExtension/v1">
  <metadata>
    <name>Løping 4.52 km, 2013-04-25</name>
    <desc></desc>
    <author><name>Mikael Blom</name></author> 
    <time>2013-04-25T17:59:16Z</time>
  </metadata>
  <trk>
    <name>Løping 4.52 km, 2013-04-25</name>
    <trkseg>
      <trkpt lat="59.98188" lon="17.738238">
        <ele>65.9877</ele>
        <time>2013-04-25T17:59:16Z</time>
      </trkpt>
      <trkpt lat="59.9818973" lon="17.738226">
        <ele>65.5071</ele>
        <time>2013-04-25T17:59:17Z</time>
      </trkpt>
      <trkpt lat="59.9819297" lon="17.7382072">
        <ele>66.949</ele>
        <time>2013-04-25T17:59:18Z</time>
      </trkpt>
      <trkpt lat="59.9819684" lon="17.7381831">
        <ele>69.8329</ele>
        <time>2013-04-25T17:59:19Z</time>
      </trkpt>
      <trkpt lat="59.9820038" lon="17.7381655">
        <ele>70.3135</ele>
        <time>2013-04-25T17:59:20Z</time>
      </trkpt>
      <trkpt lat="59.9820327" lon="17.738157">
        <ele>69.3523</ele>
        <time>2013-04-25T17:59:21Z</time>
      </trkpt>
      <trkpt lat="59.9820559" lon="17.7381271">
        <ele>68.3909</ele>
        <time>2013-04-25T17:59:22Z</time>
      </trkpt>
      <trkpt lat="59.982084" lon="17.7381146">
        <ele>67.4297</ele>
        <time>2013-04-25T17:59:23Z</time>
      </trkpt>
      <trkpt lat="59.9821057" lon="17.7381083">
        <ele>66.4683</ele>
        <time>2013-04-25T17:59:24Z</time>
      </trkpt>
      <trkpt lat="59.9821342" lon="17.7380943">
        <ele>65.9877</ele>
        <time>2013-04-25T17:59:25Z</time>
      </trkpt>
      <trkpt lat="59.9821613" lon="17.7380727">
        <ele>65.5071</ele>
        <time>2013-04-25T17:59:26Z</time>
      </trkpt>
      <trkpt lat="59.9821881" lon="17.7380562">
        <ele>65.0264</ele>
        <time>2013-04-25T17:59:27Z</time>
      </trkpt>
      <trkpt lat="59.9822187" lon="17.738034">
        <ele>65.0264</ele>
        <time>2013-04-25T17:59:28Z</time>
      </trkpt>
      <trkpt lat="59.9822554" lon="17.7380369">
        <ele>64.0651</ele>
        <time>2013-04-25T17:59:29Z</time>
      </trkpt>
      <trkpt lat="59.9822936" lon="17.7380463">
        <ele>63.1036</ele>
        <time>2013-04-25T17:59:30Z</time>
      </trkpt>
      <trkpt lat="59.9823281" lon="17.7380487">
        <ele>63.1036</ele>
        <time>2013-04-25T17:59:31Z</time>
      </trkpt>
      <trkpt lat="59.9823698" lon="17.7380493">
        <ele>64.0651</ele>
        <time>2013-04-25T17:59:32Z</time>
      </trkpt>
      <trkpt lat="59.9824056" lon="17.738065">
        <ele>64.0651</ele>
        <time>2013-04-25T17:59:33Z</time>
      </trkpt>
      <trkpt lat="59.982444" lon="17.7380857">
        <ele>65.0264</ele>
        <time>2013-04-25T17:59:34Z</time>
      </trkpt>
      <trkpt lat="59.9824728" lon="17.7380801">
        <ele>66.4683</ele>
        <time>2013-04-25T17:59:35Z</time>
      </trkpt>
      <trkpt lat="59.9824956" lon="17.7380897">
        <ele>65.0264</ele>
        <time>2013-04-25T17:59:36Z</time>
      </trkpt>
      <trkpt lat="59.982514" lon="17.7381172">
        <ele>63.1036</ele>
        <time>2013-04-25T17:59:37Z</time>
      </trkpt>
      <trkpt lat="59.9825311" lon="17.738127">
        <ele>61.181</ele>
        <time>2013-04-25T17:59:38Z</time>
      </trkpt>
      <trkpt lat="59.9825517" lon="17.7381225">
        <ele>60.7003</ele>
        <time>2013-04-25T17:59:39Z</time>
      </trkpt>
      <trkpt lat="59.9825725" lon="17.7381158">
        <ele>60.2197</ele>
        <time>2013-04-25T17:59:40Z</time>
      </trkpt>
      <trkpt lat="59.9826042" lon="17.7381518">
        <ele>58.7777</ele>
        <time>2013-04-25T17:59:41Z</time>
      </trkpt>
      <trkpt lat="59.9826259" lon="17.7381488">
        <ele>57.8165</ele>
        <time>2013-04-25T17:59:42Z</time>
      </trkpt>
      <trkpt lat="59.9826388" lon="17.7381028">
        <ele>59.2584</ele>
        <time>2013-04-25T17:59:43Z</time>
      </trkpt>
      <trkpt lat="59.9826569" lon="17.7380912">
        <ele>58.7777</ele>
        <time>2013-04-25T17:59:44Z</time>
      </trkpt>
      <trkpt lat="59.9826834" lon="17.7380982">
        <ele>58.7777</ele>
        <time>2013-04-25T17:59:45Z</time>
      </trkpt>
      <trkpt lat="59.9827165" lon="17.738098">
        <ele>60.2197</ele>
        <time>2013-04-25T17:59:46Z</time>
      </trkpt>
      <trkpt lat="59.9827458" lon="17.7380826">
        <ele>61.6617</ele>
        <time>2013-04-25T17:59:47Z</time>
      </trkpt>
      <trkpt lat="59.9827754" lon="17.7380739">
        <ele>63.5844</ele>
        <time>2013-04-25T17:59:48Z</time>
      </trkpt>
      <trkpt lat="59.982805" lon="17.7380822">
        <ele>64.5457</ele>
        <time>2013-04-25T17:59:49Z</time>
      </trkpt>
      <trkpt lat="59.9828292" lon="17.738083">
        <ele>65.0264</ele>
        <time>2013-04-25T17:59:50Z</time>
      </trkpt>
      <trkpt lat="59.9828475" lon="17.7380577">
        <ele>65.5071</ele>
        <time>2013-04-25T17:59:51Z</time>
      </trkpt>
      <trkpt lat="59.9828771" lon="17.7380509">
        <ele>65.9877</ele>
        <time>2013-04-25T17:59:52Z</time>
      </trkpt>
      <trkpt lat="59.9829019" lon="17.7380319">
        <ele>65.9877</ele>
        <time>2013-04-25T17:59:53Z</time>
      </trkpt>
      <trkpt lat="59.9829297" lon="17.7380246">
        <ele>67.4297</ele>
        <time>2013-04-25T17:59:54Z</time>
      </trkpt>
      <trkpt lat="59.9829632" lon="17.7380287">
        <ele>68.3909</ele>
        <time>2013-04-25T17:59:55Z</time>
      </trkpt>
      <trkpt lat="59.9830022" lon="17.7380265">
        <ele>69.8329</ele>
        <time>2013-04-25T17:59:56Z</time>
      </trkpt>
      <trkpt lat="59.9830293" lon="17.7380329">
        <ele>70.3135</ele>
        <time>2013-04-25T17:59:57Z</time>
      </trkpt>
      <trkpt lat="59.9830558" lon="17.7380546">
        <ele>69.3523</ele>
        <time>2013-04-25T17:59:58Z</time>
      </trkpt>
      <trkpt lat="59.9830869" lon="17.7380515">
        <ele>69.8329</ele>
        <time>2013-04-25T17:59:59Z</time>
      </trkpt>
      <trkpt lat="59.9831207" lon="17.7380435">
        <ele>71.7555</ele>
        <time>2013-04-25T18:00:00Z</time>
      </trkpt>
      <trkpt lat="59.9831469" lon="17.7380267">
        <ele>72.2362</ele>
        <time>2013-04-25T18:00:01Z</time>
      </trkpt>
      <trkpt lat="59.9831668" lon="17.738008">
        <ele>72.2362</ele>
        <time>2013-04-25T18:00:02Z</time>
      </trkpt>
      <trkpt lat="59.983193" lon="17.7379981">
        <ele>73.1976</ele>
        <time>2013-04-25T18:00:03Z</time>
      </trkpt>
      <trkpt lat="59.9832243" lon="17.7380003">
        <ele>73.6782</ele>
        <time>2013-04-25T18:00:04Z</time>
      </trkpt>
      <trkpt lat="59.9832494" lon="17.7380125">
        <ele>72.2362</ele>
        <time>2013-04-25T18:00:05Z</time>
      </trkpt>
      <trkpt lat="59.9832774" lon="17.738024">
        <ele>71.2749</ele>
        <time>2013-04-25T18:00:06Z</time>
      </trkpt>
      <trkpt lat="59.9833017" lon="17.7380529">
        <ele>70.3135</ele>
        <time>2013-04-25T18:00:07Z</time>
      </trkpt>
      <trkpt lat="59.9833274" lon="17.7380643">
        <ele>70.3135</ele>
        <time>2013-04-25T18:00:08Z</time>
      </trkpt>
      <trkpt lat="59.9833541" lon="17.7380649">
        <ele>70.7942</ele>
        <time>2013-04-25T18:00:09Z</time>
      </trkpt>
      <trkpt lat="59.9833779" lon="17.7380448">
        <ele>70.7942</ele>
        <time>2013-04-25T18:00:10Z</time>
      </trkpt>
      <trkpt lat="59.9833966" lon="17.7380007">
        <ele>72.2362</ele>
        <time>2013-04-25T18:00:11Z</time>
      </trkpt>
      <trkpt lat="59.9834182" lon="17.7379944">
        <ele>72.2362</ele>
        <time>2013-04-25T18:00:12Z</time>
      </trkpt>
      <trkpt lat="59.9834397" lon="17.7379948">
        <ele>72.2362</ele>
        <time>2013-04-25T18:00:13Z</time>
      </trkpt>
      <trkpt lat="59.983456" lon="17.7379914">
        <ele>71.7555</ele>
        <time>2013-04-25T18:00:14Z</time>
      </trkpt>
      <trkpt lat="59.9834791" lon="17.7379862">
        <ele>71.7555</ele>
        <time>2013-04-25T18:00:15Z</time>
      </trkpt>
      <trkpt lat="59.983503" lon="17.737986">
        <ele>72.2362</ele>
        <time>2013-04-25T18:00:16Z</time>
      </trkpt>
      <trkpt lat="59.9835256" lon="17.7379816">
        <ele>72.2362</ele>
        <time>2013-04-25T18:00:17Z</time>
      </trkpt>
      <trkpt lat="59.9835458" lon="17.7379638">
        <ele>72.7169</ele>
        <time>2013-04-25T18:00:18Z</time>
      </trkpt>
      <trkpt lat="59.9835686" lon="17.7379479">
        <ele>73.1976</ele>
        <time>2013-04-25T18:00:19Z</time>
      </trkpt>
      <trkpt lat="59.983596" lon="17.7379307">
        <ele>74.6395</ele>
        <time>2013-04-25T18:00:20Z</time>
      </trkpt>
      <trkpt lat="59.9836168" lon="17.7379044">
        <ele>75.1202</ele>
        <time>2013-04-25T18:00:21Z</time>
      </trkpt>
      <trkpt lat="59.9836435" lon="17.7378924">
        <ele>76.0814</ele>
        <time>2013-04-25T18:00:22Z</time>
      </trkpt>
      <trkpt lat="59.9836684" lon="17.7378667">
        <ele>76.5621</ele>
        <time>2013-04-25T18:00:23Z</time>
      </trkpt>
      <trkpt lat="59.9836917" lon="17.7378394">
        <ele>77.0428</ele>
        <time>2013-04-25T18:00:24Z</time>
      </trkpt>
      <trkpt lat="59.9837261" lon="17.7378272">
        <ele>77.5234</ele>
        <time>2013-04-25T18:00:25Z</time>
      </trkpt>
      <trkpt lat="59.9837474" lon="17.7378226">
        <ele>77.5234</ele>
        <time>2013-04-25T18:00:26Z</time>
      </trkpt>
      <trkpt lat="59.983769" lon="17.7378174">
        <ele>77.5234</ele>
        <time>2013-04-25T18:00:27Z</time>
      </trkpt>
      <trkpt lat="59.9837919" lon="17.7378099">
        <ele>77.5234</ele>
        <time>2013-04-25T18:00:28Z</time>
      </trkpt>
      <trkpt lat="59.9838249" lon="17.7378118">
        <ele>78.4847</ele>
        <time>2013-04-25T18:00:29Z</time>
      </trkpt>
      <trkpt lat="59.9838531" lon="17.7378043">
        <ele>79.9266</ele>
        <time>2013-04-25T18:00:30Z</time>
      </trkpt>
      <trkpt lat="59.9838777" lon="17.7378049">
        <ele>80.4075</ele>
        <time>2013-04-25T18:00:31Z</time>
      </trkpt>
      <trkpt lat="59.9838991" lon="17.7378125">
        <ele>79.446</ele>
        <time>2013-04-25T18:00:32Z</time>
      </trkpt>
      <trkpt lat="59.9839183" lon="17.7378048">
        <ele>79.446</ele>
        <time>2013-04-25T18:00:33Z</time>
      </trkpt>
      <trkpt lat="59.9839354" lon="17.73779">
        <ele>79.9266</ele>
        <time>2013-04-25T18:00:34Z</time>
      </trkpt>
      <trkpt lat="59.9839571" lon="17.7377807">
        <ele>79.446</ele>
        <time>2013-04-25T18:00:35Z</time>
      </trkpt>
      <trkpt lat="59.9839752" lon="17.7377597">
        <ele>78.9655</ele>
        <time>2013-04-25T18:00:36Z</time>
      </trkpt>
      <trkpt lat="59.9840032" lon="17.7377531">
        <ele>78.9655</ele>
        <time>2013-04-25T18:00:37Z</time>
      </trkpt>
      <trkpt lat="59.9840229" lon="17.7377353">
        <ele>78.4847</ele>
        <time>2013-04-25T18:00:38Z</time>
      </trkpt>
      <trkpt lat="59.9840483" lon="17.7377236">
        <ele>78.4847</ele>
        <time>2013-04-25T18:00:39Z</time>
      </trkpt>
      <trkpt lat="59.9840592" lon="17.7377241">
        <ele>77.5234</ele>
        <time>2013-04-25T18:00:40Z</time>
      </trkpt>
      <trkpt lat="59.9840824" lon="17.7377192">
        <ele>77.0428</ele>
        <time>2013-04-25T18:00:41Z</time>
      </trkpt>
      <trkpt lat="59.9841034" lon="17.7377148">
        <ele>77.0428</ele>
        <time>2013-04-25T18:00:42Z</time>
      </trkpt>
      <trkpt lat="59.9841266" lon="17.7377098">
        <ele>77.0428</ele>
        <time>2013-04-25T18:00:43Z</time>
      </trkpt>
      <trkpt lat="59.9841491" lon="17.7377051">
        <ele>77.0428</ele>
        <time>2013-04-25T18:00:44Z</time>
      </trkpt>
      <trkpt lat="59.9841716" lon="17.7377004">
        <ele>77.0428</ele>
        <time>2013-04-25T18:00:45Z</time>
      </trkpt>
      <trkpt lat="59.9841934" lon="17.7376958">
        <ele>77.0428</ele>
        <time>2013-04-25T18:00:46Z</time>
      </trkpt>
      <trkpt lat="59.9842159" lon="17.737691">
        <ele>76.5621</ele>
        <time>2013-04-25T18:00:47Z</time>
      </trkpt>
      <trkpt lat="59.9842391" lon="17.7376862">
        <ele>76.5621</ele>
        <time>2013-04-25T18:00:48Z</time>
      </trkpt>
      <trkpt lat="59.9842623" lon="17.7376813">
        <ele>76.5621</ele>
        <time>2013-04-25T18:00:49Z</time>
      </trkpt>
      <trkpt lat="59.9842834" lon="17.7376769">
        <ele>76.5621</ele>
        <time>2013-04-25T18:00:50Z</time>
      </trkpt>
      <trkpt lat="59.9843066" lon="17.737672">
        <ele>76.5621</ele>
        <time>2013-04-25T18:00:51Z</time>
      </trkpt>
      <trkpt lat="59.9843291" lon="17.7376672">
        <ele>76.0814</ele>
        <time>2013-04-25T18:00:52Z</time>
      </trkpt>
      <trkpt lat="59.9843516" lon="17.7376625">
        <ele>76.0814</ele>
        <time>2013-04-25T18:00:53Z</time>
      </trkpt>
      <trkpt lat="59.9843734" lon="17.7376579">
        <ele>76.0814</ele>
        <time>2013-04-25T18:00:54Z</time>
      </trkpt>
      <trkpt lat="59.9843959" lon="17.7376532">
        <ele>76.0814</ele>
        <time>2013-04-25T18:00:55Z</time>
      </trkpt>
      <trkpt lat="59.9844191" lon="17.7376483">
        <ele>76.0814</ele>
        <time>2013-04-25T18:00:56Z</time>
      </trkpt>
      <trkpt lat="59.9844423" lon="17.7376434">
        <ele>75.6008</ele>
        <time>2013-04-25T18:00:57Z</time>
      </trkpt>
      <trkpt lat="59.9844633" lon="17.737639">
        <ele>75.6008</ele>
        <time>2013-04-25T18:00:58Z</time>
      </trkpt>
      <trkpt lat="59.9844866" lon="17.7376341">
        <ele>75.6008</ele>
        <time>2013-04-25T18:00:59Z</time>
      </trkpt>
      <trkpt lat="59.984509" lon="17.7376293">
        <ele>75.6008</ele>
        <time>2013-04-25T18:01:00Z</time>
      </trkpt>
      <trkpt lat="59.9845316" lon="17.7376247">
        <ele>75.6008</ele>
        <time>2013-04-25T18:01:01Z</time>
      </trkpt>
      <trkpt lat="59.9845534" lon="17.73762">
        <ele>75.6008</ele>
        <time>2013-04-25T18:01:02Z</time>
      </trkpt>
      <trkpt lat="59.9845758" lon="17.7376154">
        <ele>75.1202</ele>
        <time>2013-04-25T18:01:03Z</time>
      </trkpt>
      <trkpt lat="59.984599" lon="17.7376104">
        <ele>75.1202</ele>
        <time>2013-04-25T18:01:04Z</time>
      </trkpt>
      <trkpt lat="59.9846222" lon="17.7376055">
        <ele>75.1202</ele>
        <time>2013-04-25T18:01:05Z</time>
      </trkpt>
      <trkpt lat="59.9846433" lon="17.7376011">
        <ele>75.1202</ele>
        <time>2013-04-25T18:01:06Z</time>
      </trkpt>
      <trkpt lat="59.9846665" lon="17.7375962">
        <ele>75.1202</ele>
        <time>2013-04-25T18:01:07Z</time>
      </trkpt>
      <trkpt lat="59.984689" lon="17.7375915">
        <ele>74.6395</ele>
        <time>2013-04-25T18:01:08Z</time>
      </trkpt>
      <trkpt lat="59.9847114" lon="17.7375868">
        <ele>74.6395</ele>
        <time>2013-04-25T18:01:09Z</time>
      </trkpt>
      <trkpt lat="59.9847332" lon="17.7375822">
        <ele>74.6395</ele>
        <time>2013-04-25T18:01:10Z</time>
      </trkpt>
      <trkpt lat="59.9869842" lon="17.7392709">
        <ele>76.0814</ele>
        <time>2013-04-25T18:02:56Z</time>
      </trkpt>
      <trkpt lat="59.9869971" lon="17.7393041">
        <ele>74.6395</ele>
        <time>2013-04-25T18:02:57Z</time>
      </trkpt>
      <trkpt lat="59.9870004" lon="17.7393482">
        <ele>72.2362</ele>
        <time>2013-04-25T18:02:58Z</time>
      </trkpt>
      <trkpt lat="59.9870232" lon="17.7393655">
        <ele>72.2362</ele>
        <time>2013-04-25T18:02:59Z</time>
      </trkpt>
      <trkpt lat="59.9870521" lon="17.7393783">
        <ele>72.7169</ele>
        <time>2013-04-25T18:03:00Z</time>
      </trkpt>
      <trkpt lat="59.987066" lon="17.7393858">
        <ele>72.2362</ele>
        <time>2013-04-25T18:03:01Z</time>
      </trkpt>
      <trkpt lat="59.9870847" lon="17.7393911">
        <ele>71.2749</ele>
        <time>2013-04-25T18:03:02Z</time>
      </trkpt>
      <trkpt lat="59.987106" lon="17.7393935">
        <ele>70.3135</ele>
        <time>2013-04-25T18:03:03Z</time>
      </trkpt>
      <trkpt lat="59.9871206" lon="17.7393995">
        <ele>67.9103</ele>
        <time>2013-04-25T18:03:04Z</time>
      </trkpt>
      <trkpt lat="59.9871365" lon="17.7394062">
        <ele>67.4297</ele>
        <time>2013-04-25T18:03:05Z</time>
      </trkpt>
      <trkpt lat="59.9871599" lon="17.7394142">
        <ele>66.949</ele>
        <time>2013-04-25T18:03:06Z</time>
      </trkpt>
      <trkpt lat="59.9871807" lon="17.739416">
        <ele>67.4297</ele>
        <time>2013-04-25T18:03:07Z</time>
      </trkpt>
      <trkpt lat="59.9872014" lon="17.7394076">
        <ele>67.4297</ele>
        <time>2013-04-25T18:03:08Z</time>
      </trkpt>
      <trkpt lat="59.9872252" lon="17.7394061">
        <ele>66.949</ele>
        <time>2013-04-25T18:03:09Z</time>
      </trkpt>
      <trkpt lat="59.9872437" lon="17.7394067">
        <ele>66.949</ele>
        <time>2013-04-25T18:03:10Z</time>
      </trkpt>
      <trkpt lat="59.9872618" lon="17.7394007">
        <ele>67.4297</ele>
        <time>2013-04-25T18:03:11Z</time>
      </trkpt>
      <trkpt lat="59.9872797" lon="17.7393855">
        <ele>66.949</ele>
        <time>2013-04-25T18:03:12Z</time>
      </trkpt>
      <trkpt lat="59.9872978" lon="17.7393803">
        <ele>65.9877</ele>
        <time>2013-04-25T18:03:13Z</time>
      </trkpt>
      <trkpt lat="59.9873201" lon="17.7393749">
        <ele>65.9877</ele>
        <time>2013-04-25T18:03:14Z</time>
      </trkpt>
      <trkpt lat="59.9873396" lon="17.7393739">
        <ele>65.0264</ele>
        <time>2013-04-25T18:03:15Z</time>
      </trkpt>
      <trkpt lat="59.9873657" lon="17.7393667">
        <ele>65.5071</ele>
        <time>2013-04-25T18:03:16Z</time>
      </trkpt>
      <trkpt lat="59.987391" lon="17.739359">
        <ele>66.4683</ele>
        <time>2013-04-25T18:03:17Z</time>
      </trkpt>
      <trkpt lat="59.9874087" lon="17.739352">
        <ele>66.949</ele>
        <time>2013-04-25T18:03:18Z</time>
      </trkpt>
      <trkpt lat="59.9874292" lon="17.7393458">
        <ele>66.949</ele>
        <time>2013-04-25T18:03:19Z</time>
      </trkpt>
      <trkpt lat="59.9874466" lon="17.7393341">
        <ele>67.4297</ele>
        <time>2013-04-25T18:03:20Z</time>
      </trkpt>
      <trkpt lat="59.9874602" lon="17.7393241">
        <ele>66.949</ele>
        <time>2013-04-25T18:03:21Z</time>
      </trkpt>
      <trkpt lat="59.9874846" lon="17.7393253">
        <ele>67.4297</ele>
        <time>2013-04-25T18:03:22Z</time>
      </trkpt>
      <trkpt lat="59.9875063" lon="17.7393269">
        <ele>66.949</ele>
        <time>2013-04-25T18:03:23Z</time>
      </trkpt>
      <trkpt lat="59.9875309" lon="17.7393129">
        <ele>66.949</ele>
        <time>2013-04-25T18:03:24Z</time>
      </trkpt>
      <trkpt lat="59.9875585" lon="17.739308">
        <ele>65.9877</ele>
        <time>2013-04-25T18:03:25Z</time>
      </trkpt>
      <trkpt lat="59.9875765" lon="17.7393059">
        <ele>65.5071</ele>
        <time>2013-04-25T18:03:26Z</time>
      </trkpt>
      <trkpt lat="59.9875937" lon="17.7393021">
        <ele>65.0264</ele>
        <time>2013-04-25T18:03:27Z</time>
      </trkpt>
      <trkpt lat="59.9876226" lon="17.7392969">
        <ele>65.5071</ele>
        <time>2013-04-25T18:03:28Z</time>
      </trkpt>
      <trkpt lat="59.9876427" lon="17.7392911">
        <ele>65.0264</ele>
        <time>2013-04-25T18:03:29Z</time>
      </trkpt>
      <trkpt lat="59.9876647" lon="17.7392783">
        <ele>65.0264</ele>
        <time>2013-04-25T18:03:30Z</time>
      </trkpt>
      <trkpt lat="59.9876853" lon="17.739273">
        <ele>65.0264</ele>
        <time>2013-04-25T18:03:31Z</time>
      </trkpt>
      <trkpt lat="59.9877148" lon="17.7392749">
        <ele>65.9877</ele>
        <time>2013-04-25T18:03:32Z</time>
      </trkpt>
      <trkpt lat="59.9877422" lon="17.7392719">
        <ele>66.4683</ele>
        <time>2013-04-25T18:03:33Z</time>
      </trkpt>
      <trkpt lat="59.9877685" lon="17.7392766">
        <ele>66.4683</ele>
        <time>2013-04-25T18:03:34Z</time>
      </trkpt>
      <trkpt lat="59.9877852" lon="17.7392751">
        <ele>66.4683</ele>
        <time>2013-04-25T18:03:35Z</time>
      </trkpt>
      <trkpt lat="59.9878096" lon="17.7392673">
        <ele>65.9877</ele>
        <time>2013-04-25T18:03:36Z</time>
      </trkpt>
      <trkpt lat="59.987838" lon="17.7392565">
        <ele>66.4683</ele>
        <time>2013-04-25T18:03:37Z</time>
      </trkpt>
      <trkpt lat="59.9878601" lon="17.7392575">
        <ele>65.9877</ele>
        <time>2013-04-25T18:03:38Z</time>
      </trkpt>
      <trkpt lat="59.9878815" lon="17.7392647">
        <ele>65.0264</ele>
        <time>2013-04-25T18:03:39Z</time>
      </trkpt>
      <trkpt lat="59.9878988" lon="17.7392652">
        <ele>64.0651</ele>
        <time>2013-04-25T18:03:40Z</time>
      </trkpt>
      <trkpt lat="59.9879163" lon="17.7392636">
        <ele>63.5844</ele>
        <time>2013-04-25T18:03:41Z</time>
      </trkpt>
      <trkpt lat="59.9879296" lon="17.7392761">
        <ele>63.1036</ele>
        <time>2013-04-25T18:03:42Z</time>
      </trkpt>
      <trkpt lat="59.9879505" lon="17.7392728">
        <ele>62.6229</ele>
        <time>2013-04-25T18:03:43Z</time>
      </trkpt>
      <trkpt lat="59.9879728" lon="17.7392663">
        <ele>63.1036</ele>
        <time>2013-04-25T18:03:44Z</time>
      </trkpt>
      <trkpt lat="59.9879956" lon="17.7392523">
        <ele>63.5844</ele>
        <time>2013-04-25T18:03:45Z</time>
      </trkpt>
      <trkpt lat="59.9880194" lon="17.7392459">
        <ele>63.5844</ele>
        <time>2013-04-25T18:03:46Z</time>
      </trkpt>
      <trkpt lat="59.9880364" lon="17.739247">
        <ele>62.6229</ele>
        <time>2013-04-25T18:03:47Z</time>
      </trkpt>
      <trkpt lat="59.9880573" lon="17.7392444">
        <ele>62.1423</ele>
        <time>2013-04-25T18:03:48Z</time>
      </trkpt>
      <trkpt lat="59.9880858" lon="17.739242">
        <ele>62.1423</ele>
        <time>2013-04-25T18:03:49Z</time>
      </trkpt>
      <trkpt lat="59.9881075" lon="17.739236">
        <ele>61.6617</ele>
        <time>2013-04-25T18:03:50Z</time>
      </trkpt>
      <trkpt lat="59.9881221" lon="17.7392327">
        <ele>60.7003</ele>
        <time>2013-04-25T18:03:51Z</time>
      </trkpt>
      <trkpt lat="59.9881428" lon="17.7392291">
        <ele>60.7003</ele>
        <time>2013-04-25T18:03:52Z</time>
      </trkpt>
      <trkpt lat="59.98817" lon="17.7392221">
        <ele>61.181</ele>
        <time>2013-04-25T18:03:53Z</time>
      </trkpt>
      <trkpt lat="59.9881911" lon="17.739198">
        <ele>61.6617</ele>
        <time>2013-04-25T18:03:54Z</time>
      </trkpt>
      <trkpt lat="59.9882093" lon="17.7391848">
        <ele>61.6617</ele>
        <time>2013-04-25T18:03:55Z</time>
      </trkpt>
      <trkpt lat="59.988229" lon="17.7391736">
        <ele>61.6617</ele>
        <time>2013-04-25T18:03:56Z</time>
      </trkpt>
      <trkpt lat="59.9882561" lon="17.7391664">
        <ele>61.6617</ele>
        <time>2013-04-25T18:03:57Z</time>
      </trkpt>
      <trkpt lat="59.9882768" lon="17.7391606">
        <ele>61.6617</ele>
        <time>2013-04-25T18:03:58Z</time>
      </trkpt>
      <trkpt lat="59.988299" lon="17.7391562">
        <ele>61.6617</ele>
        <time>2013-04-25T18:03:59Z</time>
      </trkpt>
      <trkpt lat="59.9883234" lon="17.7391405">
        <ele>62.1423</ele>
        <time>2013-04-25T18:04:00Z</time>
      </trkpt>
      <trkpt lat="59.9883481" lon="17.7391285">
        <ele>62.1423</ele>
        <time>2013-04-25T18:04:01Z</time>
      </trkpt>
      <trkpt lat="59.9883716" lon="17.7391124">
        <ele>62.1423</ele>
        <time>2013-04-25T18:04:02Z</time>
      </trkpt>
      <trkpt lat="59.9884058" lon="17.7391103">
        <ele>63.1036</ele>
        <time>2013-04-25T18:04:03Z</time>
      </trkpt>
      <trkpt lat="59.9884331" lon="17.7391022">
        <ele>64.0651</ele>
        <time>2013-04-25T18:04:04Z</time>
      </trkpt>
      <trkpt lat="59.9884483" lon="17.7390811">
        <ele>64.5457</ele>
        <time>2013-04-25T18:04:05Z</time>
      </trkpt>
      <trkpt lat="59.9884667" lon="17.7390599">
        <ele>64.0651</ele>
        <time>2013-04-25T18:04:06Z</time>
      </trkpt>
      <trkpt lat="59.9884877" lon="17.7390483">
        <ele>63.1036</ele>
        <time>2013-04-25T18:04:07Z</time>
      </trkpt>
      <trkpt lat="59.988509" lon="17.7390394">
        <ele>62.6229</ele>
        <time>2013-04-25T18:04:08Z</time>
      </trkpt>
      <trkpt lat="59.9885307" lon="17.7390363">
        <ele>62.1423</ele>
        <time>2013-04-25T18:04:09Z</time>
      </trkpt>
      <trkpt lat="59.9885546" lon="17.7390295">
        <ele>62.1423</ele>
        <time>2013-04-25T18:04:10Z</time>
      </trkpt>
      <trkpt lat="59.988582" lon="17.7390243">
        <ele>62.6229</ele>
        <time>2013-04-25T18:04:11Z</time>
      </trkpt>
      <trkpt lat="59.9886083" lon="17.7390096">
        <ele>63.1036</ele>
        <time>2013-04-25T18:04:12Z</time>
      </trkpt>
      <trkpt lat="59.988624" lon="17.7389959">
        <ele>62.6229</ele>
        <time>2013-04-25T18:04:13Z</time>
      </trkpt>
      <trkpt lat="59.9886477" lon="17.7389829">
        <ele>62.6229</ele>
        <time>2013-04-25T18:04:14Z</time>
      </trkpt>
      <trkpt lat="59.9886667" lon="17.7389564">
        <ele>63.5844</ele>
        <time>2013-04-25T18:04:15Z</time>
      </trkpt>
      <trkpt lat="59.9886829" lon="17.7389321">
        <ele>63.5844</ele>
        <time>2013-04-25T18:04:16Z</time>
      </trkpt>
      <trkpt lat="59.9887041" lon="17.7389133">
        <ele>64.0651</ele>
        <time>2013-04-25T18:04:17Z</time>
      </trkpt>
      <trkpt lat="59.9887415" lon="17.7389124">
        <ele>65.5071</ele>
        <time>2013-04-25T18:04:18Z</time>
      </trkpt>
      <trkpt lat="59.988763" lon="17.7389076">
        <ele>65.5071</ele>
        <time>2013-04-25T18:04:19Z</time>
      </trkpt>
      <trkpt lat="59.9887815" lon="17.7389">
        <ele>65.5071</ele>
        <time>2013-04-25T18:04:20Z</time>
      </trkpt>
      <trkpt lat="59.9888022" lon="17.7388858">
        <ele>65.0264</ele>
        <time>2013-04-25T18:04:21Z</time>
      </trkpt>
      <trkpt lat="59.98883" lon="17.7388606">
        <ele>65.0264</ele>
        <time>2013-04-25T18:04:22Z</time>
      </trkpt>
      <trkpt lat="59.9888488" lon="17.7388368">
        <ele>65.5071</ele>
        <time>2013-04-25T18:04:23Z</time>
      </trkpt>
      <trkpt lat="59.9888666" lon="17.7388073">
        <ele>65.9877</ele>
        <time>2013-04-25T18:04:24Z</time>
      </trkpt>
      <trkpt lat="59.9888803" lon="17.7387813">
        <ele>66.4683</ele>
        <time>2013-04-25T18:04:25Z</time>
      </trkpt>
      <trkpt lat="59.9888999" lon="17.7387618">
        <ele>66.4683</ele>
        <time>2013-04-25T18:04:26Z</time>
      </trkpt>
      <trkpt lat="59.9889221" lon="17.7387389">
        <ele>66.949</ele>
        <time>2013-04-25T18:04:27Z</time>
      </trkpt>
      <trkpt lat="59.9889393" lon="17.7387291">
        <ele>66.949</ele>
        <time>2013-04-25T18:04:28Z</time>
      </trkpt>
      <trkpt lat="59.9889576" lon="17.7387041">
        <ele>67.4297</ele>
        <time>2013-04-25T18:04:29Z</time>
      </trkpt>
      <trkpt lat="59.9889793" lon="17.73869">
        <ele>67.4297</ele>
        <time>2013-04-25T18:04:30Z</time>
      </trkpt>
      <trkpt lat="59.9890044" lon="17.7386812">
        <ele>67.4297</ele>
        <time>2013-04-25T18:04:31Z</time>
      </trkpt>
      <trkpt lat="59.9890321" lon="17.7386648">
        <ele>67.9103</ele>
        <time>2013-04-25T18:04:32Z</time>
      </trkpt>
      <trkpt lat="59.9890569" lon="17.7386502">
        <ele>67.9103</ele>
        <time>2013-04-25T18:04:33Z</time>
      </trkpt>
      <trkpt lat="59.9890807" lon="17.7386338">
        <ele>67.4297</ele>
        <time>2013-04-25T18:04:34Z</time>
      </trkpt>
      <trkpt lat="59.9891024" lon="17.7386157">
        <ele>67.4297</ele>
        <time>2013-04-25T18:04:35Z</time>
      </trkpt>
      <trkpt lat="59.9891248" lon="17.7385959">
        <ele>67.4297</ele>
        <time>2013-04-25T18:04:36Z</time>
      </trkpt>
      <trkpt lat="59.989145" lon="17.7385865">
        <ele>67.4297</ele>
        <time>2013-04-25T18:04:37Z</time>
      </trkpt>
      <trkpt lat="59.9891714" lon="17.7385741">
        <ele>67.9103</ele>
        <time>2013-04-25T18:04:38Z</time>
      </trkpt>
      <trkpt lat="59.9891956" lon="17.7385586">
        <ele>67.9103</ele>
        <time>2013-04-25T18:04:39Z</time>
      </trkpt>
      <trkpt lat="59.9892151" lon="17.7385467">
        <ele>67.9103</ele>
        <time>2013-04-25T18:04:40Z</time>
      </trkpt>
      <trkpt lat="59.9892363" lon="17.7385405">
        <ele>67.4297</ele>
        <time>2013-04-25T18:04:41Z</time>
      </trkpt>
      <trkpt lat="59.989259" lon="17.7385282">
        <ele>66.949</ele>
        <time>2013-04-25T18:04:42Z</time>
      </trkpt>
      <trkpt lat="59.9892836" lon="17.7385199">
        <ele>66.949</ele>
        <time>2013-04-25T18:04:43Z</time>
      </trkpt>
      <trkpt lat="59.9893093" lon="17.7385106">
        <ele>66.949</ele>
        <time>2013-04-25T18:04:44Z</time>
      </trkpt>
      <trkpt lat="59.9893318" lon="17.7385033">
        <ele>66.949</ele>
        <time>2013-04-25T18:04:45Z</time>
      </trkpt>
      <trkpt lat="59.9893558" lon="17.7384953">
        <ele>66.949</ele>
        <time>2013-04-25T18:04:46Z</time>
      </trkpt>
      <trkpt lat="59.9893797" lon="17.7384919">
        <ele>66.949</ele>
        <time>2013-04-25T18:04:47Z</time>
      </trkpt>
      <trkpt lat="59.9894" lon="17.7384907">
        <ele>66.4683</ele>
        <time>2013-04-25T18:04:48Z</time>
      </trkpt>
      <trkpt lat="59.9894259" lon="17.7384807">
        <ele>66.4683</ele>
        <time>2013-04-25T18:04:49Z</time>
      </trkpt>
      <trkpt lat="59.9894506" lon="17.7384743">
        <ele>66.4683</ele>
        <time>2013-04-25T18:04:50Z</time>
      </trkpt>
      <trkpt lat="59.9894703" lon="17.7384605">
        <ele>66.4683</ele>
        <time>2013-04-25T18:04:51Z</time>
      </trkpt>
      <trkpt lat="59.9894962" lon="17.7384528">
        <ele>66.949</ele>
        <time>2013-04-25T18:04:52Z</time>
      </trkpt>
      <trkpt lat="59.9895242" lon="17.7384571">
        <ele>67.4297</ele>
        <time>2013-04-25T18:04:53Z</time>
      </trkpt>
      <trkpt lat="59.9895523" lon="17.7384538">
        <ele>67.4297</ele>
        <time>2013-04-25T18:04:54Z</time>
      </trkpt>
      <trkpt lat="59.989578" lon="17.7384616">
        <ele>66.949</ele>
        <time>2013-04-25T18:04:55Z</time>
      </trkpt>
      <trkpt lat="59.9896069" lon="17.7384566">
        <ele>67.4297</ele>
        <time>2013-04-25T18:04:56Z</time>
      </trkpt>
      <trkpt lat="59.9896331" lon="17.7384484">
        <ele>67.9103</ele>
        <time>2013-04-25T18:04:57Z</time>
      </trkpt>
      <trkpt lat="59.9896584" lon="17.7384342">
        <ele>67.9103</ele>
        <time>2013-04-25T18:04:58Z</time>
      </trkpt>
      <trkpt lat="59.9896796" lon="17.738425">
        <ele>67.9103</ele>
        <time>2013-04-25T18:04:59Z</time>
      </trkpt>
      <trkpt lat="59.9897039" lon="17.7384197">
        <ele>67.9103</ele>
        <time>2013-04-25T18:05:00Z</time>
      </trkpt>
      <trkpt lat="59.9897169" lon="17.7384175">
        <ele>66.949</ele>
        <time>2013-04-25T18:05:01Z</time>
      </trkpt>
      <trkpt lat="59.9897357" lon="17.7384095">
        <ele>66.4683</ele>
        <time>2013-04-25T18:05:02Z</time>
      </trkpt>
      <trkpt lat="59.989762" lon="17.7383964">
        <ele>66.4683</ele>
        <time>2013-04-25T18:05:03Z</time>
      </trkpt>
      <trkpt lat="59.9897861" lon="17.7383805">
        <ele>66.4683</ele>
        <time>2013-04-25T18:05:04Z</time>
      </trkpt>
      <trkpt lat="59.9898122" lon="17.738366">
        <ele>66.4683</ele>
        <time>2013-04-25T18:05:05Z</time>
      </trkpt>
      <trkpt lat="59.9898343" lon="17.7383586">
        <ele>66.4683</ele>
        <time>2013-04-25T18:05:06Z</time>
      </trkpt>
      <trkpt lat="59.9898588" lon="17.7383493">
        <ele>65.9877</ele>
        <time>2013-04-25T18:05:07Z</time>
      </trkpt>
      <trkpt lat="59.989891" lon="17.7383284">
        <ele>66.949</ele>
        <time>2013-04-25T18:05:08Z</time>
      </trkpt>
      <trkpt lat="59.9899158" lon="17.7383127">
        <ele>66.4683</ele>
        <time>2013-04-25T18:05:09Z</time>
      </trkpt>
      <trkpt lat="59.9899302" lon="17.738312">
        <ele>65.9877</ele>
        <time>2013-04-25T18:05:10Z</time>
      </trkpt>
      <trkpt lat="59.98995" lon="17.7383002">
        <ele>65.5071</ele>
        <time>2013-04-25T18:05:11Z</time>
      </trkpt>
      <trkpt lat="59.9899719" lon="17.738294">
        <ele>65.0264</ele>
        <time>2013-04-25T18:05:12Z</time>
      </trkpt>
      <trkpt lat="59.9900002" lon="17.7382753">
        <ele>65.5071</ele>
        <time>2013-04-25T18:05:13Z</time>
      </trkpt>
      <trkpt lat="59.9900275" lon="17.7382644">
        <ele>65.9877</ele>
        <time>2013-04-25T18:05:14Z</time>
      </trkpt>
      <trkpt lat="59.9900524" lon="17.7382573">
        <ele>65.9877</ele>
        <time>2013-04-25T18:05:15Z</time>
      </trkpt>
      <trkpt lat="59.9900739" lon="17.7382514">
        <ele>65.9877</ele>
        <time>2013-04-25T18:05:16Z</time>
      </trkpt>
      <trkpt lat="59.9900944" lon="17.738245">
        <ele>65.5071</ele>
        <time>2013-04-25T18:05:17Z</time>
      </trkpt>
      <trkpt lat="59.9901204" lon="17.7382339">
        <ele>65.9877</ele>
        <time>2013-04-25T18:05:18Z</time>
      </trkpt>
      <trkpt lat="59.9901418" lon="17.7382286">
        <ele>65.5071</ele>
        <time>2013-04-25T18:05:19Z</time>
      </trkpt>
      <trkpt lat="59.9901634" lon="17.7382233">
        <ele>65.0264</ele>
        <time>2013-04-25T18:05:20Z</time>
      </trkpt>
      <trkpt lat="59.9901798" lon="17.738228">
        <ele>64.0651</ele>
        <time>2013-04-25T18:05:21Z</time>
      </trkpt>
      <trkpt lat="59.9902048" lon="17.7382205">
        <ele>64.5457</ele>
        <time>2013-04-25T18:05:22Z</time>
      </trkpt>
      <trkpt lat="59.9902277" lon="17.7382095">
        <ele>64.5457</ele>
        <time>2013-04-25T18:05:23Z</time>
      </trkpt>
      <trkpt lat="59.9902537" lon="17.7381893">
        <ele>64.5457</ele>
        <time>2013-04-25T18:05:24Z</time>
      </trkpt>
      <trkpt lat="59.9902785" lon="17.7381808">
        <ele>64.5457</ele>
        <time>2013-04-25T18:05:25Z</time>
      </trkpt>
      <trkpt lat="59.9903016" lon="17.738168">
        <ele>65.0264</ele>
        <time>2013-04-25T18:05:26Z</time>
      </trkpt>
      <trkpt lat="59.9903262" lon="17.7381597">
        <ele>65.0264</ele>
        <time>2013-04-25T18:05:27Z</time>
      </trkpt>
      <trkpt lat="59.9903492" lon="17.7381571">
        <ele>65.0264</ele>
        <time>2013-04-25T18:05:28Z</time>
      </trkpt>
      <trkpt lat="59.9903715" lon="17.7381387">
        <ele>65.5071</ele>
        <time>2013-04-25T18:05:29Z</time>
      </trkpt>
      <trkpt lat="59.9903929" lon="17.7381347">
        <ele>65.5071</ele>
        <time>2013-04-25T18:05:30Z</time>
      </trkpt>
      <trkpt lat="59.9904187" lon="17.7381261">
        <ele>65.5071</ele>
        <time>2013-04-25T18:05:31Z</time>
      </trkpt>
      <trkpt lat="59.9904433" lon="17.738111">
        <ele>65.9877</ele>
        <time>2013-04-25T18:05:32Z</time>
      </trkpt>
      <trkpt lat="59.9904619" lon="17.7381095">
        <ele>65.9877</ele>
        <time>2013-04-25T18:05:33Z</time>
      </trkpt>
      <trkpt lat="59.9904752" lon="17.7380991">
        <ele>65.9877</ele>
        <time>2013-04-25T18:05:34Z</time>
      </trkpt>
      <trkpt lat="59.9905013" lon="17.7380873">
        <ele>65.9877</ele>
        <time>2013-04-25T18:05:35Z</time>
      </trkpt>
      <trkpt lat="59.9905251" lon="17.7380816">
        <ele>65.9877</ele>
        <time>2013-04-25T18:05:36Z</time>
      </trkpt>
      <trkpt lat="59.9905529" lon="17.7380612">
        <ele>66.4683</ele>
        <time>2013-04-25T18:05:37Z</time>
      </trkpt>
      <trkpt lat="59.9905824" lon="17.7380462">
        <ele>66.949</ele>
        <time>2013-04-25T18:05:38Z</time>
      </trkpt>
      <trkpt lat="59.990611" lon="17.7380391">
        <ele>66.4683</ele>
        <time>2013-04-25T18:05:39Z</time>
      </trkpt>
      <trkpt lat="59.9906373" lon="17.7380247">
        <ele>66.4683</ele>
        <time>2013-04-25T18:05:40Z</time>
      </trkpt>
      <trkpt lat="59.9906601" lon="17.7380135">
        <ele>66.4683</ele>
        <time>2013-04-25T18:05:41Z</time>
      </trkpt>
      <trkpt lat="59.9906872" lon="17.7380033">
        <ele>66.4683</ele>
        <time>2013-04-25T18:05:42Z</time>
      </trkpt>
      <trkpt lat="59.9907103" lon="17.7379982">
        <ele>66.949</ele>
        <time>2013-04-25T18:05:43Z</time>
      </trkpt>
      <trkpt lat="59.9907446" lon="17.7379815">
        <ele>67.9103</ele>
        <time>2013-04-25T18:05:44Z</time>
      </trkpt>
      <trkpt lat="59.9907653" lon="17.7379728">
        <ele>67.9103</ele>
        <time>2013-04-25T18:05:45Z</time>
      </trkpt>
      <trkpt lat="59.9907918" lon="17.7379588">
        <ele>67.9103</ele>
        <time>2013-04-25T18:05:46Z</time>
      </trkpt>
      <trkpt lat="59.9908141" lon="17.737949">
        <ele>67.4297</ele>
        <time>2013-04-25T18:05:47Z</time>
      </trkpt>
      <trkpt lat="59.9908351" lon="17.7379257">
        <ele>67.4297</ele>
        <time>2013-04-25T18:05:48Z</time>
      </trkpt>
      <trkpt lat="59.990858" lon="17.7379066">
        <ele>66.949</ele>
        <time>2013-04-25T18:05:49Z</time>
      </trkpt>
      <trkpt lat="59.9908783" lon="17.7378954">
        <ele>66.4683</ele>
        <time>2013-04-25T18:05:50Z</time>
      </trkpt>
      <trkpt lat="59.9909053" lon="17.7378749">
        <ele>66.4683</ele>
        <time>2013-04-25T18:05:51Z</time>
      </trkpt>
      <trkpt lat="59.9909311" lon="17.7378551">
        <ele>65.9877</ele>
        <time>2013-04-25T18:05:52Z</time>
      </trkpt>
      <trkpt lat="59.9909534" lon="17.737832">
        <ele>66.4683</ele>
        <time>2013-04-25T18:05:53Z</time>
      </trkpt>
      <trkpt lat="59.9909773" lon="17.7378106">
        <ele>66.4683</ele>
        <time>2013-04-25T18:05:54Z</time>
      </trkpt>
      <trkpt lat="59.9910041" lon="17.7377905">
        <ele>66.4683</ele>
        <time>2013-04-25T18:05:55Z</time>
      </trkpt>
      <trkpt lat="59.9910244" lon="17.7377728">
        <ele>66.4683</ele>
        <time>2013-04-25T18:05:56Z</time>
      </trkpt>
      <trkpt lat="59.9910435" lon="17.7377551">
        <ele>66.4683</ele>
        <time>2013-04-25T18:05:57Z</time>
      </trkpt>
      <trkpt lat="59.9910627" lon="17.7377462">
        <ele>65.9877</ele>
        <time>2013-04-25T18:05:58Z</time>
      </trkpt>
      <trkpt lat="59.9910804" lon="17.737731">
        <ele>65.9877</ele>
        <time>2013-04-25T18:05:59Z</time>
      </trkpt>
      <trkpt lat="59.9911003" lon="17.7377173">
        <ele>65.9877</ele>
        <time>2013-04-25T18:06:00Z</time>
      </trkpt>
      <trkpt lat="59.9911181" lon="17.737697">
        <ele>65.5071</ele>
        <time>2013-04-25T18:06:01Z</time>
      </trkpt>
      <trkpt lat="59.9911394" lon="17.7376805">
        <ele>65.9877</ele>
        <time>2013-04-25T18:06:02Z</time>
      </trkpt>
      <trkpt lat="59.9911576" lon="17.7376659">
        <ele>65.9877</ele>
        <time>2013-04-25T18:06:03Z</time>
      </trkpt>
      <trkpt lat="59.9911797" lon="17.7376605">
        <ele>65.9877</ele>
        <time>2013-04-25T18:06:04Z</time>
      </trkpt>
      <trkpt lat="59.9911958" lon="17.7376698">
        <ele>65.0264</ele>
        <time>2013-04-25T18:06:05Z</time>
      </trkpt>
      <trkpt lat="59.9912203" lon="17.7376587">
        <ele>65.0264</ele>
        <time>2013-04-25T18:06:06Z</time>
      </trkpt>
      <trkpt lat="59.991248" lon="17.737648">
        <ele>65.0264</ele>
        <time>2013-04-25T18:06:07Z</time>
      </trkpt>
      <trkpt lat="59.9912776" lon="17.737634">
        <ele>65.0264</ele>
        <time>2013-04-25T18:06:08Z</time>
      </trkpt>
      <trkpt lat="59.9912973" lon="17.7376279">
        <ele>65.0264</ele>
        <time>2013-04-25T18:06:09Z</time>
      </trkpt>
      <trkpt lat="59.9913207" lon="17.7376178">
        <ele>64.5457</ele>
        <time>2013-04-25T18:06:10Z</time>
      </trkpt>
      <trkpt lat="59.9913402" lon="17.7376195">
        <ele>64.5457</ele>
        <time>2013-04-25T18:06:11Z</time>
      </trkpt>
      <trkpt lat="59.9913502" lon="17.7376236">
        <ele>64.0651</ele>
        <time>2013-04-25T18:06:12Z</time>
      </trkpt>
      <trkpt lat="59.9913662" lon="17.7376331">
        <ele>64.0651</ele>
        <time>2013-04-25T18:06:13Z</time>
      </trkpt>
      <trkpt lat="59.9913871" lon="17.7376336">
        <ele>63.5844</ele>
        <time>2013-04-25T18:06:14Z</time>
      </trkpt>
      <trkpt lat="59.9914072" lon="17.7376367">
        <ele>64.0651</ele>
        <time>2013-04-25T18:06:15Z</time>
      </trkpt>
      <trkpt lat="59.9914315" lon="17.7376364">
        <ele>64.5457</ele>
        <time>2013-04-25T18:06:16Z</time>
      </trkpt>
      <trkpt lat="59.9914556" lon="17.7376279">
        <ele>64.0651</ele>
        <time>2013-04-25T18:06:17Z</time>
      </trkpt>
      <trkpt lat="59.9914784" lon="17.7376229">
        <ele>63.5844</ele>
        <time>2013-04-25T18:06:18Z</time>
      </trkpt>
      <trkpt lat="59.9915015" lon="17.7376189">
        <ele>63.1036</ele>
        <time>2013-04-25T18:06:19Z</time>
      </trkpt>
      <trkpt lat="59.9915299" lon="17.7376151">
        <ele>63.1036</ele>
        <time>2013-04-25T18:06:20Z</time>
      </trkpt>
      <trkpt lat="59.9915534" lon="17.7376025">
        <ele>63.1036</ele>
        <time>2013-04-25T18:06:21Z</time>
      </trkpt>
      <trkpt lat="59.9915736" lon="17.7375993">
        <ele>63.1036</ele>
        <time>2013-04-25T18:06:22Z</time>
      </trkpt>
      <trkpt lat="59.9915961" lon="17.7375972">
        <ele>63.1036</ele>
        <time>2013-04-25T18:06:23Z</time>
      </trkpt>
      <trkpt lat="59.9916201" lon="17.7375942">
        <ele>63.1036</ele>
        <time>2013-04-25T18:06:24Z</time>
      </trkpt>
      <trkpt lat="59.9916475" lon="17.7375905">
        <ele>62.6229</ele>
        <time>2013-04-25T18:06:25Z</time>
      </trkpt>
      <trkpt lat="59.9916725" lon="17.7375904">
        <ele>62.6229</ele>
        <time>2013-04-25T18:06:26Z</time>
      </trkpt>
      <trkpt lat="59.9916932" lon="17.7375991">
        <ele>62.1423</ele>
        <time>2013-04-25T18:06:27Z</time>
      </trkpt>
      <trkpt lat="59.9917092" lon="17.7376012">
        <ele>62.1423</ele>
        <time>2013-04-25T18:06:28Z</time>
      </trkpt>
      <trkpt lat="59.9917287" lon="17.7375914">
        <ele>62.1423</ele>
        <time>2013-04-25T18:06:29Z</time>
      </trkpt>
      <trkpt lat="59.9917551" lon="17.7375888">
        <ele>62.1423</ele>
        <time>2013-04-25T18:06:30Z</time>
      </trkpt>
      <trkpt lat="59.99178" lon="17.7375831">
        <ele>62.1423</ele>
        <time>2013-04-25T18:06:31Z</time>
      </trkpt>
      <trkpt lat="59.9918027" lon="17.7375825">
        <ele>62.1423</ele>
        <time>2013-04-25T18:06:32Z</time>
      </trkpt>
      <trkpt lat="59.9918252" lon="17.737578">
        <ele>62.1423</ele>
        <time>2013-04-25T18:06:33Z</time>
      </trkpt>
      <trkpt lat="59.9918465" lon="17.737577">
        <ele>61.6617</ele>
        <time>2013-04-25T18:06:34Z</time>
      </trkpt>
      <trkpt lat="59.9918716" lon="17.7375739">
        <ele>61.6617</ele>
        <time>2013-04-25T18:06:35Z</time>
      </trkpt>
      <trkpt lat="59.9918951" lon="17.7375672">
        <ele>60.7003</ele>
        <time>2013-04-25T18:06:36Z</time>
      </trkpt>
      <trkpt lat="59.9919168" lon="17.73756">
        <ele>60.7003</ele>
        <time>2013-04-25T18:06:37Z</time>
      </trkpt>
      <trkpt lat="59.9919318" lon="17.7375571">
        <ele>60.7003</ele>
        <time>2013-04-25T18:06:38Z</time>
      </trkpt>
      <trkpt lat="59.9919475" lon="17.7375538">
        <ele>60.2197</ele>
        <time>2013-04-25T18:06:39Z</time>
      </trkpt>
      <trkpt lat="59.9919661" lon="17.7375455">
        <ele>59.7391</ele>
        <time>2013-04-25T18:06:40Z</time>
      </trkpt>
      <trkpt lat="59.9919859" lon="17.7375418">
        <ele>60.2197</ele>
        <time>2013-04-25T18:06:41Z</time>
      </trkpt>
      <trkpt lat="59.9920118" lon="17.7375421">
        <ele>60.2197</ele>
        <time>2013-04-25T18:06:42Z</time>
      </trkpt>
      <trkpt lat="59.9920281" lon="17.7375369">
        <ele>60.2197</ele>
        <time>2013-04-25T18:06:43Z</time>
      </trkpt>
      <trkpt lat="59.9920427" lon="17.7375272">
        <ele>60.2197</ele>
        <time>2013-04-25T18:06:44Z</time>
      </trkpt>
      <trkpt lat="59.9920614" lon="17.7375134">
        <ele>60.2197</ele>
        <time>2013-04-25T18:06:45Z</time>
      </trkpt>
      <trkpt lat="59.9920816" lon="17.7375059">
        <ele>60.2197</ele>
        <time>2013-04-25T18:06:46Z</time>
      </trkpt>
      <trkpt lat="59.9921008" lon="17.7374992">
        <ele>60.2197</ele>
        <time>2013-04-25T18:06:47Z</time>
      </trkpt>
      <trkpt lat="59.9921258" lon="17.7374957">
        <ele>60.2197</ele>
        <time>2013-04-25T18:06:48Z</time>
      </trkpt>
      <trkpt lat="59.9921581" lon="17.7374884">
        <ele>60.7003</ele>
        <time>2013-04-25T18:06:49Z</time>
      </trkpt>
      <trkpt lat="59.9921845" lon="17.7374703">
        <ele>60.7003</ele>
        <time>2013-04-25T18:06:50Z</time>
      </trkpt>
      <trkpt lat="59.9922083" lon="17.7374589">
        <ele>60.7003</ele>
        <time>2013-04-25T18:06:51Z</time>
      </trkpt>
      <trkpt lat="59.9922329" lon="17.7374496">
        <ele>60.7003</ele>
        <time>2013-04-25T18:06:52Z</time>
      </trkpt>
      <trkpt lat="59.9922563" lon="17.7374299">
        <ele>60.7003</ele>
        <time>2013-04-25T18:06:53Z</time>
      </trkpt>
      <trkpt lat="59.9922831" lon="17.7374167">
        <ele>60.7003</ele>
        <time>2013-04-25T18:06:54Z</time>
      </trkpt>
      <trkpt lat="59.9923079" lon="17.737394">
        <ele>60.7003</ele>
        <time>2013-04-25T18:06:55Z</time>
      </trkpt>
      <trkpt lat="59.9923292" lon="17.7373688">
        <ele>60.7003</ele>
        <time>2013-04-25T18:06:56Z</time>
      </trkpt>
      <trkpt lat="59.9923529" lon="17.737348">
        <ele>60.7003</ele>
        <time>2013-04-25T18:06:57Z</time>
      </trkpt>
      <trkpt lat="59.9923733" lon="17.7373222">
        <ele>60.7003</ele>
        <time>2013-04-25T18:06:58Z</time>
      </trkpt>
      <trkpt lat="59.9923964" lon="17.7373051">
        <ele>61.181</ele>
        <time>2013-04-25T18:06:59Z</time>
      </trkpt>
      <trkpt lat="59.9924176" lon="17.7372904">
        <ele>61.6617</ele>
        <time>2013-04-25T18:07:00Z</time>
      </trkpt>
      <trkpt lat="59.9924416" lon="17.7372764">
        <ele>61.6617</ele>
        <time>2013-04-25T18:07:01Z</time>
      </trkpt>
      <trkpt lat="59.9924613" lon="17.7372523">
        <ele>61.181</ele>
        <time>2013-04-25T18:07:02Z</time>
      </trkpt>
      <trkpt lat="59.9924841" lon="17.7372335">
        <ele>61.6617</ele>
        <time>2013-04-25T18:07:03Z</time>
      </trkpt>
      <trkpt lat="59.9925086" lon="17.7372112">
        <ele>61.6617</ele>
        <time>2013-04-25T18:07:04Z</time>
      </trkpt>
      <trkpt lat="59.9925279" lon="17.7371891">
        <ele>62.1423</ele>
        <time>2013-04-25T18:07:05Z</time>
      </trkpt>
      <trkpt lat="59.9925417" lon="17.7371496">
        <ele>62.1423</ele>
        <time>2013-04-25T18:07:06Z</time>
      </trkpt>
      <trkpt lat="59.9925645" lon="17.7371113">
        <ele>62.6229</ele>
        <time>2013-04-25T18:07:07Z</time>
      </trkpt>
      <trkpt lat="59.9925845" lon="17.7370865">
        <ele>63.1036</ele>
        <time>2013-04-25T18:07:08Z</time>
      </trkpt>
      <trkpt lat="59.9926064" lon="17.737072">
        <ele>62.6229</ele>
        <time>2013-04-25T18:07:09Z</time>
      </trkpt>
      <trkpt lat="59.992629" lon="17.7370533">
        <ele>63.1036</ele>
        <time>2013-04-25T18:07:10Z</time>
      </trkpt>
      <trkpt lat="59.9926531" lon="17.7370316">
        <ele>63.1036</ele>
        <time>2013-04-25T18:07:11Z</time>
      </trkpt>
      <trkpt lat="59.9926736" lon="17.7369994">
        <ele>63.1036</ele>
        <time>2013-04-25T18:07:12Z</time>
      </trkpt>
      <trkpt lat="59.9926927" lon="17.7369726">
        <ele>63.5844</ele>
        <time>2013-04-25T18:07:13Z</time>
      </trkpt>
      <trkpt lat="59.9927141" lon="17.7369417">
        <ele>63.5844</ele>
        <time>2013-04-25T18:07:14Z</time>
      </trkpt>
      <trkpt lat="59.9927364" lon="17.7369177">
        <ele>64.0651</ele>
        <time>2013-04-25T18:07:15Z</time>
      </trkpt>
      <trkpt lat="59.9927544" lon="17.7368875">
        <ele>64.0651</ele>
        <time>2013-04-25T18:07:16Z</time>
      </trkpt>
      <trkpt lat="59.9927712" lon="17.736846">
        <ele>64.0651</ele>
        <time>2013-04-25T18:07:17Z</time>
      </trkpt>
      <trkpt lat="59.9927897" lon="17.7368046">
        <ele>64.5457</ele>
        <time>2013-04-25T18:07:18Z</time>
      </trkpt>
      <trkpt lat="59.9928111" lon="17.736759">
        <ele>65.5071</ele>
        <time>2013-04-25T18:07:19Z</time>
      </trkpt>
      <trkpt lat="59.9928353" lon="17.7367301">
        <ele>65.9877</ele>
        <time>2013-04-25T18:07:20Z</time>
      </trkpt>
      <trkpt lat="59.9928579" lon="17.7367026">
        <ele>65.9877</ele>
        <time>2013-04-25T18:07:21Z</time>
      </trkpt>
      <trkpt lat="59.9928771" lon="17.7366746">
        <ele>66.4683</ele>
        <time>2013-04-25T18:07:22Z</time>
      </trkpt>
      <trkpt lat="59.9928917" lon="17.7366287">
        <ele>66.949</ele>
        <time>2013-04-25T18:07:23Z</time>
      </trkpt>
      <trkpt lat="59.9929084" lon="17.7365742">
        <ele>66.949</ele>
        <time>2013-04-25T18:07:24Z</time>
      </trkpt>
      <trkpt lat="59.9929264" lon="17.7365263">
        <ele>67.4297</ele>
        <time>2013-04-25T18:07:25Z</time>
      </trkpt>
      <trkpt lat="59.9929451" lon="17.7364808">
        <ele>67.9103</ele>
        <time>2013-04-25T18:07:26Z</time>
      </trkpt>
      <trkpt lat="59.9929713" lon="17.7364458">
        <ele>68.3909</ele>
        <time>2013-04-25T18:07:27Z</time>
      </trkpt>
      <trkpt lat="59.992991" lon="17.7364085">
        <ele>68.8716</ele>
        <time>2013-04-25T18:07:28Z</time>
      </trkpt>
      <trkpt lat="59.993011" lon="17.7363792">
        <ele>69.3523</ele>
        <time>2013-04-25T18:07:29Z</time>
      </trkpt>
      <trkpt lat="59.9930346" lon="17.7363473">
        <ele>69.8329</ele>
        <time>2013-04-25T18:07:30Z</time>
      </trkpt>
      <trkpt lat="59.9930538" lon="17.7363068">
        <ele>70.3135</ele>
        <time>2013-04-25T18:07:31Z</time>
      </trkpt>
      <trkpt lat="59.9930787" lon="17.7362696">
        <ele>70.3135</ele>
        <time>2013-04-25T18:07:32Z</time>
      </trkpt>
      <trkpt lat="59.9930981" lon="17.7362315">
        <ele>70.3135</ele>
        <time>2013-04-25T18:07:33Z</time>
      </trkpt>
      <trkpt lat="59.9931143" lon="17.7361857">
        <ele>70.7942</ele>
        <time>2013-04-25T18:07:34Z</time>
      </trkpt>
      <trkpt lat="59.9931281" lon="17.7361338">
        <ele>71.2749</ele>
        <time>2013-04-25T18:07:35Z</time>
      </trkpt>
      <trkpt lat="59.9931447" lon="17.7360923">
        <ele>71.2749</ele>
        <time>2013-04-25T18:07:36Z</time>
      </trkpt>
      <trkpt lat="59.9931606" lon="17.7360441">
        <ele>71.7555</ele>
        <time>2013-04-25T18:07:37Z</time>
      </trkpt>
      <trkpt lat="59.9931791" lon="17.7360049">
        <ele>72.2362</ele>
        <time>2013-04-25T18:07:38Z</time>
      </trkpt>
      <trkpt lat="59.9931988" lon="17.7359681">
        <ele>72.7169</ele>
        <time>2013-04-25T18:07:39Z</time>
      </trkpt>
      <trkpt lat="59.9932202" lon="17.7359411">
        <ele>72.7169</ele>
        <time>2013-04-25T18:07:40Z</time>
      </trkpt>
      <trkpt lat="59.9932374" lon="17.7358869">
        <ele>73.1976</ele>
        <time>2013-04-25T18:07:41Z</time>
      </trkpt>
      <trkpt lat="59.9932544" lon="17.7358443">
        <ele>73.6782</ele>
        <time>2013-04-25T18:07:42Z</time>
      </trkpt>
      <trkpt lat="59.9932715" lon="17.73581">
        <ele>74.1588</ele>
        <time>2013-04-25T18:07:43Z</time>
      </trkpt>
      <trkpt lat="59.9932939" lon="17.7357869">
        <ele>74.1588</ele>
        <time>2013-04-25T18:07:44Z</time>
      </trkpt>
      <trkpt lat="59.9933166" lon="17.7357662">
        <ele>74.6395</ele>
        <time>2013-04-25T18:07:45Z</time>
      </trkpt>
      <trkpt lat="59.9933377" lon="17.735748">
        <ele>74.6395</ele>
        <time>2013-04-25T18:07:46Z</time>
      </trkpt>
      <trkpt lat="59.993357" lon="17.7357251">
        <ele>75.1202</ele>
        <time>2013-04-25T18:07:47Z</time>
      </trkpt>
      <trkpt lat="59.9933751" lon="17.7356972">
        <ele>75.6008</ele>
        <time>2013-04-25T18:07:48Z</time>
      </trkpt>
      <trkpt lat="59.9933938" lon="17.7356764">
        <ele>76.0814</ele>
        <time>2013-04-25T18:07:49Z</time>
      </trkpt>
      <trkpt lat="59.9934135" lon="17.7356542">
        <ele>76.0814</ele>
        <time>2013-04-25T18:07:50Z</time>
      </trkpt>
      <trkpt lat="59.99343" lon="17.7356343">
        <ele>76.0814</ele>
        <time>2013-04-25T18:07:51Z</time>
      </trkpt>
      <trkpt lat="59.9934493" lon="17.735617">
        <ele>76.0814</ele>
        <time>2013-04-25T18:07:52Z</time>
      </trkpt>
      <trkpt lat="59.9934694" lon="17.7355989">
        <ele>76.0814</ele>
        <time>2013-04-25T18:07:53Z</time>
      </trkpt>
      <trkpt lat="59.9934866" lon="17.7355832">
        <ele>76.0814</ele>
        <time>2013-04-25T18:07:54Z</time>
      </trkpt>
      <trkpt lat="59.9935096" lon="17.7355589">
        <ele>76.0814</ele>
        <time>2013-04-25T18:07:55Z</time>
      </trkpt>
      <trkpt lat="59.9935316" lon="17.7355444">
        <ele>76.5621</ele>
        <time>2013-04-25T18:07:56Z</time>
      </trkpt>
      <trkpt lat="59.9935518" lon="17.735532">
        <ele>76.0814</ele>
        <time>2013-04-25T18:07:57Z</time>
      </trkpt>
      <trkpt lat="59.993574" lon="17.7355178">
        <ele>76.0814</ele>
        <time>2013-04-25T18:07:58Z</time>
      </trkpt>
      <trkpt lat="59.9935985" lon="17.7355071">
        <ele>76.0814</ele>
        <time>2013-04-25T18:07:59Z</time>
      </trkpt>
      <trkpt lat="59.9936187" lon="17.7354888">
        <ele>76.0814</ele>
        <time>2013-04-25T18:08:00Z</time>
      </trkpt>
      <trkpt lat="59.9936388" lon="17.7354753">
        <ele>76.0814</ele>
        <time>2013-04-25T18:08:01Z</time>
      </trkpt>
      <trkpt lat="59.9936625" lon="17.7354699">
        <ele>76.0814</ele>
        <time>2013-04-25T18:08:02Z</time>
      </trkpt>
      <trkpt lat="59.9936859" lon="17.7354721">
        <ele>76.0814</ele>
        <time>2013-04-25T18:08:03Z</time>
      </trkpt>
      <trkpt lat="59.9937086" lon="17.7354765">
        <ele>75.6008</ele>
        <time>2013-04-25T18:08:04Z</time>
      </trkpt>
      <trkpt lat="59.9937315" lon="17.7354799">
        <ele>75.6008</ele>
        <time>2013-04-25T18:08:05Z</time>
      </trkpt>
      <trkpt lat="59.9937563" lon="17.7354858">
        <ele>75.6008</ele>
        <time>2013-04-25T18:08:06Z</time>
      </trkpt>
      <trkpt lat="59.9937847" lon="17.7354944">
        <ele>75.6008</ele>
        <time>2013-04-25T18:08:07Z</time>
      </trkpt>
      <trkpt lat="59.9938025" lon="17.7355024">
        <ele>75.1202</ele>
        <time>2013-04-25T18:08:08Z</time>
      </trkpt>
      <trkpt lat="59.9938199" lon="17.7355077">
        <ele>74.6395</ele>
        <time>2013-04-25T18:08:09Z</time>
      </trkpt>
      <trkpt lat="59.9938387" lon="17.7355189">
        <ele>74.6395</ele>
        <time>2013-04-25T18:08:10Z</time>
      </trkpt>
      <trkpt lat="59.9938599" lon="17.7355266">
        <ele>74.6395</ele>
        <time>2013-04-25T18:08:11Z</time>
      </trkpt>
      <trkpt lat="59.9938784" lon="17.7355327">
        <ele>74.6395</ele>
        <time>2013-04-25T18:08:12Z</time>
      </trkpt>
      <trkpt lat="59.9938987" lon="17.7355401">
        <ele>74.6395</ele>
        <time>2013-04-25T18:08:13Z</time>
      </trkpt>
      <trkpt lat="59.9939158" lon="17.7355433">
        <ele>75.1202</ele>
        <time>2013-04-25T18:08:14Z</time>
      </trkpt>
      <trkpt lat="59.9939376" lon="17.7355417">
        <ele>74.6395</ele>
        <time>2013-04-25T18:08:15Z</time>
      </trkpt>
      <trkpt lat="59.9939615" lon="17.7355436">
        <ele>74.1588</ele>
        <time>2013-04-25T18:08:16Z</time>
      </trkpt>
      <trkpt lat="59.993987" lon="17.7355418">
        <ele>74.1588</ele>
        <time>2013-04-25T18:08:17Z</time>
      </trkpt>
      <trkpt lat="59.9940128" lon="17.7355443">
        <ele>74.1588</ele>
        <time>2013-04-25T18:08:18Z</time>
      </trkpt>
      <trkpt lat="59.9940359" lon="17.7355472">
        <ele>74.1588</ele>
        <time>2013-04-25T18:08:19Z</time>
      </trkpt>
      <trkpt lat="59.9940599" lon="17.7355509">
        <ele>73.6782</ele>
        <time>2013-04-25T18:08:20Z</time>
      </trkpt>
      <trkpt lat="59.9940787" lon="17.7355509">
        <ele>74.1588</ele>
        <time>2013-04-25T18:08:21Z</time>
      </trkpt>
      <trkpt lat="59.9941004" lon="17.7355562">
        <ele>73.6782</ele>
        <time>2013-04-25T18:08:22Z</time>
      </trkpt>
      <trkpt lat="59.9941188" lon="17.7355685">
        <ele>73.6782</ele>
        <time>2013-04-25T18:08:23Z</time>
      </trkpt>
      <trkpt lat="59.9941428" lon="17.735579">
        <ele>74.1588</ele>
        <time>2013-04-25T18:08:24Z</time>
      </trkpt>
      <trkpt lat="59.9941683" lon="17.7355806">
        <ele>74.1588</ele>
        <time>2013-04-25T18:08:25Z</time>
      </trkpt>
      <trkpt lat="59.9941864" lon="17.7355893">
        <ele>74.1588</ele>
        <time>2013-04-25T18:08:26Z</time>
      </trkpt>
      <trkpt lat="59.994207" lon="17.7356039">
        <ele>74.1588</ele>
        <time>2013-04-25T18:08:27Z</time>
      </trkpt>
      <trkpt lat="59.9942382" lon="17.7356075">
        <ele>73.6782</ele>
        <time>2013-04-25T18:08:28Z</time>
      </trkpt>
      <trkpt lat="59.994265" lon="17.7356096">
        <ele>74.1588</ele>
        <time>2013-04-25T18:08:29Z</time>
      </trkpt>
      <trkpt lat="59.9942913" lon="17.7356185">
        <ele>73.6782</ele>
        <time>2013-04-25T18:08:30Z</time>
      </trkpt>
      <trkpt lat="59.9943226" lon="17.7356391">
        <ele>73.6782</ele>
        <time>2013-04-25T18:08:31Z</time>
      </trkpt>
      <trkpt lat="59.9943524" lon="17.735651">
        <ele>74.1588</ele>
        <time>2013-04-25T18:08:32Z</time>
      </trkpt>
      <trkpt lat="59.9943712" lon="17.7356674">
        <ele>74.1588</ele>
        <time>2013-04-25T18:08:33Z</time>
      </trkpt>
      <trkpt lat="59.9943913" lon="17.7356815">
        <ele>73.6782</ele>
        <time>2013-04-25T18:08:34Z</time>
      </trkpt>
      <trkpt lat="59.994413" lon="17.7356934">
        <ele>73.6782</ele>
        <time>2013-04-25T18:08:35Z</time>
      </trkpt>
      <trkpt lat="59.9944329" lon="17.7356977">
        <ele>73.6782</ele>
        <time>2013-04-25T18:08:36Z</time>
      </trkpt>
      <trkpt lat="59.9944604" lon="17.7356924">
        <ele>73.1976</ele>
        <time>2013-04-25T18:08:37Z</time>
      </trkpt>
      <trkpt lat="59.9944874" lon="17.7356913">
        <ele>73.1976</ele>
        <time>2013-04-25T18:08:38Z</time>
      </trkpt>
      <trkpt lat="59.9945078" lon="17.7356951">
        <ele>73.1976</ele>
        <time>2013-04-25T18:08:39Z</time>
      </trkpt>
      <trkpt lat="59.9945235" lon="17.7357105">
        <ele>72.7169</ele>
        <time>2013-04-25T18:08:40Z</time>
      </trkpt>
      <trkpt lat="59.9945395" lon="17.7357291">
        <ele>72.7169</ele>
        <time>2013-04-25T18:08:41Z</time>
      </trkpt>
      <trkpt lat="59.9945587" lon="17.7357498">
        <ele>72.2362</ele>
        <time>2013-04-25T18:08:42Z</time>
      </trkpt>
      <trkpt lat="59.9945835" lon="17.7357583">
        <ele>72.2362</ele>
        <time>2013-04-25T18:08:43Z</time>
      </trkpt>
      <trkpt lat="59.9946099" lon="17.7357707">
        <ele>72.2362</ele>
        <time>2013-04-25T18:08:44Z</time>
      </trkpt>
      <trkpt lat="59.9946317" lon="17.7357918">
        <ele>71.7555</ele>
        <time>2013-04-25T18:08:45Z</time>
      </trkpt>
      <trkpt lat="59.9946484" lon="17.7358106">
        <ele>71.7555</ele>
        <time>2013-04-25T18:08:46Z</time>
      </trkpt>
      <trkpt lat="59.9946671" lon="17.7358226">
        <ele>71.7555</ele>
        <time>2013-04-25T18:08:47Z</time>
      </trkpt>
      <trkpt lat="59.9946844" lon="17.7358323">
        <ele>71.2749</ele>
        <time>2013-04-25T18:08:48Z</time>
      </trkpt>
      <trkpt lat="59.9947094" lon="17.7358417">
        <ele>71.2749</ele>
        <time>2013-04-25T18:08:49Z</time>
      </trkpt>
      <trkpt lat="59.9947349" lon="17.7358578">
        <ele>71.2749</ele>
        <time>2013-04-25T18:08:50Z</time>
      </trkpt>
      <trkpt lat="59.9947538" lon="17.7358742">
        <ele>70.7942</ele>
        <time>2013-04-25T18:08:51Z</time>
      </trkpt>
      <trkpt lat="59.9947761" lon="17.7358903">
        <ele>70.7942</ele>
        <time>2013-04-25T18:08:52Z</time>
      </trkpt>
      <trkpt lat="59.9948018" lon="17.7359031">
        <ele>70.7942</ele>
        <time>2013-04-25T18:08:53Z</time>
      </trkpt>
      <trkpt lat="59.9948272" lon="17.7359153">
        <ele>70.7942</ele>
        <time>2013-04-25T18:08:54Z</time>
      </trkpt>
      <trkpt lat="59.9948494" lon="17.7359335">
        <ele>70.7942</ele>
        <time>2013-04-25T18:08:55Z</time>
      </trkpt>
      <trkpt lat="59.9948696" lon="17.7359478">
        <ele>70.7942</ele>
        <time>2013-04-25T18:08:56Z</time>
      </trkpt>
      <trkpt lat="59.9948922" lon="17.7359577">
        <ele>70.7942</ele>
        <time>2013-04-25T18:08:57Z</time>
      </trkpt>
      <trkpt lat="59.9949161" lon="17.7359748">
        <ele>70.7942</ele>
        <time>2013-04-25T18:08:58Z</time>
      </trkpt>
      <trkpt lat="59.9949441" lon="17.7359899">
        <ele>70.7942</ele>
        <time>2013-04-25T18:08:59Z</time>
      </trkpt>
      <trkpt lat="59.9949631" lon="17.7360065">
        <ele>70.7942</ele>
        <time>2013-04-25T18:09:00Z</time>
      </trkpt>
      <trkpt lat="59.9949892" lon="17.7360183">
        <ele>70.7942</ele>
        <time>2013-04-25T18:09:01Z</time>
      </trkpt>
      <trkpt lat="59.9950165" lon="17.7360355">
        <ele>70.7942</ele>
        <time>2013-04-25T18:09:02Z</time>
      </trkpt>
      <trkpt lat="59.9950387" lon="17.7360504">
        <ele>70.7942</ele>
        <time>2013-04-25T18:09:03Z</time>
      </trkpt>
      <trkpt lat="59.9950585" lon="17.7360567">
        <ele>70.7942</ele>
        <time>2013-04-25T18:09:04Z</time>
      </trkpt>
      <trkpt lat="59.9950835" lon="17.7360563">
        <ele>70.7942</ele>
        <time>2013-04-25T18:09:05Z</time>
      </trkpt>
      <trkpt lat="59.9951032" lon="17.7360603">
        <ele>70.7942</ele>
        <time>2013-04-25T18:09:06Z</time>
      </trkpt>
      <trkpt lat="59.9951294" lon="17.7360691">
        <ele>70.7942</ele>
        <time>2013-04-25T18:09:07Z</time>
      </trkpt>
      <trkpt lat="59.995157" lon="17.7360773">
        <ele>70.7942</ele>
        <time>2013-04-25T18:09:08Z</time>
      </trkpt>
      <trkpt lat="59.9951835" lon="17.7360787">
        <ele>70.3135</ele>
        <time>2013-04-25T18:09:09Z</time>
      </trkpt>
      <trkpt lat="59.9952022" lon="17.7360839">
        <ele>70.3135</ele>
        <time>2013-04-25T18:09:10Z</time>
      </trkpt>
      <trkpt lat="59.9952213" lon="17.7360876">
        <ele>70.3135</ele>
        <time>2013-04-25T18:09:11Z</time>
      </trkpt>
      <trkpt lat="59.995242" lon="17.7360899">
        <ele>70.3135</ele>
        <time>2013-04-25T18:09:12Z</time>
      </trkpt>
      <trkpt lat="59.9952679" lon="17.736096">
        <ele>70.3135</ele>
        <time>2013-04-25T18:09:13Z</time>
      </trkpt>
      <trkpt lat="59.9952917" lon="17.7360979">
        <ele>70.3135</ele>
        <time>2013-04-25T18:09:14Z</time>
      </trkpt>
      <trkpt lat="59.9953104" lon="17.7361026">
        <ele>70.3135</ele>
        <time>2013-04-25T18:09:15Z</time>
      </trkpt>
      <trkpt lat="59.995335" lon="17.7361038">
        <ele>70.7942</ele>
        <time>2013-04-25T18:09:16Z</time>
      </trkpt>
      <trkpt lat="59.995359" lon="17.7361006">
        <ele>70.3135</ele>
        <time>2013-04-25T18:09:17Z</time>
      </trkpt>
      <trkpt lat="59.9953819" lon="17.7360979">
        <ele>70.3135</ele>
        <time>2013-04-25T18:09:18Z</time>
      </trkpt>
      <trkpt lat="59.9954068" lon="17.7360984">
        <ele>70.3135</ele>
        <time>2013-04-25T18:09:19Z</time>
      </trkpt>
      <trkpt lat="59.9954315" lon="17.7360994">
        <ele>70.3135</ele>
        <time>2013-04-25T18:09:20Z</time>
      </trkpt>
      <trkpt lat="59.9954529" lon="17.7361063">
        <ele>70.7942</ele>
        <time>2013-04-25T18:09:21Z</time>
      </trkpt>
      <trkpt lat="59.9954755" lon="17.7361109">
        <ele>70.7942</ele>
        <time>2013-04-25T18:09:22Z</time>
      </trkpt>
      <trkpt lat="59.9954943" lon="17.7361193">
        <ele>70.3135</ele>
        <time>2013-04-25T18:09:23Z</time>
      </trkpt>
      <trkpt lat="59.9955171" lon="17.7361188">
        <ele>70.3135</ele>
        <time>2013-04-25T18:09:24Z</time>
      </trkpt>
      <trkpt lat="59.9955399" lon="17.7361059">
        <ele>70.3135</ele>
        <time>2013-04-25T18:09:25Z</time>
      </trkpt>
      <trkpt lat="59.995565" lon="17.7360975">
        <ele>70.3135</ele>
        <time>2013-04-25T18:09:26Z</time>
      </trkpt>
      <trkpt lat="59.9955947" lon="17.7360898">
        <ele>70.3135</ele>
        <time>2013-04-25T18:09:27Z</time>
      </trkpt>
      <trkpt lat="59.9956222" lon="17.7360888">
        <ele>70.3135</ele>
        <time>2013-04-25T18:09:28Z</time>
      </trkpt>
      <trkpt lat="59.9956507" lon="17.7360819">
        <ele>70.3135</ele>
        <time>2013-04-25T18:09:29Z</time>
      </trkpt>
      <trkpt lat="59.9956708" lon="17.7360876">
        <ele>70.3135</ele>
        <time>2013-04-25T18:09:30Z</time>
      </trkpt>
      <trkpt lat="59.9956921" lon="17.7360914">
        <ele>70.3135</ele>
        <time>2013-04-25T18:09:31Z</time>
      </trkpt>
      <trkpt lat="59.9957082" lon="17.736093">
        <ele>70.3135</ele>
        <time>2013-04-25T18:09:32Z</time>
      </trkpt>
      <trkpt lat="59.9957327" lon="17.7360986">
        <ele>70.7942</ele>
        <time>2013-04-25T18:09:33Z</time>
      </trkpt>
      <trkpt lat="59.9957574" lon="17.7361046">
        <ele>70.7942</ele>
        <time>2013-04-25T18:09:34Z</time>
      </trkpt>
      <trkpt lat="59.9957832" lon="17.7360893">
        <ele>70.7942</ele>
        <time>2013-04-25T18:09:35Z</time>
      </trkpt>
      <trkpt lat="59.9958018" lon="17.7360758">
        <ele>70.7942</ele>
        <time>2013-04-25T18:09:36Z</time>
      </trkpt>
      <trkpt lat="59.9958253" lon="17.7360746">
        <ele>70.7942</ele>
        <time>2013-04-25T18:09:37Z</time>
      </trkpt>
      <trkpt lat="59.995844" lon="17.7360635">
        <ele>70.7942</ele>
        <time>2013-04-25T18:09:38Z</time>
      </trkpt>
      <trkpt lat="59.9958652" lon="17.7360602">
        <ele>70.7942</ele>
        <time>2013-04-25T18:09:39Z</time>
      </trkpt>
      <trkpt lat="59.9958854" lon="17.7360551">
        <ele>71.2749</ele>
        <time>2013-04-25T18:09:40Z</time>
      </trkpt>
      <trkpt lat="59.995905" lon="17.7360561">
        <ele>71.2749</ele>
        <time>2013-04-25T18:09:41Z</time>
      </trkpt>
      <trkpt lat="59.9959261" lon="17.7360489">
        <ele>71.2749</ele>
        <time>2013-04-25T18:09:42Z</time>
      </trkpt>
      <trkpt lat="59.9959454" lon="17.736044">
        <ele>71.2749</ele>
        <time>2013-04-25T18:09:43Z</time>
      </trkpt>
      <trkpt lat="59.9959682" lon="17.7360502">
        <ele>71.2749</ele>
        <time>2013-04-25T18:09:44Z</time>
      </trkpt>
      <trkpt lat="59.99599" lon="17.7360487">
        <ele>71.2749</ele>
        <time>2013-04-25T18:09:45Z</time>
      </trkpt>
      <trkpt lat="59.9960071" lon="17.7360448">
        <ele>71.2749</ele>
        <time>2013-04-25T18:09:46Z</time>
      </trkpt>
      <trkpt lat="59.9960307" lon="17.7360391">
        <ele>71.2749</ele>
        <time>2013-04-25T18:09:47Z</time>
      </trkpt>
      <trkpt lat="59.9960577" lon="17.7360427">
        <ele>71.7555</ele>
        <time>2013-04-25T18:09:48Z</time>
      </trkpt>
      <trkpt lat="59.9960856" lon="17.7360427">
        <ele>71.7555</ele>
        <time>2013-04-25T18:09:49Z</time>
      </trkpt>
      <trkpt lat="59.9961141" lon="17.7360461">
        <ele>71.7555</ele>
        <time>2013-04-25T18:09:50Z</time>
      </trkpt>
      <trkpt lat="59.9961401" lon="17.7360535">
        <ele>71.7555</ele>
        <time>2013-04-25T18:09:51Z</time>
      </trkpt>
      <trkpt lat="59.9961672" lon="17.7360541">
        <ele>71.7555</ele>
        <time>2013-04-25T18:09:52Z</time>
      </trkpt>
      <trkpt lat="59.996194" lon="17.7360457">
        <ele>72.2362</ele>
        <time>2013-04-25T18:09:53Z</time>
      </trkpt>
      <trkpt lat="59.9962163" lon="17.736038">
        <ele>72.2362</ele>
        <time>2013-04-25T18:09:54Z</time>
      </trkpt>
      <trkpt lat="59.9962376" lon="17.7360365">
        <ele>72.2362</ele>
        <time>2013-04-25T18:09:55Z</time>
      </trkpt>
      <trkpt lat="59.996256" lon="17.7360453">
        <ele>72.2362</ele>
        <time>2013-04-25T18:09:56Z</time>
      </trkpt>
      <trkpt lat="59.9962773" lon="17.7360534">
        <ele>72.2362</ele>
        <time>2013-04-25T18:09:57Z</time>
      </trkpt>
      <trkpt lat="59.9962972" lon="17.7360592">
        <ele>72.7169</ele>
        <time>2013-04-25T18:09:58Z</time>
      </trkpt>
      <trkpt lat="59.9963198" lon="17.7360669">
        <ele>72.7169</ele>
        <time>2013-04-25T18:09:59Z</time>
      </trkpt>
      <trkpt lat="59.9963412" lon="17.736081">
        <ele>72.7169</ele>
        <time>2013-04-25T18:10:00Z</time>
      </trkpt>
      <trkpt lat="59.9963645" lon="17.7360933">
        <ele>72.7169</ele>
        <time>2013-04-25T18:10:01Z</time>
      </trkpt>
      <trkpt lat="59.9963841" lon="17.7361024">
        <ele>73.1976</ele>
        <time>2013-04-25T18:10:02Z</time>
      </trkpt>
      <trkpt lat="59.9964029" lon="17.7361183">
        <ele>73.1976</ele>
        <time>2013-04-25T18:10:03Z</time>
      </trkpt>
      <trkpt lat="59.9964272" lon="17.7361311">
        <ele>73.1976</ele>
        <time>2013-04-25T18:10:04Z</time>
      </trkpt>
      <trkpt lat="59.9964487" lon="17.7361421">
        <ele>73.6782</ele>
        <time>2013-04-25T18:10:05Z</time>
      </trkpt>
      <trkpt lat="59.9964662" lon="17.7361575">
        <ele>73.6782</ele>
        <time>2013-04-25T18:10:06Z</time>
      </trkpt>
      <trkpt lat="59.9964831" lon="17.7361788">
        <ele>73.6782</ele>
        <time>2013-04-25T18:10:07Z</time>
      </trkpt>
      <trkpt lat="59.996498" lon="17.7362054">
        <ele>73.6782</ele>
        <time>2013-04-25T18:10:08Z</time>
      </trkpt>
      <trkpt lat="59.9965166" lon="17.7362269">
        <ele>73.6782</ele>
        <time>2013-04-25T18:10:09Z</time>
      </trkpt>
      <trkpt lat="59.9965364" lon="17.7362508">
        <ele>73.1976</ele>
        <time>2013-04-25T18:10:10Z</time>
      </trkpt>
      <trkpt lat="59.9965629" lon="17.7362706">
        <ele>73.1976</ele>
        <time>2013-04-25T18:10:11Z</time>
      </trkpt>
      <trkpt lat="59.9965893" lon="17.7362846">
        <ele>73.1976</ele>
        <time>2013-04-25T18:10:12Z</time>
      </trkpt>
      <trkpt lat="59.9966101" lon="17.7362924">
        <ele>73.1976</ele>
        <time>2013-04-25T18:10:13Z</time>
      </trkpt>
      <trkpt lat="59.9966297" lon="17.7363067">
        <ele>73.1976</ele>
        <time>2013-04-25T18:10:14Z</time>
      </trkpt>
      <trkpt lat="59.9966531" lon="17.7363232">
        <ele>73.6782</ele>
        <time>2013-04-25T18:10:15Z</time>
      </trkpt>
      <trkpt lat="59.9966713" lon="17.736339">
        <ele>73.6782</ele>
        <time>2013-04-25T18:10:16Z</time>
      </trkpt>
      <trkpt lat="59.9966912" lon="17.736355">
        <ele>74.1588</ele>
        <time>2013-04-25T18:10:17Z</time>
      </trkpt>
      <trkpt lat="59.9967105" lon="17.7363715">
        <ele>74.1588</ele>
        <time>2013-04-25T18:10:18Z</time>
      </trkpt>
      <trkpt lat="59.9967352" lon="17.7363763">
        <ele>74.1588</ele>
        <time>2013-04-25T18:10:19Z</time>
      </trkpt>
      <trkpt lat="59.9967649" lon="17.7363733">
        <ele>74.1588</ele>
        <time>2013-04-25T18:10:20Z</time>
      </trkpt>
      <trkpt lat="59.9967914" lon="17.7363774">
        <ele>74.1588</ele>
        <time>2013-04-25T18:10:21Z</time>
      </trkpt>
      <trkpt lat="59.9968095" lon="17.7363918">
        <ele>74.1588</ele>
        <time>2013-04-25T18:10:22Z</time>
      </trkpt>
      <trkpt lat="59.9968321" lon="17.7364097">
        <ele>74.1588</ele>
        <time>2013-04-25T18:10:23Z</time>
      </trkpt>
      <trkpt lat="59.9968525" lon="17.7364229">
        <ele>74.1588</ele>
        <time>2013-04-25T18:10:24Z</time>
      </trkpt>
      <trkpt lat="59.9968722" lon="17.7364331">
        <ele>74.1588</ele>
        <time>2013-04-25T18:10:25Z</time>
      </trkpt>
      <trkpt lat="59.9968946" lon="17.7364483">
        <ele>74.1588</ele>
        <time>2013-04-25T18:10:26Z</time>
      </trkpt>
      <trkpt lat="59.9969091" lon="17.7364548">
        <ele>74.1588</ele>
        <time>2013-04-25T18:10:27Z</time>
      </trkpt>
      <trkpt lat="59.996929" lon="17.7364579">
        <ele>74.1588</ele>
        <time>2013-04-25T18:10:28Z</time>
      </trkpt>
      <trkpt lat="59.9969531" lon="17.7364643">
        <ele>74.1588</ele>
        <time>2013-04-25T18:10:29Z</time>
      </trkpt>
      <trkpt lat="59.9969748" lon="17.7364703">
        <ele>73.6782</ele>
        <time>2013-04-25T18:10:30Z</time>
      </trkpt>
      <trkpt lat="59.9969918" lon="17.7364761">
        <ele>73.6782</ele>
        <time>2013-04-25T18:10:31Z</time>
      </trkpt>
      <trkpt lat="59.9970176" lon="17.7364848">
        <ele>74.1588</ele>
        <time>2013-04-25T18:10:32Z</time>
      </trkpt>
      <trkpt lat="59.9970348" lon="17.7365009">
        <ele>74.1588</ele>
        <time>2013-04-25T18:10:33Z</time>
      </trkpt>
      <trkpt lat="59.9970668" lon="17.7365053">
        <ele>73.6782</ele>
        <time>2013-04-25T18:10:34Z</time>
      </trkpt>
      <trkpt lat="59.9970942" lon="17.7365113">
        <ele>74.1588</ele>
        <time>2013-04-25T18:10:35Z</time>
      </trkpt>
      <trkpt lat="59.9971167" lon="17.7365227">
        <ele>74.6395</ele>
        <time>2013-04-25T18:10:36Z</time>
      </trkpt>
      <trkpt lat="59.99714" lon="17.7365358">
        <ele>74.6395</ele>
        <time>2013-04-25T18:10:37Z</time>
      </trkpt>
      <trkpt lat="59.9971598" lon="17.7365372">
        <ele>75.1202</ele>
        <time>2013-04-25T18:10:38Z</time>
      </trkpt>
      <trkpt lat="59.9971851" lon="17.7365387">
        <ele>75.6008</ele>
        <time>2013-04-25T18:10:39Z</time>
      </trkpt>
      <trkpt lat="59.9972078" lon="17.7365461">
        <ele>75.6008</ele>
        <time>2013-04-25T18:10:40Z</time>
      </trkpt>
      <trkpt lat="59.997228" lon="17.7365565">
        <ele>76.0814</ele>
        <time>2013-04-25T18:10:41Z</time>
      </trkpt>
      <trkpt lat="59.9972503" lon="17.7365628">
        <ele>76.5621</ele>
        <time>2013-04-25T18:10:42Z</time>
      </trkpt>
      <trkpt lat="59.9972778" lon="17.7365585">
        <ele>76.5621</ele>
        <time>2013-04-25T18:10:43Z</time>
      </trkpt>
      <trkpt lat="59.9973083" lon="17.7365575">
        <ele>76.5621</ele>
        <time>2013-04-25T18:10:44Z</time>
      </trkpt>
      <trkpt lat="59.9973318" lon="17.7365621">
        <ele>77.0428</ele>
        <time>2013-04-25T18:10:45Z</time>
      </trkpt>
      <trkpt lat="59.9973508" lon="17.7365632">
        <ele>77.0428</ele>
        <time>2013-04-25T18:10:46Z</time>
      </trkpt>
      <trkpt lat="59.9973714" lon="17.736568">
        <ele>77.0428</ele>
        <time>2013-04-25T18:10:47Z</time>
      </trkpt>
      <trkpt lat="59.9973933" lon="17.7365729">
        <ele>77.5234</ele>
        <time>2013-04-25T18:10:48Z</time>
      </trkpt>
      <trkpt lat="59.9974166" lon="17.7365788">
        <ele>77.5234</ele>
        <time>2013-04-25T18:10:49Z</time>
      </trkpt>
      <trkpt lat="59.9974381" lon="17.7365828">
        <ele>77.5234</ele>
        <time>2013-04-25T18:10:50Z</time>
      </trkpt>
      <trkpt lat="59.9974594" lon="17.7365818">
        <ele>78.004</ele>
        <time>2013-04-25T18:10:51Z</time>
      </trkpt>
      <trkpt lat="59.9974803" lon="17.7365813">
        <ele>78.004</ele>
        <time>2013-04-25T18:10:52Z</time>
      </trkpt>
      <trkpt lat="59.9975032" lon="17.7365835">
        <ele>78.004</ele>
        <time>2013-04-25T18:10:53Z</time>
      </trkpt>
      <trkpt lat="59.9975259" lon="17.7365884">
        <ele>78.004</ele>
        <time>2013-04-25T18:10:54Z</time>
      </trkpt>
      <trkpt lat="59.9975501" lon="17.7365908">
        <ele>78.4847</ele>
        <time>2013-04-25T18:10:55Z</time>
      </trkpt>
      <trkpt lat="59.9975697" lon="17.7365902">
        <ele>78.4847</ele>
        <time>2013-04-25T18:10:56Z</time>
      </trkpt>
      <trkpt lat="59.9975922" lon="17.736591">
        <ele>78.4847</ele>
        <time>2013-04-25T18:10:57Z</time>
      </trkpt>
      <trkpt lat="59.9976148" lon="17.7365917">
        <ele>78.9655</ele>
        <time>2013-04-25T18:10:58Z</time>
      </trkpt>
      <trkpt lat="59.9976286" lon="17.7365901">
        <ele>78.4847</ele>
        <time>2013-04-25T18:10:59Z</time>
      </trkpt>
      <trkpt lat="59.9976455" lon="17.7365914">
        <ele>78.4847</ele>
        <time>2013-04-25T18:11:00Z</time>
      </trkpt>
      <trkpt lat="59.9976698" lon="17.7365906">
        <ele>78.9655</ele>
        <time>2013-04-25T18:11:01Z</time>
      </trkpt>
      <trkpt lat="59.9976852" lon="17.7365967">
        <ele>78.9655</ele>
        <time>2013-04-25T18:11:02Z</time>
      </trkpt>
      <trkpt lat="59.9977098" lon="17.7365975">
        <ele>78.9655</ele>
        <time>2013-04-25T18:11:03Z</time>
      </trkpt>
      <trkpt lat="59.9977372" lon="17.7365988">
        <ele>79.446</ele>
        <time>2013-04-25T18:11:04Z</time>
      </trkpt>
      <trkpt lat="59.9977568" lon="17.7366076">
        <ele>79.446</ele>
        <time>2013-04-25T18:11:05Z</time>
      </trkpt>
      <trkpt lat="59.9977756" lon="17.736613">
        <ele>79.9266</ele>
        <time>2013-04-25T18:11:06Z</time>
      </trkpt>
      <trkpt lat="59.9977968" lon="17.7366155">
        <ele>79.9266</ele>
        <time>2013-04-25T18:11:07Z</time>
      </trkpt>
      <trkpt lat="59.9978178" lon="17.7366161">
        <ele>79.9266</ele>
        <time>2013-04-25T18:11:08Z</time>
      </trkpt>
      <trkpt lat="59.9978373" lon="17.7366223">
        <ele>79.9266</ele>
        <time>2013-04-25T18:11:09Z</time>
      </trkpt>
      <trkpt lat="59.9978609" lon="17.7366223">
        <ele>79.446</ele>
        <time>2013-04-25T18:11:10Z</time>
      </trkpt>
      <trkpt lat="59.9978849" lon="17.7366188">
        <ele>79.9266</ele>
        <time>2013-04-25T18:11:11Z</time>
      </trkpt>
      <trkpt lat="59.9979056" lon="17.7366157">
        <ele>78.9655</ele>
        <time>2013-04-25T18:11:12Z</time>
      </trkpt>
      <trkpt lat="59.9979253" lon="17.7366119">
        <ele>78.9655</ele>
        <time>2013-04-25T18:11:13Z</time>
      </trkpt>
      <trkpt lat="59.9979512" lon="17.7366103">
        <ele>79.446</ele>
        <time>2013-04-25T18:11:14Z</time>
      </trkpt>
      <trkpt lat="59.9979764" lon="17.7366109">
        <ele>79.446</ele>
        <time>2013-04-25T18:11:15Z</time>
      </trkpt>
      <trkpt lat="59.9979953" lon="17.7366047">
        <ele>79.446</ele>
        <time>2013-04-25T18:11:16Z</time>
      </trkpt>
      <trkpt lat="59.9980169" lon="17.7365967">
        <ele>79.446</ele>
        <time>2013-04-25T18:11:17Z</time>
      </trkpt>
      <trkpt lat="59.9980394" lon="17.7365923">
        <ele>79.446</ele>
        <time>2013-04-25T18:11:18Z</time>
      </trkpt>
      <trkpt lat="59.9980589" lon="17.7365879">
        <ele>79.9266</ele>
        <time>2013-04-25T18:11:19Z</time>
      </trkpt>
      <trkpt lat="59.9980777" lon="17.7365814">
        <ele>79.446</ele>
        <time>2013-04-25T18:11:20Z</time>
      </trkpt>
      <trkpt lat="59.998104" lon="17.7365784">
        <ele>79.9266</ele>
        <time>2013-04-25T18:11:21Z</time>
      </trkpt>
      <trkpt lat="59.9981272" lon="17.7365839">
        <ele>79.9266</ele>
        <time>2013-04-25T18:11:22Z</time>
      </trkpt>
      <trkpt lat="59.9981475" lon="17.7365895">
        <ele>80.4075</ele>
        <time>2013-04-25T18:11:23Z</time>
      </trkpt>
      <trkpt lat="59.9981651" lon="17.736595">
        <ele>79.9266</ele>
        <time>2013-04-25T18:11:24Z</time>
      </trkpt>
      <trkpt lat="59.9981857" lon="17.7365986">
        <ele>79.9266</ele>
        <time>2013-04-25T18:11:25Z</time>
      </trkpt>
      <trkpt lat="59.9982101" lon="17.7365985">
        <ele>80.4075</ele>
        <time>2013-04-25T18:11:26Z</time>
      </trkpt>
      <trkpt lat="59.9982376" lon="17.7366026">
        <ele>80.4075</ele>
        <time>2013-04-25T18:11:27Z</time>
      </trkpt>
      <trkpt lat="59.9982647" lon="17.7366068">
        <ele>80.4075</ele>
        <time>2013-04-25T18:11:28Z</time>
      </trkpt>
      <trkpt lat="59.9982874" lon="17.7366068">
        <ele>80.4075</ele>
        <time>2013-04-25T18:11:29Z</time>
      </trkpt>
      <trkpt lat="59.9983159" lon="17.7366061">
        <ele>80.8882</ele>
        <time>2013-04-25T18:11:30Z</time>
      </trkpt>
      <trkpt lat="59.9983407" lon="17.7366092">
        <ele>80.8882</ele>
        <time>2013-04-25T18:11:31Z</time>
      </trkpt>
      <trkpt lat="59.9983614" lon="17.7366146">
        <ele>80.4075</ele>
        <time>2013-04-25T18:11:32Z</time>
      </trkpt>
      <trkpt lat="59.9983847" lon="17.7366197">
        <ele>80.4075</ele>
        <time>2013-04-25T18:11:33Z</time>
      </trkpt>
      <trkpt lat="59.9984084" lon="17.736624">
        <ele>79.9266</ele>
        <time>2013-04-25T18:11:34Z</time>
      </trkpt>
      <trkpt lat="59.9984327" lon="17.736628">
        <ele>80.4075</ele>
        <time>2013-04-25T18:11:35Z</time>
      </trkpt>
      <trkpt lat="59.9984573" lon="17.7366306">
        <ele>80.4075</ele>
        <time>2013-04-25T18:11:36Z</time>
      </trkpt>
      <trkpt lat="59.9984806" lon="17.73664">
        <ele>80.4075</ele>
        <time>2013-04-25T18:11:37Z</time>
      </trkpt>
      <trkpt lat="59.9985061" lon="17.7366467">
        <ele>80.4075</ele>
        <time>2013-04-25T18:11:38Z</time>
      </trkpt>
      <trkpt lat="59.9985245" lon="17.7366561">
        <ele>80.4075</ele>
        <time>2013-04-25T18:11:39Z</time>
      </trkpt>
      <trkpt lat="59.9985462" lon="17.7366607">
        <ele>80.8882</ele>
        <time>2013-04-25T18:11:40Z</time>
      </trkpt>
      <trkpt lat="59.9985681" lon="17.7366667">
        <ele>80.8882</ele>
        <time>2013-04-25T18:11:41Z</time>
      </trkpt>
      <trkpt lat="59.9985918" lon="17.7366701">
        <ele>80.8882</ele>
        <time>2013-04-25T18:11:42Z</time>
      </trkpt>
      <trkpt lat="59.998614" lon="17.7366741">
        <ele>80.8882</ele>
        <time>2013-04-25T18:11:43Z</time>
      </trkpt>
      <trkpt lat="59.9986396" lon="17.7366767">
        <ele>80.8882</ele>
        <time>2013-04-25T18:11:44Z</time>
      </trkpt>
      <trkpt lat="59.9986667" lon="17.7366767">
        <ele>81.3688</ele>
        <time>2013-04-25T18:11:45Z</time>
      </trkpt>
      <trkpt lat="59.9986878" lon="17.7366797">
        <ele>81.3688</ele>
        <time>2013-04-25T18:11:46Z</time>
      </trkpt>
      <trkpt lat="59.9987084" lon="17.7366851">
        <ele>81.3688</ele>
        <time>2013-04-25T18:11:47Z</time>
      </trkpt>
      <trkpt lat="59.9987293" lon="17.7366913">
        <ele>81.8494</ele>
        <time>2013-04-25T18:11:48Z</time>
      </trkpt>
      <trkpt lat="59.9987487" lon="17.7366957">
        <ele>81.8494</ele>
        <time>2013-04-25T18:11:49Z</time>
      </trkpt>
      <trkpt lat="59.9987702" lon="17.7366862">
        <ele>82.3301</ele>
        <time>2013-04-25T18:11:50Z</time>
      </trkpt>
      <trkpt lat="59.9988016" lon="17.7366691">
        <ele>82.3301</ele>
        <time>2013-04-25T18:11:51Z</time>
      </trkpt>
      <trkpt lat="59.9988265" lon="17.7366621">
        <ele>82.3301</ele>
        <time>2013-04-25T18:11:52Z</time>
      </trkpt>
      <trkpt lat="59.9988489" lon="17.7366643">
        <ele>82.8108</ele>
        <time>2013-04-25T18:11:53Z</time>
      </trkpt>
      <trkpt lat="59.9988712" lon="17.7366741">
        <ele>82.8108</ele>
        <time>2013-04-25T18:11:54Z</time>
      </trkpt>
      <trkpt lat="59.9988965" lon="17.7366804">
        <ele>82.8108</ele>
        <time>2013-04-25T18:11:55Z</time>
      </trkpt>
      <trkpt lat="59.9989251" lon="17.7366898">
        <ele>82.8108</ele>
        <time>2013-04-25T18:11:56Z</time>
      </trkpt>
      <trkpt lat="59.9989604" lon="17.7366968">
        <ele>82.8108</ele>
        <time>2013-04-25T18:11:57Z</time>
      </trkpt>
      <trkpt lat="59.9989863" lon="17.7367068">
        <ele>83.2914</ele>
        <time>2013-04-25T18:11:58Z</time>
      </trkpt>
      <trkpt lat="59.9990099" lon="17.7367193">
        <ele>83.772</ele>
        <time>2013-04-25T18:11:59Z</time>
      </trkpt>
      <trkpt lat="59.9990329" lon="17.7367266">
        <ele>84.2527</ele>
        <time>2013-04-25T18:12:00Z</time>
      </trkpt>
      <trkpt lat="59.9990559" lon="17.7367319">
        <ele>84.7334</ele>
        <time>2013-04-25T18:12:01Z</time>
      </trkpt>
      <trkpt lat="59.9990809" lon="17.7367359">
        <ele>84.7334</ele>
        <time>2013-04-25T18:12:02Z</time>
      </trkpt>
      <trkpt lat="59.9991052" lon="17.7367413">
        <ele>84.2527</ele>
        <time>2013-04-25T18:12:03Z</time>
      </trkpt>
      <trkpt lat="59.999123" lon="17.7367473">
        <ele>83.772</ele>
        <time>2013-04-25T18:12:04Z</time>
      </trkpt>
      <trkpt lat="59.9991447" lon="17.7367509">
        <ele>84.2527</ele>
        <time>2013-04-25T18:12:05Z</time>
      </trkpt>
      <trkpt lat="59.9991691" lon="17.7367475">
        <ele>84.2527</ele>
        <time>2013-04-25T18:12:06Z</time>
      </trkpt>
      <trkpt lat="59.9991964" lon="17.7367389">
        <ele>84.2527</ele>
        <time>2013-04-25T18:12:07Z</time>
      </trkpt>
      <trkpt lat="59.9992194" lon="17.736741">
        <ele>84.2527</ele>
        <time>2013-04-25T18:12:08Z</time>
      </trkpt>
      <trkpt lat="59.9992416" lon="17.7367483">
        <ele>84.2527</ele>
        <time>2013-04-25T18:12:09Z</time>
      </trkpt>
      <trkpt lat="59.999265" lon="17.736757">
        <ele>84.2527</ele>
        <time>2013-04-25T18:12:10Z</time>
      </trkpt>
      <trkpt lat="59.9992953" lon="17.7367637">
        <ele>84.7334</ele>
        <time>2013-04-25T18:12:11Z</time>
      </trkpt>
      <trkpt lat="59.9993211" lon="17.7367641">
        <ele>84.7334</ele>
        <time>2013-04-25T18:12:12Z</time>
      </trkpt>
      <trkpt lat="59.9993449" lon="17.7367658">
        <ele>84.7334</ele>
        <time>2013-04-25T18:12:13Z</time>
      </trkpt>
      <trkpt lat="59.9993688" lon="17.7367744">
        <ele>84.7334</ele>
        <time>2013-04-25T18:12:14Z</time>
      </trkpt>
      <trkpt lat="59.9993922" lon="17.7367765">
        <ele>85.214</ele>
        <time>2013-04-25T18:12:15Z</time>
      </trkpt>
      <trkpt lat="59.9994151" lon="17.7367793">
        <ele>85.214</ele>
        <time>2013-04-25T18:12:16Z</time>
      </trkpt>
      <trkpt lat="59.9994379" lon="17.7367815">
        <ele>85.6946</ele>
        <time>2013-04-25T18:12:17Z</time>
      </trkpt>
      <trkpt lat="59.9994596" lon="17.7367791">
        <ele>85.6946</ele>
        <time>2013-04-25T18:12:18Z</time>
      </trkpt>
      <trkpt lat="59.9994829" lon="17.7367854">
        <ele>85.6946</ele>
        <time>2013-04-25T18:12:19Z</time>
      </trkpt>
      <trkpt lat="59.9995068" lon="17.7367947">
        <ele>86.1753</ele>
        <time>2013-04-25T18:12:20Z</time>
      </trkpt>
      <trkpt lat="59.9995295" lon="17.7368067">
        <ele>86.656</ele>
        <time>2013-04-25T18:12:21Z</time>
      </trkpt>
      <trkpt lat="59.9995534" lon="17.7368186">
        <ele>87.1366</ele>
        <time>2013-04-25T18:12:22Z</time>
      </trkpt>
      <trkpt lat="59.9995757" lon="17.7368192">
        <ele>87.1366</ele>
        <time>2013-04-25T18:12:23Z</time>
      </trkpt>
      <trkpt lat="59.9995964" lon="17.7368236">
        <ele>87.6172</ele>
        <time>2013-04-25T18:12:24Z</time>
      </trkpt>
      <trkpt lat="59.9996159" lon="17.7368326">
        <ele>87.6172</ele>
        <time>2013-04-25T18:12:25Z</time>
      </trkpt>
      <trkpt lat="59.9996341" lon="17.73684">
        <ele>88.098</ele>
        <time>2013-04-25T18:12:26Z</time>
      </trkpt>
      <trkpt lat="59.9996601" lon="17.73684">
        <ele>88.5787</ele>
        <time>2013-04-25T18:12:27Z</time>
      </trkpt>
      <trkpt lat="59.999686" lon="17.7368388">
        <ele>88.5787</ele>
        <time>2013-04-25T18:12:28Z</time>
      </trkpt>
      <trkpt lat="59.9997042" lon="17.7368373">
        <ele>88.5787</ele>
        <time>2013-04-25T18:12:29Z</time>
      </trkpt>
      <trkpt lat="59.9997231" lon="17.7368414">
        <ele>88.5787</ele>
        <time>2013-04-25T18:12:30Z</time>
      </trkpt>
      <trkpt lat="59.9997434" lon="17.736844">
        <ele>88.5787</ele>
        <time>2013-04-25T18:12:31Z</time>
      </trkpt>
      <trkpt lat="59.9997677" lon="17.736845">
        <ele>89.0593</ele>
        <time>2013-04-25T18:12:32Z</time>
      </trkpt>
      <trkpt lat="59.9997899" lon="17.7368488">
        <ele>89.0593</ele>
        <time>2013-04-25T18:12:33Z</time>
      </trkpt>
      <trkpt lat="59.9998155" lon="17.7368503">
        <ele>89.0593</ele>
        <time>2013-04-25T18:12:34Z</time>
      </trkpt>
      <trkpt lat="59.9998347" lon="17.7368561">
        <ele>89.0593</ele>
        <time>2013-04-25T18:12:35Z</time>
      </trkpt>
      <trkpt lat="59.9998591" lon="17.7368596">
        <ele>89.0593</ele>
        <time>2013-04-25T18:12:36Z</time>
      </trkpt>
      <trkpt lat="59.999886" lon="17.7368668">
        <ele>89.5399</ele>
        <time>2013-04-25T18:12:37Z</time>
      </trkpt>
      <trkpt lat="59.9999132" lon="17.736872">
        <ele>89.0593</ele>
        <time>2013-04-25T18:12:38Z</time>
      </trkpt>
      <trkpt lat="59.999942" lon="17.7368697">
        <ele>89.5399</ele>
        <time>2013-04-25T18:12:39Z</time>
      </trkpt>
      <trkpt lat="59.9999647" lon="17.7368741">
        <ele>90.0206</ele>
        <time>2013-04-25T18:12:40Z</time>
      </trkpt>
      <trkpt lat="59.9999853" lon="17.7368865">
        <ele>89.5399</ele>
        <time>2013-04-25T18:12:41Z</time>
      </trkpt>
      <trkpt lat="60.0000051" lon="17.7369101">
        <ele>90.0206</ele>
        <time>2013-04-25T18:12:42Z</time>
      </trkpt>
      <trkpt lat="60.0000133" lon="17.7369335">
        <ele>89.5399</ele>
        <time>2013-04-25T18:12:43Z</time>
      </trkpt>
      <trkpt lat="59.9999999" lon="17.7369688">
        <ele>89.5399</ele>
        <time>2013-04-25T18:12:44Z</time>
      </trkpt>
      <trkpt lat="59.9999818" lon="17.7369827">
        <ele>90.0206</ele>
        <time>2013-04-25T18:12:45Z</time>
      </trkpt>
      <trkpt lat="59.999961" lon="17.7369952">
        <ele>90.0206</ele>
        <time>2013-04-25T18:12:46Z</time>
      </trkpt>
      <trkpt lat="59.9999455" lon="17.7369917">
        <ele>90.0206</ele>
        <time>2013-04-25T18:12:47Z</time>
      </trkpt>
      <trkpt lat="59.9999217" lon="17.7369899">
        <ele>90.0206</ele>
        <time>2013-04-25T18:12:48Z</time>
      </trkpt>
      <trkpt lat="59.9998891" lon="17.7369979">
        <ele>90.5013</ele>
        <time>2013-04-25T18:12:49Z</time>
      </trkpt>
      <trkpt lat="59.9998576" lon="17.7370114">
        <ele>90.9819</ele>
        <time>2013-04-25T18:12:50Z</time>
      </trkpt>
      <trkpt lat="59.9998272" lon="17.7370242">
        <ele>91.4625</ele>
        <time>2013-04-25T18:12:51Z</time>
      </trkpt>
      <trkpt lat="59.9998023" lon="17.7370393">
        <ele>92.424</ele>
        <time>2013-04-25T18:12:52Z</time>
      </trkpt>
      <trkpt lat="59.9997799" lon="17.7370422">
        <ele>92.9045</ele>
        <time>2013-04-25T18:12:53Z</time>
      </trkpt>
      <trkpt lat="59.999761" lon="17.7370391">
        <ele>92.9045</ele>
        <time>2013-04-25T18:12:54Z</time>
      </trkpt>
      <trkpt lat="59.9997439" lon="17.7370434">
        <ele>92.9045</ele>
        <time>2013-04-25T18:12:55Z</time>
      </trkpt>
      <trkpt lat="59.9997299" lon="17.7370453">
        <ele>93.3851</ele>
        <time>2013-04-25T18:12:56Z</time>
      </trkpt>
      <trkpt lat="59.9997208" lon="17.7370449">
        <ele>93.8658</ele>
        <time>2013-04-25T18:12:57Z</time>
      </trkpt>
      <trkpt lat="59.9997075" lon="17.7370415">
        <ele>93.8658</ele>
        <time>2013-04-25T18:12:58Z</time>
      </trkpt>
      <trkpt lat="59.9996913" lon="17.7370371">
        <ele>93.8658</ele>
        <time>2013-04-25T18:12:59Z</time>
      </trkpt>
      <trkpt lat="59.9996734" lon="17.7370316">
        <ele>94.8271</ele>
        <time>2013-04-25T18:13:00Z</time>
      </trkpt>
      <trkpt lat="59.9996504" lon="17.7370314">
        <ele>95.7885</ele>
        <time>2013-04-25T18:13:01Z</time>
      </trkpt>
      <trkpt lat="59.9996286" lon="17.7370294">
        <ele>96.2693</ele>
        <time>2013-04-25T18:13:02Z</time>
      </trkpt>
      <trkpt lat="59.9996052" lon="17.7370264">
        <ele>96.2693</ele>
        <time>2013-04-25T18:13:03Z</time>
      </trkpt>
      <trkpt lat="59.9995819" lon="17.7370262">
        <ele>96.7499</ele>
        <time>2013-04-25T18:13:04Z</time>
      </trkpt>
      <trkpt lat="59.9995524" lon="17.7370353">
        <ele>97.2305</ele>
        <time>2013-04-25T18:13:05Z</time>
      </trkpt>
      <trkpt lat="59.9995235" lon="17.7370334">
        <ele>97.2305</ele>
        <time>2013-04-25T18:13:06Z</time>
      </trkpt>
      <trkpt lat="59.9995006" lon="17.7370378">
        <ele>97.7112</ele>
        <time>2013-04-25T18:13:07Z</time>
      </trkpt>
      <trkpt lat="59.9994781" lon="17.7370413">
        <ele>97.7112</ele>
        <time>2013-04-25T18:13:08Z</time>
      </trkpt>
      <trkpt lat="59.9994533" lon="17.7370412">
        <ele>97.2305</ele>
        <time>2013-04-25T18:13:09Z</time>
      </trkpt>
      <trkpt lat="59.9994296" lon="17.7370404">
        <ele>97.2305</ele>
        <time>2013-04-25T18:13:10Z</time>
      </trkpt>
      <trkpt lat="59.9994062" lon="17.7370399">
        <ele>97.2305</ele>
        <time>2013-04-25T18:13:11Z</time>
      </trkpt>
      <trkpt lat="59.9993855" lon="17.737036">
        <ele>97.2305</ele>
        <time>2013-04-25T18:13:12Z</time>
      </trkpt>
      <trkpt lat="59.9993659" lon="17.7370309">
        <ele>96.7499</ele>
        <time>2013-04-25T18:13:13Z</time>
      </trkpt>
      <trkpt lat="59.9993519" lon="17.7370455">
        <ele>97.7112</ele>
        <time>2013-04-25T18:13:14Z</time>
      </trkpt>
      <trkpt lat="59.9993333" lon="17.7370488">
        <ele>98.1919</ele>
        <time>2013-04-25T18:13:15Z</time>
      </trkpt>
      <trkpt lat="59.9993269" lon="17.7370475">
        <ele>98.6725</ele>
        <time>2013-04-25T18:13:16Z</time>
      </trkpt>
      <trkpt lat="59.9993061" lon="17.7370277">
        <ele>98.6725</ele>
        <time>2013-04-25T18:13:17Z</time>
      </trkpt>
      <trkpt lat="59.9992825" lon="17.7370222">
        <ele>98.6725</ele>
        <time>2013-04-25T18:13:18Z</time>
      </trkpt>
      <trkpt lat="59.9992624" lon="17.7370149">
        <ele>98.6725</ele>
        <time>2013-04-25T18:13:19Z</time>
      </trkpt>
      <trkpt lat="59.9992348" lon="17.7370082">
        <ele>98.1919</ele>
        <time>2013-04-25T18:13:20Z</time>
      </trkpt>
      <trkpt lat="59.9992079" lon="17.7370018">
        <ele>97.7112</ele>
        <time>2013-04-25T18:13:21Z</time>
      </trkpt>
      <trkpt lat="59.9991845" lon="17.7369972">
        <ele>97.2305</ele>
        <time>2013-04-25T18:13:22Z</time>
      </trkpt>
      <trkpt lat="59.9991638" lon="17.7369879">
        <ele>97.2305</ele>
        <time>2013-04-25T18:13:23Z</time>
      </trkpt>
      <trkpt lat="59.9991435" lon="17.7369725">
        <ele>97.2305</ele>
        <time>2013-04-25T18:13:24Z</time>
      </trkpt>
      <trkpt lat="59.9991202" lon="17.7369591">
        <ele>97.2305</ele>
        <time>2013-04-25T18:13:25Z</time>
      </trkpt>
      <trkpt lat="59.9990945" lon="17.736947">
        <ele>97.2305</ele>
        <time>2013-04-25T18:13:26Z</time>
      </trkpt>
      <trkpt lat="59.9990706" lon="17.7369326">
        <ele>97.2305</ele>
        <time>2013-04-25T18:13:27Z</time>
      </trkpt>
      <trkpt lat="59.9990464" lon="17.7369228">
        <ele>97.2305</ele>
        <time>2013-04-25T18:13:28Z</time>
      </trkpt>
      <trkpt lat="59.9990193" lon="17.7369218">
        <ele>97.7112</ele>
        <time>2013-04-25T18:13:29Z</time>
      </trkpt>
      <trkpt lat="59.9989924" lon="17.7369269">
        <ele>97.7112</ele>
        <time>2013-04-25T18:13:30Z</time>
      </trkpt>
      <trkpt lat="59.9989686" lon="17.7369195">
        <ele>97.7112</ele>
        <time>2013-04-25T18:13:31Z</time>
      </trkpt>
      <trkpt lat="59.9989459" lon="17.7369193">
        <ele>99.1531</ele>
        <time>2013-04-25T18:13:32Z</time>
      </trkpt>
      <trkpt lat="59.9989235" lon="17.7369146">
        <ele>99.6338</ele>
        <time>2013-04-25T18:13:33Z</time>
      </trkpt>
      <trkpt lat="59.9989033" lon="17.7369119">
        <ele>99.6338</ele>
        <time>2013-04-25T18:13:34Z</time>
      </trkpt>
      <trkpt lat="59.998881" lon="17.736903">
        <ele>99.1531</ele>
        <time>2013-04-25T18:13:35Z</time>
      </trkpt>
      <trkpt lat="59.9988609" lon="17.7368943">
        <ele>98.6725</ele>
        <time>2013-04-25T18:13:36Z</time>
      </trkpt>
      <trkpt lat="59.9988344" lon="17.7368881">
        <ele>98.6725</ele>
        <time>2013-04-25T18:13:37Z</time>
      </trkpt>
      <trkpt lat="59.9988116" lon="17.7368845">
        <ele>98.6725</ele>
        <time>2013-04-25T18:13:38Z</time>
      </trkpt>
      <trkpt lat="59.9987882" lon="17.7368781">
        <ele>99.1531</ele>
        <time>2013-04-25T18:13:39Z</time>
      </trkpt>
      <trkpt lat="59.998766" lon="17.7368756">
        <ele>99.6338</ele>
        <time>2013-04-25T18:13:40Z</time>
      </trkpt>
      <trkpt lat="59.9987475" lon="17.7368786">
        <ele>100.115</ele>
        <time>2013-04-25T18:13:41Z</time>
      </trkpt>
      <trkpt lat="59.9987278" lon="17.7368799">
        <ele>100.115</ele>
        <time>2013-04-25T18:13:42Z</time>
      </trkpt>
      <trkpt lat="59.9987073" lon="17.736875">
        <ele>100.595</ele>
        <time>2013-04-25T18:13:43Z</time>
      </trkpt>
      <trkpt lat="59.9986862" lon="17.7368671">
        <ele>101.076</ele>
        <time>2013-04-25T18:13:44Z</time>
      </trkpt>
      <trkpt lat="59.998664" lon="17.7368524">
        <ele>100.595</ele>
        <time>2013-04-25T18:13:45Z</time>
      </trkpt>
      <trkpt lat="59.998637" lon="17.7368532">
        <ele>101.076</ele>
        <time>2013-04-25T18:13:46Z</time>
      </trkpt>
      <trkpt lat="59.9986135" lon="17.7368516">
        <ele>101.556</ele>
        <time>2013-04-25T18:13:47Z</time>
      </trkpt>
      <trkpt lat="59.998591" lon="17.736842">
        <ele>102.037</ele>
        <time>2013-04-25T18:13:48Z</time>
      </trkpt>
      <trkpt lat="59.9985666" lon="17.736839">
        <ele>102.037</ele>
        <time>2013-04-25T18:13:49Z</time>
      </trkpt>
      <trkpt lat="59.9985467" lon="17.7368379">
        <ele>102.518</ele>
        <time>2013-04-25T18:13:50Z</time>
      </trkpt>
      <trkpt lat="59.9985211" lon="17.7368298">
        <ele>102.998</ele>
        <time>2013-04-25T18:13:51Z</time>
      </trkpt>
      <trkpt lat="59.9985003" lon="17.7368257">
        <ele>103.479</ele>
        <time>2013-04-25T18:13:52Z</time>
      </trkpt>
      <trkpt lat="59.9984769" lon="17.7368259">
        <ele>104.44</ele>
        <time>2013-04-25T18:13:53Z</time>
      </trkpt>
      <trkpt lat="59.9984531" lon="17.7368252">
        <ele>104.921</ele>
        <time>2013-04-25T18:13:54Z</time>
      </trkpt>
      <trkpt lat="59.9984302" lon="17.7368216">
        <ele>104.921</ele>
        <time>2013-04-25T18:13:55Z</time>
      </trkpt>
      <trkpt lat="59.998412" lon="17.7368186">
        <ele>105.402</ele>
        <time>2013-04-25T18:13:56Z</time>
      </trkpt>
      <trkpt lat="59.9983878" lon="17.736813">
        <ele>104.44</ele>
        <time>2013-04-25T18:13:57Z</time>
      </trkpt>
      <trkpt lat="59.9983624" lon="17.7368051">
        <ele>104.921</ele>
        <time>2013-04-25T18:13:58Z</time>
      </trkpt>
      <trkpt lat="59.9983388" lon="17.7367931">
        <ele>105.882</ele>
        <time>2013-04-25T18:13:59Z</time>
      </trkpt>
      <trkpt lat="59.9983159" lon="17.7367851">
        <ele>106.844</ele>
        <time>2013-04-25T18:14:00Z</time>
      </trkpt>
      <trkpt lat="59.998298" lon="17.7367747">
        <ele>107.324</ele>
        <time>2013-04-25T18:14:01Z</time>
      </trkpt>
      <trkpt lat="59.9982737" lon="17.7367688">
        <ele>106.844</ele>
        <time>2013-04-25T18:14:02Z</time>
      </trkpt>
      <trkpt lat="59.998251" lon="17.736758">
        <ele>106.844</ele>
        <time>2013-04-25T18:14:03Z</time>
      </trkpt>
      <trkpt lat="59.9982262" lon="17.7367605">
        <ele>107.324</ele>
        <time>2013-04-25T18:14:04Z</time>
      </trkpt>
      <trkpt lat="59.9981993" lon="17.7367694">
        <ele>107.805</ele>
        <time>2013-04-25T18:14:05Z</time>
      </trkpt>
      <trkpt lat="59.9981691" lon="17.7367835">
        <ele>108.766</ele>
        <time>2013-04-25T18:14:06Z</time>
      </trkpt>
      <trkpt lat="59.998148" lon="17.736789">
        <ele>109.728</ele>
        <time>2013-04-25T18:14:07Z</time>
      </trkpt>
      <trkpt lat="59.998125" lon="17.7367967">
        <ele>110.689</ele>
        <time>2013-04-25T18:14:08Z</time>
      </trkpt>
      <trkpt lat="59.9981002" lon="17.7368004">
        <ele>111.65</ele>
        <time>2013-04-25T18:14:09Z</time>
      </trkpt>
      <trkpt lat="59.99808" lon="17.736805">
        <ele>112.131</ele>
        <time>2013-04-25T18:14:10Z</time>
      </trkpt>
      <trkpt lat="59.9980486" lon="17.736831">
        <ele>113.092</ele>
        <time>2013-04-25T18:14:11Z</time>
      </trkpt>
      <trkpt lat="59.9980243" lon="17.736828">
        <ele>113.092</ele>
        <time>2013-04-25T18:14:12Z</time>
      </trkpt>
      <trkpt lat="59.9979898" lon="17.736834">
        <ele>112.131</ele>
        <time>2013-04-25T18:14:13Z</time>
      </trkpt>
      <trkpt lat="59.99796" lon="17.7368626">
        <ele>112.612</ele>
        <time>2013-04-25T18:14:14Z</time>
      </trkpt>
      <trkpt lat="59.9979334" lon="17.7368773">
        <ele>114.054</ele>
        <time>2013-04-25T18:14:15Z</time>
      </trkpt>
      <trkpt lat="59.9979025" lon="17.7368736">
        <ele>113.573</ele>
        <time>2013-04-25T18:14:16Z</time>
      </trkpt>
      <trkpt lat="59.997875" lon="17.7368833">
        <ele>113.573</ele>
        <time>2013-04-25T18:14:17Z</time>
      </trkpt>
      <trkpt lat="59.9978444" lon="17.7368948">
        <ele>114.054</ele>
        <time>2013-04-25T18:14:18Z</time>
      </trkpt>
      <trkpt lat="59.9978201" lon="17.7368989">
        <ele>113.573</ele>
        <time>2013-04-25T18:14:19Z</time>
      </trkpt>
      <trkpt lat="59.997793" lon="17.7369036">
        <ele>114.054</ele>
        <time>2013-04-25T18:14:20Z</time>
      </trkpt>
      <trkpt lat="59.9977667" lon="17.7369042">
        <ele>115.015</ele>
        <time>2013-04-25T18:14:21Z</time>
      </trkpt>
      <trkpt lat="59.9977482" lon="17.7368947">
        <ele>115.496</ele>
        <time>2013-04-25T18:14:22Z</time>
      </trkpt>
      <trkpt lat="59.9977303" lon="17.7368932">
        <ele>115.496</ele>
        <time>2013-04-25T18:14:23Z</time>
      </trkpt>
      <trkpt lat="59.9977101" lon="17.736898">
        <ele>116.457</ele>
        <time>2013-04-25T18:14:24Z</time>
      </trkpt>
      <trkpt lat="59.9976912" lon="17.7369009">
        <ele>116.938</ele>
        <time>2013-04-25T18:14:25Z</time>
      </trkpt>
      <trkpt lat="59.9976757" lon="17.7368946">
        <ele>116.938</ele>
        <time>2013-04-25T18:14:26Z</time>
      </trkpt>
      <trkpt lat="59.9976619" lon="17.7368946">
        <ele>116.938</ele>
        <time>2013-04-25T18:14:27Z</time>
      </trkpt>
      <trkpt lat="59.9976413" lon="17.7368885">
        <ele>117.418</ele>
        <time>2013-04-25T18:14:28Z</time>
      </trkpt>
      <trkpt lat="59.997628" lon="17.7368778">
        <ele>117.418</ele>
        <time>2013-04-25T18:14:29Z</time>
      </trkpt>
      <trkpt lat="59.9976145" lon="17.7368751">
        <ele>117.899</ele>
        <time>2013-04-25T18:14:30Z</time>
      </trkpt>
      <trkpt lat="59.9975994" lon="17.7368737">
        <ele>118.379</ele>
        <time>2013-04-25T18:14:31Z</time>
      </trkpt>
      <trkpt lat="59.9975813" lon="17.7368706">
        <ele>117.899</ele>
        <time>2013-04-25T18:14:32Z</time>
      </trkpt>
      <trkpt lat="59.9975614" lon="17.7368675">
        <ele>117.899</ele>
        <time>2013-04-25T18:14:33Z</time>
      </trkpt>
      <trkpt lat="59.9975439" lon="17.7368597">
        <ele>117.899</ele>
        <time>2013-04-25T18:14:34Z</time>
      </trkpt>
      <trkpt lat="59.9975338" lon="17.7368502">
        <ele>117.418</ele>
        <time>2013-04-25T18:14:35Z</time>
      </trkpt>
      <trkpt lat="59.9975143" lon="17.7368416">
        <ele>115.976</ele>
        <time>2013-04-25T18:14:36Z</time>
      </trkpt>
      <trkpt lat="59.9974958" lon="17.7368207">
        <ele>115.496</ele>
        <time>2013-04-25T18:14:37Z</time>
      </trkpt>
      <trkpt lat="59.9974731" lon="17.7368112">
        <ele>115.015</ele>
        <time>2013-04-25T18:14:38Z</time>
      </trkpt>
      <trkpt lat="59.997447" lon="17.7368136">
        <ele>115.015</ele>
        <time>2013-04-25T18:14:39Z</time>
      </trkpt>
      <trkpt lat="59.9974262" lon="17.7368057">
        <ele>115.015</ele>
        <time>2013-04-25T18:14:40Z</time>
      </trkpt>
      <trkpt lat="59.9974008" lon="17.7367985">
        <ele>114.534</ele>
        <time>2013-04-25T18:14:41Z</time>
      </trkpt>
      <trkpt lat="59.997376" lon="17.7367929">
        <ele>114.534</ele>
        <time>2013-04-25T18:14:42Z</time>
      </trkpt>
      <trkpt lat="59.997355" lon="17.73679">
        <ele>113.573</ele>
        <time>2013-04-25T18:14:43Z</time>
      </trkpt>
      <trkpt lat="59.9973336" lon="17.7367958">
        <ele>114.534</ele>
        <time>2013-04-25T18:14:44Z</time>
      </trkpt>
      <trkpt lat="59.9973108" lon="17.7367902">
        <ele>115.015</ele>
        <time>2013-04-25T18:14:45Z</time>
      </trkpt>
      <trkpt lat="59.9972907" lon="17.736787">
        <ele>115.496</ele>
        <time>2013-04-25T18:14:46Z</time>
      </trkpt>
      <trkpt lat="59.9972734" lon="17.7367718">
        <ele>115.976</ele>
        <time>2013-04-25T18:14:47Z</time>
      </trkpt>
      <trkpt lat="59.9972507" lon="17.7367617">
        <ele>116.457</ele>
        <time>2013-04-25T18:14:48Z</time>
      </trkpt>
      <trkpt lat="59.9972287" lon="17.7367661">
        <ele>117.899</ele>
        <time>2013-04-25T18:14:49Z</time>
      </trkpt>
      <trkpt lat="59.9972073" lon="17.7367736">
        <ele>118.86</ele>
        <time>2013-04-25T18:14:50Z</time>
      </trkpt>
      <trkpt lat="59.997183" lon="17.7367778">
        <ele>119.821</ele>
        <time>2013-04-25T18:14:51Z</time>
      </trkpt>
      <trkpt lat="59.9971571" lon="17.73677">
        <ele>120.783</ele>
        <time>2013-04-25T18:14:52Z</time>
      </trkpt>
      <trkpt lat="59.997127" lon="17.7367677">
        <ele>121.264</ele>
        <time>2013-04-25T18:14:53Z</time>
      </trkpt>
      <trkpt lat="59.997102" lon="17.73677">
        <ele>121.744</ele>
        <time>2013-04-25T18:14:54Z</time>
      </trkpt>
      <trkpt lat="59.9970799" lon="17.7367627">
        <ele>122.705</ele>
        <time>2013-04-25T18:14:55Z</time>
      </trkpt>
      <trkpt lat="59.9970555" lon="17.7367649">
        <ele>124.147</ele>
        <time>2013-04-25T18:14:56Z</time>
      </trkpt>
      <trkpt lat="59.9970258" lon="17.7367669">
        <ele>124.147</ele>
        <time>2013-04-25T18:14:57Z</time>
      </trkpt>
      <trkpt lat="59.997002" lon="17.7367518">
        <ele>124.147</ele>
        <time>2013-04-25T18:14:58Z</time>
      </trkpt>
      <trkpt lat="59.9969689" lon="17.736743">
        <ele>123.667</ele>
        <time>2013-04-25T18:14:59Z</time>
      </trkpt>
      <trkpt lat="59.9969384" lon="17.736733">
        <ele>124.147</ele>
        <time>2013-04-25T18:15:00Z</time>
      </trkpt>
      <trkpt lat="59.996914" lon="17.736725">
        <ele>123.667</ele>
        <time>2013-04-25T18:15:01Z</time>
      </trkpt>
      <trkpt lat="59.9968929" lon="17.7367104">
        <ele>122.705</ele>
        <time>2013-04-25T18:15:02Z</time>
      </trkpt>
      <trkpt lat="59.9968814" lon="17.736696">
        <ele>122.705</ele>
        <time>2013-04-25T18:15:03Z</time>
      </trkpt>
      <trkpt lat="59.9968614" lon="17.7366773">
        <ele>122.705</ele>
        <time>2013-04-25T18:15:04Z</time>
      </trkpt>
      <trkpt lat="59.9968308" lon="17.736663">
        <ele>122.705</ele>
        <time>2013-04-25T18:15:05Z</time>
      </trkpt>
      <trkpt lat="59.9968079" lon="17.736661">
        <ele>123.186</ele>
        <time>2013-04-25T18:15:06Z</time>
      </trkpt>
      <trkpt lat="59.9967989" lon="17.7366584">
        <ele>123.667</ele>
        <time>2013-04-25T18:15:07Z</time>
      </trkpt>
      <trkpt lat="59.9967893" lon="17.736648">
        <ele>123.667</ele>
        <time>2013-04-25T18:15:08Z</time>
      </trkpt>
      <trkpt lat="59.9967827" lon="17.7366281">
        <ele>123.667</ele>
        <time>2013-04-25T18:15:09Z</time>
      </trkpt>
      <trkpt lat="59.9967534" lon="17.7365867">
        <ele>123.667</ele>
        <time>2013-04-25T18:15:10Z</time>
      </trkpt>
      <trkpt lat="59.9967193" lon="17.7365584">
        <ele>123.667</ele>
        <time>2013-04-25T18:15:11Z</time>
      </trkpt>
      <trkpt lat="59.9966883" lon="17.7365311">
        <ele>123.186</ele>
        <time>2013-04-25T18:15:12Z</time>
      </trkpt>
      <trkpt lat="59.9966567" lon="17.736511">
        <ele>123.186</ele>
        <time>2013-04-25T18:15:13Z</time>
      </trkpt>
      <trkpt lat="59.9966214" lon="17.7364984">
        <ele>123.186</ele>
        <time>2013-04-25T18:15:14Z</time>
      </trkpt>
      <trkpt lat="59.9965884" lon="17.7364845">
        <ele>123.667</ele>
        <time>2013-04-25T18:15:15Z</time>
      </trkpt>
      <trkpt lat="59.9965541" lon="17.7364592">
        <ele>123.667</ele>
        <time>2013-04-25T18:15:16Z</time>
      </trkpt>
      <trkpt lat="59.9965237" lon="17.7364338">
        <ele>122.705</ele>
        <time>2013-04-25T18:15:17Z</time>
      </trkpt>
      <trkpt lat="59.9964945" lon="17.7364116">
        <ele>122.225</ele>
        <time>2013-04-25T18:15:18Z</time>
      </trkpt>
      <trkpt lat="59.9964741" lon="17.7363919">
        <ele>121.744</ele>
        <time>2013-04-25T18:15:19Z</time>
      </trkpt>
      <trkpt lat="59.9964515" lon="17.736371">
        <ele>122.225</ele>
        <time>2013-04-25T18:15:20Z</time>
      </trkpt>
      <trkpt lat="59.9964308" lon="17.736358">
        <ele>123.186</ele>
        <time>2013-04-25T18:15:21Z</time>
      </trkpt>
      <trkpt lat="59.9964117" lon="17.7363462">
        <ele>122.705</ele>
        <time>2013-04-25T18:15:22Z</time>
      </trkpt>
      <trkpt lat="59.9963907" lon="17.7363421">
        <ele>123.186</ele>
        <time>2013-04-25T18:15:23Z</time>
      </trkpt>
      <trkpt lat="59.9963672" lon="17.7363333">
        <ele>123.667</ele>
        <time>2013-04-25T18:15:24Z</time>
      </trkpt>
      <trkpt lat="59.996341" lon="17.7363225">
        <ele>124.147</ele>
        <time>2013-04-25T18:15:25Z</time>
      </trkpt>
      <trkpt lat="59.9963196" lon="17.736312">
        <ele>124.628</ele>
        <time>2013-04-25T18:15:26Z</time>
      </trkpt>
      <trkpt lat="59.9962998" lon="17.7363214">
        <ele>125.589</ele>
        <time>2013-04-25T18:15:27Z</time>
      </trkpt>
      <trkpt lat="59.9962769" lon="17.7363214">
        <ele>126.551</ele>
        <time>2013-04-25T18:15:28Z</time>
      </trkpt>
      <trkpt lat="59.9962572" lon="17.7363181">
        <ele>127.512</ele>
        <time>2013-04-25T18:15:29Z</time>
      </trkpt>
      <trkpt lat="59.996237" lon="17.736317">
        <ele>129.435</ele>
        <time>2013-04-25T18:15:30Z</time>
      </trkpt>
      <trkpt lat="59.9962091" lon="17.7363127">
        <ele>129.435</ele>
        <time>2013-04-25T18:15:31Z</time>
      </trkpt>
      <trkpt lat="59.9961892" lon="17.7363121">
        <ele>129.435</ele>
        <time>2013-04-25T18:15:32Z</time>
      </trkpt>
      <trkpt lat="59.9961638" lon="17.7363209">
        <ele>131.357</ele>
        <time>2013-04-25T18:15:33Z</time>
      </trkpt>
      <trkpt lat="59.9961426" lon="17.7363172">
        <ele>130.877</ele>
        <time>2013-04-25T18:15:34Z</time>
      </trkpt>
      <trkpt lat="59.9961208" lon="17.7363171">
        <ele>130.877</ele>
        <time>2013-04-25T18:15:35Z</time>
      </trkpt>
      <trkpt lat="59.9960979" lon="17.7363259">
        <ele>131.357</ele>
        <time>2013-04-25T18:15:36Z</time>
      </trkpt>
      <trkpt lat="59.9960765" lon="17.7363255">
        <ele>130.396</ele>
        <time>2013-04-25T18:15:37Z</time>
      </trkpt>
      <trkpt lat="59.99606" lon="17.7363224">
        <ele>130.396</ele>
        <time>2013-04-25T18:15:38Z</time>
      </trkpt>
      <trkpt lat="59.9960478" lon="17.7363322">
        <ele>130.877</ele>
        <time>2013-04-25T18:15:39Z</time>
      </trkpt>
      <trkpt lat="59.9960284" lon="17.73633">
        <ele>128.954</ele>
        <time>2013-04-25T18:15:40Z</time>
      </trkpt>
      <trkpt lat="59.9960076" lon="17.7363212">
        <ele>129.435</ele>
        <time>2013-04-25T18:15:41Z</time>
      </trkpt>
      <trkpt lat="59.9959838" lon="17.7363153">
        <ele>128.473</ele>
        <time>2013-04-25T18:15:42Z</time>
      </trkpt>
      <trkpt lat="59.9959631" lon="17.7363136">
        <ele>128.473</ele>
        <time>2013-04-25T18:15:43Z</time>
      </trkpt>
      <trkpt lat="59.9959388" lon="17.7363142">
        <ele>128.473</ele>
        <time>2013-04-25T18:15:44Z</time>
      </trkpt>
      <trkpt lat="59.9959112" lon="17.7363265">
        <ele>129.915</ele>
        <time>2013-04-25T18:15:45Z</time>
      </trkpt>
      <trkpt lat="59.9958858" lon="17.7363471">
        <ele>130.877</ele>
        <time>2013-04-25T18:15:46Z</time>
      </trkpt>
      <trkpt lat="59.9958673" lon="17.7363442">
        <ele>130.396</ele>
        <time>2013-04-25T18:15:47Z</time>
      </trkpt>
      <trkpt lat="59.9958491" lon="17.7363473">
        <ele>130.877</ele>
        <time>2013-04-25T18:15:48Z</time>
      </trkpt>
      <trkpt lat="59.9958254" lon="17.7363623">
        <ele>131.838</ele>
        <time>2013-04-25T18:15:49Z</time>
      </trkpt>
      <trkpt lat="59.9958002" lon="17.7363764">
        <ele>132.319</ele>
        <time>2013-04-25T18:15:50Z</time>
      </trkpt>
      <trkpt lat="59.9957744" lon="17.7363685">
        <ele>131.838</ele>
        <time>2013-04-25T18:15:51Z</time>
      </trkpt>
      <trkpt lat="59.9957464" lon="17.7363613">
        <ele>130.396</ele>
        <time>2013-04-25T18:15:52Z</time>
      </trkpt>
      <trkpt lat="59.9957253" lon="17.7363583">
        <ele>129.915</ele>
        <time>2013-04-25T18:15:53Z</time>
      </trkpt>
      <trkpt lat="59.9957051" lon="17.7363531">
        <ele>129.435</ele>
        <time>2013-04-25T18:15:54Z</time>
      </trkpt>
      <trkpt lat="59.9956803" lon="17.7363538">
        <ele>128.954</ele>
        <time>2013-04-25T18:15:55Z</time>
      </trkpt>
      <trkpt lat="59.9956539" lon="17.7363494">
        <ele>128.954</ele>
        <time>2013-04-25T18:15:56Z</time>
      </trkpt>
      <trkpt lat="59.9956236" lon="17.7363549">
        <ele>129.435</ele>
        <time>2013-04-25T18:15:57Z</time>
      </trkpt>
      <trkpt lat="59.9955983" lon="17.7363593">
        <ele>129.915</ele>
        <time>2013-04-25T18:15:58Z</time>
      </trkpt>
      <trkpt lat="59.9955715" lon="17.7363494">
        <ele>129.915</ele>
        <time>2013-04-25T18:15:59Z</time>
      </trkpt>
      <trkpt lat="59.9955545" lon="17.736342">
        <ele>129.435</ele>
        <time>2013-04-25T18:16:00Z</time>
      </trkpt>
      <trkpt lat="59.9955314" lon="17.7363479">
        <ele>130.396</ele>
        <time>2013-04-25T18:16:01Z</time>
      </trkpt>
      <trkpt lat="59.9955057" lon="17.7363588">
        <ele>130.877</ele>
        <time>2013-04-25T18:16:02Z</time>
      </trkpt>
      <trkpt lat="59.995475" lon="17.7363669">
        <ele>130.877</ele>
        <time>2013-04-25T18:16:03Z</time>
      </trkpt>
      <trkpt lat="59.9954509" lon="17.7363654">
        <ele>131.357</ele>
        <time>2013-04-25T18:16:04Z</time>
      </trkpt>
      <trkpt lat="59.9954243" lon="17.7363737">
        <ele>132.319</ele>
        <time>2013-04-25T18:16:05Z</time>
      </trkpt>
      <trkpt lat="59.9953969" lon="17.7363678">
        <ele>131.838</ele>
        <time>2013-04-25T18:16:06Z</time>
      </trkpt>
      <trkpt lat="59.9953695" lon="17.7363653">
        <ele>130.877</ele>
        <time>2013-04-25T18:16:07Z</time>
      </trkpt>
      <trkpt lat="59.995342" lon="17.7363647">
        <ele>130.877</ele>
        <time>2013-04-25T18:16:08Z</time>
      </trkpt>
      <trkpt lat="59.9953139" lon="17.7363621">
        <ele>131.357</ele>
        <time>2013-04-25T18:16:09Z</time>
      </trkpt>
      <trkpt lat="59.9952884" lon="17.7363502">
        <ele>131.838</ele>
        <time>2013-04-25T18:16:10Z</time>
      </trkpt>
      <trkpt lat="59.9952618" lon="17.7363201">
        <ele>130.396</ele>
        <time>2013-04-25T18:16:11Z</time>
      </trkpt>
      <trkpt lat="59.9952373" lon="17.7363028">
        <ele>129.915</ele>
        <time>2013-04-25T18:16:12Z</time>
      </trkpt>
      <trkpt lat="59.9952155" lon="17.7362808">
        <ele>129.435</ele>
        <time>2013-04-25T18:16:13Z</time>
      </trkpt>
      <trkpt lat="59.995182" lon="17.736245">
        <ele>127.993</ele>
        <time>2013-04-25T18:16:14Z</time>
      </trkpt>
      <trkpt lat="59.9951511" lon="17.7362245">
        <ele>127.512</ele>
        <time>2013-04-25T18:16:15Z</time>
      </trkpt>
      <trkpt lat="59.9951302" lon="17.7362139">
        <ele>127.512</ele>
        <time>2013-04-25T18:16:16Z</time>
      </trkpt>
      <trkpt lat="59.9951082" lon="17.7362056">
        <ele>127.512</ele>
        <time>2013-04-25T18:16:17Z</time>
      </trkpt>
      <trkpt lat="59.9950923" lon="17.7362007">
        <ele>127.993</ele>
        <time>2013-04-25T18:16:18Z</time>
      </trkpt>
      <trkpt lat="59.9950747" lon="17.7361793">
        <ele>127.512</ele>
        <time>2013-04-25T18:16:19Z</time>
      </trkpt>
      <trkpt lat="59.9950549" lon="17.736144">
        <ele>126.551</ele>
        <time>2013-04-25T18:16:20Z</time>
      </trkpt>
      <trkpt lat="59.9950347" lon="17.7361316">
        <ele>126.07</ele>
        <time>2013-04-25T18:16:21Z</time>
      </trkpt>
      <trkpt lat="59.9950087" lon="17.7361275">
        <ele>127.031</ele>
        <time>2013-04-25T18:16:22Z</time>
      </trkpt>
      <trkpt lat="59.9949813" lon="17.7361217">
        <ele>127.031</ele>
        <time>2013-04-25T18:16:23Z</time>
      </trkpt>
      <trkpt lat="59.994947" lon="17.73611">
        <ele>127.031</ele>
        <time>2013-04-25T18:16:24Z</time>
      </trkpt>
      <trkpt lat="59.9949176" lon="17.7360981">
        <ele>127.031</ele>
        <time>2013-04-25T18:16:25Z</time>
      </trkpt>
      <trkpt lat="59.9948959" lon="17.7360928">
        <ele>127.512</ele>
        <time>2013-04-25T18:16:26Z</time>
      </trkpt>
      <trkpt lat="59.994874" lon="17.7360757">
        <ele>127.512</ele>
        <time>2013-04-25T18:16:27Z</time>
      </trkpt>
      <trkpt lat="59.99486" lon="17.7360582">
        <ele>127.512</ele>
        <time>2013-04-25T18:16:28Z</time>
      </trkpt>
      <trkpt lat="59.9948491" lon="17.7360466">
        <ele>128.473</ele>
        <time>2013-04-25T18:16:29Z</time>
      </trkpt>
      <trkpt lat="59.9948213" lon="17.736024">
        <ele>127.993</ele>
        <time>2013-04-25T18:16:30Z</time>
      </trkpt>
      <trkpt lat="59.9947929" lon="17.7360047">
        <ele>126.551</ele>
        <time>2013-04-25T18:16:31Z</time>
      </trkpt>
      <trkpt lat="59.9947773" lon="17.7359941">
        <ele>126.551</ele>
        <time>2013-04-25T18:16:32Z</time>
      </trkpt>
      <trkpt lat="59.9947571" lon="17.7359708">
        <ele>126.551</ele>
        <time>2013-04-25T18:16:33Z</time>
      </trkpt>
      <trkpt lat="59.99473" lon="17.735951">
        <ele>126.07</ele>
        <time>2013-04-25T18:16:34Z</time>
      </trkpt>
      <trkpt lat="59.9947095" lon="17.7359386">
        <ele>125.109</ele>
        <time>2013-04-25T18:16:35Z</time>
      </trkpt>
      <trkpt lat="59.994679" lon="17.7359219">
        <ele>122.705</ele>
        <time>2013-04-25T18:16:36Z</time>
      </trkpt>
      <trkpt lat="59.9946538" lon="17.7359153">
        <ele>122.225</ele>
        <time>2013-04-25T18:16:37Z</time>
      </trkpt>
      <trkpt lat="59.9946271" lon="17.7359111">
        <ele>122.705</ele>
        <time>2013-04-25T18:16:38Z</time>
      </trkpt>
      <trkpt lat="59.9946074" lon="17.735897">
        <ele>122.705</ele>
        <time>2013-04-25T18:16:39Z</time>
      </trkpt>
      <trkpt lat="59.9945882" lon="17.7358822">
        <ele>122.225</ele>
        <time>2013-04-25T18:16:40Z</time>
      </trkpt>
      <trkpt lat="59.9945647" lon="17.7358522">
        <ele>121.264</ele>
        <time>2013-04-25T18:16:41Z</time>
      </trkpt>
      <trkpt lat="59.9945533" lon="17.7358412">
        <ele>121.744</ele>
        <time>2013-04-25T18:16:42Z</time>
      </trkpt>
      <trkpt lat="59.9945381" lon="17.7358361">
        <ele>122.225</ele>
        <time>2013-04-25T18:16:43Z</time>
      </trkpt>
      <trkpt lat="59.9945199" lon="17.7358453">
        <ele>122.705</ele>
        <time>2013-04-25T18:16:44Z</time>
      </trkpt>
      <trkpt lat="59.9944986" lon="17.735843">
        <ele>122.705</ele>
        <time>2013-04-25T18:16:45Z</time>
      </trkpt>
      <trkpt lat="59.9944758" lon="17.735828">
        <ele>122.225</ele>
        <time>2013-04-25T18:16:46Z</time>
      </trkpt>
      <trkpt lat="59.9944567" lon="17.7358125">
        <ele>122.225</ele>
        <time>2013-04-25T18:16:47Z</time>
      </trkpt>
      <trkpt lat="59.9944318" lon="17.7357925">
        <ele>120.783</ele>
        <time>2013-04-25T18:16:48Z</time>
      </trkpt>
      <trkpt lat="59.994407" lon="17.7357811">
        <ele>120.783</ele>
        <time>2013-04-25T18:16:49Z</time>
      </trkpt>
      <trkpt lat="59.9943788" lon="17.7357736">
        <ele>119.821</ele>
        <time>2013-04-25T18:16:50Z</time>
      </trkpt>
      <trkpt lat="59.994351" lon="17.7357664">
        <ele>118.86</ele>
        <time>2013-04-25T18:16:51Z</time>
      </trkpt>
      <trkpt lat="59.9943254" lon="17.7357614">
        <ele>119.341</ele>
        <time>2013-04-25T18:16:52Z</time>
      </trkpt>
      <trkpt lat="59.9942971" lon="17.7357741">
        <ele>120.302</ele>
        <time>2013-04-25T18:16:53Z</time>
      </trkpt>
      <trkpt lat="59.9942745" lon="17.7357915">
        <ele>121.264</ele>
        <time>2013-04-25T18:16:54Z</time>
      </trkpt>
      <trkpt lat="59.9942552" lon="17.7357783">
        <ele>120.783</ele>
        <time>2013-04-25T18:16:55Z</time>
      </trkpt>
      <trkpt lat="59.9942299" lon="17.7357773">
        <ele>120.783</ele>
        <time>2013-04-25T18:16:56Z</time>
      </trkpt>
      <trkpt lat="59.9942047" lon="17.7357691">
        <ele>120.783</ele>
        <time>2013-04-25T18:16:57Z</time>
      </trkpt>
      <trkpt lat="59.9941789" lon="17.7357817">
        <ele>121.744</ele>
        <time>2013-04-25T18:16:58Z</time>
      </trkpt>
      <trkpt lat="59.994155" lon="17.7357887">
        <ele>122.225</ele>
        <time>2013-04-25T18:16:59Z</time>
      </trkpt>
      <trkpt lat="59.9941327" lon="17.7357707">
        <ele>121.744</ele>
        <time>2013-04-25T18:17:00Z</time>
      </trkpt>
      <trkpt lat="59.9941127" lon="17.735768">
        <ele>121.264</ele>
        <time>2013-04-25T18:17:01Z</time>
      </trkpt>
      <trkpt lat="59.9940875" lon="17.7357552">
        <ele>120.302</ele>
        <time>2013-04-25T18:17:02Z</time>
      </trkpt>
      <trkpt lat="59.9940656" lon="17.7357648">
        <ele>120.302</ele>
        <time>2013-04-25T18:17:03Z</time>
      </trkpt>
      <trkpt lat="59.9940364" lon="17.7357604">
        <ele>120.302</ele>
        <time>2013-04-25T18:17:04Z</time>
      </trkpt>
      <trkpt lat="59.9940023" lon="17.7357772">
        <ele>119.821</ele>
        <time>2013-04-25T18:17:05Z</time>
      </trkpt>
      <trkpt lat="59.9939708" lon="17.7357785">
        <ele>119.821</ele>
        <time>2013-04-25T18:17:06Z</time>
      </trkpt>
      <trkpt lat="59.9939454" lon="17.7357749">
        <ele>118.86</ele>
        <time>2013-04-25T18:17:07Z</time>
      </trkpt>
      <trkpt lat="59.9939203" lon="17.7357882">
        <ele>118.86</ele>
        <time>2013-04-25T18:17:08Z</time>
      </trkpt>
      <trkpt lat="59.9938971" lon="17.7358189">
        <ele>120.302</ele>
        <time>2013-04-25T18:17:09Z</time>
      </trkpt>
      <trkpt lat="59.9938675" lon="17.7358415">
        <ele>121.744</ele>
        <time>2013-04-25T18:17:10Z</time>
      </trkpt>
      <trkpt lat="59.9938315" lon="17.7358587">
        <ele>122.705</ele>
        <time>2013-04-25T18:17:11Z</time>
      </trkpt>
      <trkpt lat="59.9938066" lon="17.7358702">
        <ele>123.186</ele>
        <time>2013-04-25T18:17:12Z</time>
      </trkpt>
      <trkpt lat="59.9937873" lon="17.7358764">
        <ele>123.667</ele>
        <time>2013-04-25T18:17:13Z</time>
      </trkpt>
      <trkpt lat="59.9937592" lon="17.7358846">
        <ele>123.667</ele>
        <time>2013-04-25T18:17:14Z</time>
      </trkpt>
      <trkpt lat="59.9937361" lon="17.7358836">
        <ele>123.667</ele>
        <time>2013-04-25T18:17:15Z</time>
      </trkpt>
      <trkpt lat="59.9937126" lon="17.7358821">
        <ele>122.225</ele>
        <time>2013-04-25T18:17:16Z</time>
      </trkpt>
      <trkpt lat="59.9936914" lon="17.7358925">
        <ele>122.225</ele>
        <time>2013-04-25T18:17:17Z</time>
      </trkpt>
      <trkpt lat="59.9936766" lon="17.7359026">
        <ele>121.744</ele>
        <time>2013-04-25T18:17:18Z</time>
      </trkpt>
      <trkpt lat="59.993661" lon="17.7359054">
        <ele>120.783</ele>
        <time>2013-04-25T18:17:19Z</time>
      </trkpt>
      <trkpt lat="59.993643" lon="17.7359192">
        <ele>121.264</ele>
        <time>2013-04-25T18:17:20Z</time>
      </trkpt>
      <trkpt lat="59.9936194" lon="17.735938">
        <ele>120.302</ele>
        <time>2013-04-25T18:17:21Z</time>
      </trkpt>
      <trkpt lat="59.9936029" lon="17.7359313">
        <ele>118.86</ele>
        <time>2013-04-25T18:17:22Z</time>
      </trkpt>
      <trkpt lat="59.9935852" lon="17.7359313">
        <ele>117.899</ele>
        <time>2013-04-25T18:17:23Z</time>
      </trkpt>
      <trkpt lat="59.993565" lon="17.7359368">
        <ele>116.457</ele>
        <time>2013-04-25T18:17:24Z</time>
      </trkpt>
      <trkpt lat="59.9935453" lon="17.7359494">
        <ele>116.938</ele>
        <time>2013-04-25T18:17:25Z</time>
      </trkpt>
      <trkpt lat="59.9935247" lon="17.7359699">
        <ele>116.938</ele>
        <time>2013-04-25T18:17:26Z</time>
      </trkpt>
      <trkpt lat="59.993505" lon="17.7360003">
        <ele>115.976</ele>
        <time>2013-04-25T18:17:27Z</time>
      </trkpt>
      <trkpt lat="59.9934822" lon="17.736043">
        <ele>115.976</ele>
        <time>2013-04-25T18:17:28Z</time>
      </trkpt>
      <trkpt lat="59.9934554" lon="17.7360984">
        <ele>116.938</ele>
        <time>2013-04-25T18:17:29Z</time>
      </trkpt>
      <trkpt lat="59.993431" lon="17.7361442">
        <ele>117.418</ele>
        <time>2013-04-25T18:17:30Z</time>
      </trkpt>
      <trkpt lat="59.9934123" lon="17.7361704">
        <ele>116.457</ele>
        <time>2013-04-25T18:17:31Z</time>
      </trkpt>
      <trkpt lat="59.993399" lon="17.7361818">
        <ele>115.976</ele>
        <time>2013-04-25T18:17:32Z</time>
      </trkpt>
      <trkpt lat="59.9933859" lon="17.7361929">
        <ele>114.534</ele>
        <time>2013-04-25T18:17:33Z</time>
      </trkpt>
      <trkpt lat="59.9933724" lon="17.7362">
        <ele>113.092</ele>
        <time>2013-04-25T18:17:34Z</time>
      </trkpt>
      <trkpt lat="59.9933559" lon="17.7362109">
        <ele>111.65</ele>
        <time>2013-04-25T18:17:35Z</time>
      </trkpt>
      <trkpt lat="59.9933444" lon="17.7362106">
        <ele>109.728</ele>
        <time>2013-04-25T18:17:36Z</time>
      </trkpt>
      <trkpt lat="59.9933315" lon="17.7362191">
        <ele>108.286</ele>
        <time>2013-04-25T18:17:37Z</time>
      </trkpt>
      <trkpt lat="59.9933129" lon="17.736242">
        <ele>107.324</ele>
        <time>2013-04-25T18:17:38Z</time>
      </trkpt>
      <trkpt lat="59.9932982" lon="17.7362711">
        <ele>106.363</ele>
        <time>2013-04-25T18:17:39Z</time>
      </trkpt>
      <trkpt lat="59.9932819" lon="17.7362923">
        <ele>104.921</ele>
        <time>2013-04-25T18:17:40Z</time>
      </trkpt>
      <trkpt lat="59.9932604" lon="17.7363146">
        <ele>102.998</ele>
        <time>2013-04-25T18:17:41Z</time>
      </trkpt>
      <trkpt lat="59.993245" lon="17.736338">
        <ele>102.037</ele>
        <time>2013-04-25T18:17:42Z</time>
      </trkpt>
      <trkpt lat="59.9932306" lon="17.7363579">
        <ele>101.076</ele>
        <time>2013-04-25T18:17:43Z</time>
      </trkpt>
      <trkpt lat="59.9932141" lon="17.7363898">
        <ele>99.6338</ele>
        <time>2013-04-25T18:17:44Z</time>
      </trkpt>
      <trkpt lat="59.9931957" lon="17.7364192">
        <ele>98.1919</ele>
        <time>2013-04-25T18:17:45Z</time>
      </trkpt>
      <trkpt lat="59.9931798" lon="17.7364369">
        <ele>97.2305</ele>
        <time>2013-04-25T18:17:46Z</time>
      </trkpt>
      <trkpt lat="59.9931695" lon="17.7364621">
        <ele>96.7499</ele>
        <time>2013-04-25T18:17:47Z</time>
      </trkpt>
      <trkpt lat="59.9931534" lon="17.7364835">
        <ele>94.3466</ele>
        <time>2013-04-25T18:17:48Z</time>
      </trkpt>
      <trkpt lat="59.9931351" lon="17.7365089">
        <ele>93.8658</ele>
        <time>2013-04-25T18:17:49Z</time>
      </trkpt>
      <trkpt lat="59.99312" lon="17.7365366">
        <ele>92.424</ele>
        <time>2013-04-25T18:17:50Z</time>
      </trkpt>
      <trkpt lat="59.9930979" lon="17.736569">
        <ele>91.9432</ele>
        <time>2013-04-25T18:17:51Z</time>
      </trkpt>
      <trkpt lat="59.9930736" lon="17.7366073">
        <ele>90.0206</ele>
        <time>2013-04-25T18:17:52Z</time>
      </trkpt>
      <trkpt lat="59.9930491" lon="17.7366414">
        <ele>87.6172</ele>
        <time>2013-04-25T18:17:53Z</time>
      </trkpt>
      <trkpt lat="59.9930316" lon="17.7366714">
        <ele>86.656</ele>
        <time>2013-04-25T18:17:54Z</time>
      </trkpt>
      <trkpt lat="59.9930083" lon="17.736715">
        <ele>85.6946</ele>
        <time>2013-04-25T18:17:55Z</time>
      </trkpt>
      <trkpt lat="59.992987" lon="17.7367574">
        <ele>84.7334</ele>
        <time>2013-04-25T18:17:56Z</time>
      </trkpt>
      <trkpt lat="59.9929683" lon="17.7368024">
        <ele>84.2527</ele>
        <time>2013-04-25T18:17:57Z</time>
      </trkpt>
      <trkpt lat="59.9929462" lon="17.7368368">
        <ele>82.3301</ele>
        <time>2013-04-25T18:17:58Z</time>
      </trkpt>
      <trkpt lat="59.9929225" lon="17.7368628">
        <ele>81.3688</ele>
        <time>2013-04-25T18:17:59Z</time>
      </trkpt>
      <trkpt lat="59.9928991" lon="17.7368839">
        <ele>79.9266</ele>
        <time>2013-04-25T18:18:00Z</time>
      </trkpt>
      <trkpt lat="59.992884" lon="17.7369039">
        <ele>77.0428</ele>
        <time>2013-04-25T18:18:01Z</time>
      </trkpt>
      <trkpt lat="59.9928658" lon="17.7369262">
        <ele>76.0814</ele>
        <time>2013-04-25T18:18:02Z</time>
      </trkpt>
      <trkpt lat="59.9928483" lon="17.7369571">
        <ele>76.0814</ele>
        <time>2013-04-25T18:18:03Z</time>
      </trkpt>
      <trkpt lat="59.9928271" lon="17.7369845">
        <ele>75.6008</ele>
        <time>2013-04-25T18:18:04Z</time>
      </trkpt>
      <trkpt lat="59.9928072" lon="17.737013">
        <ele>75.1202</ele>
        <time>2013-04-25T18:18:05Z</time>
      </trkpt>
      <trkpt lat="59.9927869" lon="17.7370414">
        <ele>74.6395</ele>
        <time>2013-04-25T18:18:06Z</time>
      </trkpt>
      <trkpt lat="59.9927662" lon="17.7370687">
        <ele>73.1976</ele>
        <time>2013-04-25T18:18:07Z</time>
      </trkpt>
      <trkpt lat="59.9927441" lon="17.737087">
        <ele>71.7555</ele>
        <time>2013-04-25T18:18:08Z</time>
      </trkpt>
      <trkpt lat="59.9927232" lon="17.7371041">
        <ele>69.8329</ele>
        <time>2013-04-25T18:18:09Z</time>
      </trkpt>
      <trkpt lat="59.9926995" lon="17.7371342">
        <ele>66.949</ele>
        <time>2013-04-25T18:18:10Z</time>
      </trkpt>
      <trkpt lat="59.9926757" lon="17.7371606">
        <ele>65.9877</ele>
        <time>2013-04-25T18:18:11Z</time>
      </trkpt>
      <trkpt lat="59.9926576" lon="17.7371803">
        <ele>65.9877</ele>
        <time>2013-04-25T18:18:12Z</time>
      </trkpt>
      <trkpt lat="59.9926374" lon="17.7372011">
        <ele>65.0264</ele>
        <time>2013-04-25T18:18:13Z</time>
      </trkpt>
      <trkpt lat="59.9926126" lon="17.7372309">
        <ele>64.5457</ele>
        <time>2013-04-25T18:18:14Z</time>
      </trkpt>
      <trkpt lat="59.992592" lon="17.7372698">
        <ele>65.5071</ele>
        <time>2013-04-25T18:18:15Z</time>
      </trkpt>
      <trkpt lat="59.9925685" lon="17.7373034">
        <ele>66.4683</ele>
        <time>2013-04-25T18:18:16Z</time>
      </trkpt>
      <trkpt lat="59.9925452" lon="17.7373253">
        <ele>65.9877</ele>
        <time>2013-04-25T18:18:17Z</time>
      </trkpt>
      <trkpt lat="59.9925225" lon="17.7373501">
        <ele>66.4683</ele>
        <time>2013-04-25T18:18:18Z</time>
      </trkpt>
      <trkpt lat="59.9924955" lon="17.7373684">
        <ele>66.4683</ele>
        <time>2013-04-25T18:18:19Z</time>
      </trkpt>
      <trkpt lat="59.9924732" lon="17.7373978">
        <ele>67.4297</ele>
        <time>2013-04-25T18:18:20Z</time>
      </trkpt>
      <trkpt lat="59.9924485" lon="17.7374386">
        <ele>70.3135</ele>
        <time>2013-04-25T18:18:21Z</time>
      </trkpt>
      <trkpt lat="59.9924295" lon="17.7374712">
        <ele>71.2749</ele>
        <time>2013-04-25T18:18:22Z</time>
      </trkpt>
      <trkpt lat="59.9924106" lon="17.7374755">
        <ele>70.3135</ele>
        <time>2013-04-25T18:18:23Z</time>
      </trkpt>
      <trkpt lat="59.9923862" lon="17.7374931">
        <ele>71.2749</ele>
        <time>2013-04-25T18:18:24Z</time>
      </trkpt>
      <trkpt lat="59.9923686" lon="17.7375025">
        <ele>71.2749</ele>
        <time>2013-04-25T18:18:25Z</time>
      </trkpt>
      <trkpt lat="59.9923523" lon="17.7375238">
        <ele>71.2749</ele>
        <time>2013-04-25T18:18:26Z</time>
      </trkpt>
      <trkpt lat="59.9923309" lon="17.7375514">
        <ele>71.2749</ele>
        <time>2013-04-25T18:18:27Z</time>
      </trkpt>
      <trkpt lat="59.9923089" lon="17.737572">
        <ele>70.3135</ele>
        <time>2013-04-25T18:18:28Z</time>
      </trkpt>
      <trkpt lat="59.9922857" lon="17.7375962">
        <ele>69.8329</ele>
        <time>2013-04-25T18:18:29Z</time>
      </trkpt>
      <trkpt lat="59.9922617" lon="17.7376067">
        <ele>69.8329</ele>
        <time>2013-04-25T18:18:30Z</time>
      </trkpt>
      <trkpt lat="59.9922355" lon="17.7376428">
        <ele>71.2749</ele>
        <time>2013-04-25T18:18:31Z</time>
      </trkpt>
      <trkpt lat="59.9922112" lon="17.7376866">
        <ele>72.7169</ele>
        <time>2013-04-25T18:18:32Z</time>
      </trkpt>
      <trkpt lat="59.9921892" lon="17.7377248">
        <ele>74.1588</ele>
        <time>2013-04-25T18:18:33Z</time>
      </trkpt>
      <trkpt lat="59.9921686" lon="17.7377519">
        <ele>75.1202</ele>
        <time>2013-04-25T18:18:34Z</time>
      </trkpt>
      <trkpt lat="59.9921452" lon="17.7377659">
        <ele>74.1588</ele>
        <time>2013-04-25T18:18:35Z</time>
      </trkpt>
      <trkpt lat="59.9921262" lon="17.7377764">
        <ele>75.1202</ele>
        <time>2013-04-25T18:18:36Z</time>
      </trkpt>
      <trkpt lat="59.9921106" lon="17.7377882">
        <ele>78.004</ele>
        <time>2013-04-25T18:18:37Z</time>
      </trkpt>
      <trkpt lat="59.9920949" lon="17.7377892">
        <ele>78.9655</ele>
        <time>2013-04-25T18:18:38Z</time>
      </trkpt>
      <trkpt lat="59.9920723" lon="17.7378205">
        <ele>81.3688</ele>
        <time>2013-04-25T18:18:39Z</time>
      </trkpt>
      <trkpt lat="59.992049" lon="17.7378359">
        <ele>82.3301</ele>
        <time>2013-04-25T18:18:40Z</time>
      </trkpt>
      <trkpt lat="59.9920313" lon="17.7378438">
        <ele>83.772</ele>
        <time>2013-04-25T18:18:41Z</time>
      </trkpt>
      <trkpt lat="59.9920149" lon="17.7378376">
        <ele>83.772</ele>
        <time>2013-04-25T18:18:42Z</time>
      </trkpt>
      <trkpt lat="59.9919941" lon="17.7378509">
        <ele>84.7334</ele>
        <time>2013-04-25T18:18:43Z</time>
      </trkpt>
      <trkpt lat="59.9919702" lon="17.7378681">
        <ele>87.1366</ele>
        <time>2013-04-25T18:18:44Z</time>
      </trkpt>
      <trkpt lat="59.9919491" lon="17.7378817">
        <ele>88.5787</ele>
        <time>2013-04-25T18:18:45Z</time>
      </trkpt>
      <trkpt lat="59.9919314" lon="17.7378908">
        <ele>90.0206</ele>
        <time>2013-04-25T18:18:46Z</time>
      </trkpt>
      <trkpt lat="59.9919107" lon="17.737897">
        <ele>90.0206</ele>
        <time>2013-04-25T18:18:47Z</time>
      </trkpt>
      <trkpt lat="59.9918924" lon="17.7378866">
        <ele>90.0206</ele>
        <time>2013-04-25T18:18:48Z</time>
      </trkpt>
      <trkpt lat="59.9918702" lon="17.7378884">
        <ele>89.5399</ele>
        <time>2013-04-25T18:18:49Z</time>
      </trkpt>
      <trkpt lat="59.9918521" lon="17.7378732">
        <ele>89.0593</ele>
        <time>2013-04-25T18:18:50Z</time>
      </trkpt>
      <trkpt lat="59.9918387" lon="17.737869">
        <ele>90.0206</ele>
        <time>2013-04-25T18:18:51Z</time>
      </trkpt>
      <trkpt lat="59.9918278" lon="17.7378863">
        <ele>90.5013</ele>
        <time>2013-04-25T18:18:52Z</time>
      </trkpt>
      <trkpt lat="59.9918106" lon="17.7378845">
        <ele>90.5013</ele>
        <time>2013-04-25T18:18:53Z</time>
      </trkpt>
      <trkpt lat="59.9917906" lon="17.7378757">
        <ele>90.0206</ele>
        <time>2013-04-25T18:18:54Z</time>
      </trkpt>
      <trkpt lat="59.991764" lon="17.7378717">
        <ele>90.0206</ele>
        <time>2013-04-25T18:18:55Z</time>
      </trkpt>
      <trkpt lat="59.9917411" lon="17.737871">
        <ele>90.0206</ele>
        <time>2013-04-25T18:18:56Z</time>
      </trkpt>
      <trkpt lat="59.9917264" lon="17.737871">
        <ele>90.9819</ele>
        <time>2013-04-25T18:18:57Z</time>
      </trkpt>
      <trkpt lat="59.9917095" lon="17.7378738">
        <ele>91.4625</ele>
        <time>2013-04-25T18:18:58Z</time>
      </trkpt>
      <trkpt lat="59.9916926" lon="17.7378878">
        <ele>92.9045</ele>
        <time>2013-04-25T18:18:59Z</time>
      </trkpt>
      <trkpt lat="59.9916696" lon="17.7378969">
        <ele>93.3851</ele>
        <time>2013-04-25T18:19:00Z</time>
      </trkpt>
      <trkpt lat="59.9916506" lon="17.7379079">
        <ele>94.3466</ele>
        <time>2013-04-25T18:19:01Z</time>
      </trkpt>
      <trkpt lat="59.9916335" lon="17.7379168">
        <ele>95.3077</ele>
        <time>2013-04-25T18:19:02Z</time>
      </trkpt>
      <trkpt lat="59.9916134" lon="17.7379185">
        <ele>96.2693</ele>
        <time>2013-04-25T18:19:03Z</time>
      </trkpt>
      <trkpt lat="59.9915948" lon="17.737914">
        <ele>97.2305</ele>
        <time>2013-04-25T18:19:04Z</time>
      </trkpt>
      <trkpt lat="59.9915734" lon="17.7379166">
        <ele>99.1531</ele>
        <time>2013-04-25T18:19:05Z</time>
      </trkpt>
      <trkpt lat="59.9915541" lon="17.7379197">
        <ele>101.076</ele>
        <time>2013-04-25T18:19:06Z</time>
      </trkpt>
      <trkpt lat="59.991533" lon="17.7379236">
        <ele>102.037</ele>
        <time>2013-04-25T18:19:07Z</time>
      </trkpt>
      <trkpt lat="59.9915083" lon="17.737919">
        <ele>102.998</ele>
        <time>2013-04-25T18:19:08Z</time>
      </trkpt>
      <trkpt lat="59.9914896" lon="17.7379177">
        <ele>103.479</ele>
        <time>2013-04-25T18:19:09Z</time>
      </trkpt>
      <trkpt lat="59.9914703" lon="17.7379322">
        <ele>104.44</ele>
        <time>2013-04-25T18:19:10Z</time>
      </trkpt>
      <trkpt lat="59.9914521" lon="17.7379478">
        <ele>106.363</ele>
        <time>2013-04-25T18:19:11Z</time>
      </trkpt>
      <trkpt lat="59.991433" lon="17.7379577">
        <ele>106.363</ele>
        <time>2013-04-25T18:19:12Z</time>
      </trkpt>
      <trkpt lat="59.9914113" lon="17.73797">
        <ele>107.805</ele>
        <time>2013-04-25T18:19:13Z</time>
      </trkpt>
      <trkpt lat="59.9913884" lon="17.7379838">
        <ele>108.766</ele>
        <time>2013-04-25T18:19:14Z</time>
      </trkpt>
      <trkpt lat="59.9913724" lon="17.7379853">
        <ele>109.728</ele>
        <time>2013-04-25T18:19:15Z</time>
      </trkpt>
      <trkpt lat="59.9913568" lon="17.7379966">
        <ele>111.17</ele>
        <time>2013-04-25T18:19:16Z</time>
      </trkpt>
      <trkpt lat="59.991334" lon="17.7380074">
        <ele>112.131</ele>
        <time>2013-04-25T18:19:17Z</time>
      </trkpt>
      <trkpt lat="59.9913144" lon="17.7380091">
        <ele>112.131</ele>
        <time>2013-04-25T18:19:18Z</time>
      </trkpt>
      <trkpt lat="59.9912921" lon="17.7380096">
        <ele>112.131</ele>
        <time>2013-04-25T18:19:19Z</time>
      </trkpt>
      <trkpt lat="59.9912716" lon="17.7380099">
        <ele>111.65</ele>
        <time>2013-04-25T18:19:20Z</time>
      </trkpt>
      <trkpt lat="59.9912497" lon="17.7380169">
        <ele>112.131</ele>
        <time>2013-04-25T18:19:21Z</time>
      </trkpt>
      <trkpt lat="59.9912263" lon="17.7380256">
        <ele>112.131</ele>
        <time>2013-04-25T18:19:22Z</time>
      </trkpt>
      <trkpt lat="59.9912019" lon="17.7380573">
        <ele>113.573</ele>
        <time>2013-04-25T18:19:23Z</time>
      </trkpt>
      <trkpt lat="59.9911775" lon="17.7380749">
        <ele>114.534</ele>
        <time>2013-04-25T18:19:24Z</time>
      </trkpt>
      <trkpt lat="59.9911579" lon="17.7380779">
        <ele>114.534</ele>
        <time>2013-04-25T18:19:25Z</time>
      </trkpt>
      <trkpt lat="59.9911404" lon="17.7380903">
        <ele>115.015</ele>
        <time>2013-04-25T18:19:26Z</time>
      </trkpt>
      <trkpt lat="59.9911176" lon="17.7380861">
        <ele>114.054</ele>
        <time>2013-04-25T18:19:27Z</time>
      </trkpt>
      <trkpt lat="59.9911026" lon="17.7381031">
        <ele>114.054</ele>
        <time>2013-04-25T18:19:28Z</time>
      </trkpt>
      <trkpt lat="59.9910851" lon="17.7381065">
        <ele>113.092</ele>
        <time>2013-04-25T18:19:29Z</time>
      </trkpt>
      <trkpt lat="59.9910663" lon="17.738122">
        <ele>112.612</ele>
        <time>2013-04-25T18:19:30Z</time>
      </trkpt>
      <trkpt lat="59.9910425" lon="17.738141">
        <ele>113.573</ele>
        <time>2013-04-25T18:19:31Z</time>
      </trkpt>
      <trkpt lat="59.9910239" lon="17.7381474">
        <ele>113.573</ele>
        <time>2013-04-25T18:19:32Z</time>
      </trkpt>
      <trkpt lat="59.9910053" lon="17.7381463">
        <ele>112.612</ele>
        <time>2013-04-25T18:19:33Z</time>
      </trkpt>
      <trkpt lat="59.9909868" lon="17.7381442">
        <ele>112.131</ele>
        <time>2013-04-25T18:19:34Z</time>
      </trkpt>
      <trkpt lat="59.9909713" lon="17.7381534">
        <ele>111.17</ele>
        <time>2013-04-25T18:19:35Z</time>
      </trkpt>
      <trkpt lat="59.990949" lon="17.7381666">
        <ele>111.17</ele>
        <time>2013-04-25T18:19:36Z</time>
      </trkpt>
      <trkpt lat="59.9909294" lon="17.738178">
        <ele>110.208</ele>
        <time>2013-04-25T18:19:37Z</time>
      </trkpt>
      <trkpt lat="59.9909083" lon="17.7381898">
        <ele>110.689</ele>
        <time>2013-04-25T18:19:38Z</time>
      </trkpt>
      <trkpt lat="59.9908871" lon="17.7382111">
        <ele>111.17</ele>
        <time>2013-04-25T18:19:39Z</time>
      </trkpt>
      <trkpt lat="59.9908675" lon="17.7382323">
        <ele>111.65</ele>
        <time>2013-04-25T18:19:40Z</time>
      </trkpt>
      <trkpt lat="59.9908478" lon="17.7382468">
        <ele>111.65</ele>
        <time>2013-04-25T18:19:41Z</time>
      </trkpt>
      <trkpt lat="59.9908276" lon="17.7382582">
        <ele>111.17</ele>
        <time>2013-04-25T18:19:42Z</time>
      </trkpt>
      <trkpt lat="59.9908087" lon="17.7382793">
        <ele>112.131</ele>
        <time>2013-04-25T18:19:43Z</time>
      </trkpt>
      <trkpt lat="59.9907855" lon="17.7383011">
        <ele>112.612</ele>
        <time>2013-04-25T18:19:44Z</time>
      </trkpt>
      <trkpt lat="59.9907621" lon="17.7383312">
        <ele>113.573</ele>
        <time>2013-04-25T18:19:45Z</time>
      </trkpt>
      <trkpt lat="59.9907395" lon="17.738354">
        <ele>114.534</ele>
        <time>2013-04-25T18:19:46Z</time>
      </trkpt>
      <trkpt lat="59.990718" lon="17.7383782">
        <ele>115.015</ele>
        <time>2013-04-25T18:19:47Z</time>
      </trkpt>
      <trkpt lat="59.9907004" lon="17.7383844">
        <ele>115.976</ele>
        <time>2013-04-25T18:19:48Z</time>
      </trkpt>
      <trkpt lat="59.9906825" lon="17.7383929">
        <ele>116.938</ele>
        <time>2013-04-25T18:19:49Z</time>
      </trkpt>
      <trkpt lat="59.9906638" lon="17.7383996">
        <ele>117.418</ele>
        <time>2013-04-25T18:19:50Z</time>
      </trkpt>
      <trkpt lat="59.9906383" lon="17.7384204">
        <ele>118.86</ele>
        <time>2013-04-25T18:19:51Z</time>
      </trkpt>
      <trkpt lat="59.9906136" lon="17.7384225">
        <ele>119.341</ele>
        <time>2013-04-25T18:19:52Z</time>
      </trkpt>
      <trkpt lat="59.9905923" lon="17.7384365">
        <ele>119.821</ele>
        <time>2013-04-25T18:19:53Z</time>
      </trkpt>
      <trkpt lat="59.9905721" lon="17.7384393">
        <ele>119.341</ele>
        <time>2013-04-25T18:19:54Z</time>
      </trkpt>
      <trkpt lat="59.9905554" lon="17.7384633">
        <ele>119.821</ele>
        <time>2013-04-25T18:19:55Z</time>
      </trkpt>
      <trkpt lat="59.9905338" lon="17.7384815">
        <ele>120.783</ele>
        <time>2013-04-25T18:19:56Z</time>
      </trkpt>
      <trkpt lat="59.9905129" lon="17.7384903">
        <ele>119.341</ele>
        <time>2013-04-25T18:19:57Z</time>
      </trkpt>
      <trkpt lat="59.9904955" lon="17.7384872">
        <ele>117.899</ele>
        <time>2013-04-25T18:19:58Z</time>
      </trkpt>
      <trkpt lat="59.9904767" lon="17.7384883">
        <ele>118.379</ele>
        <time>2013-04-25T18:19:59Z</time>
      </trkpt>
      <trkpt lat="59.9904587" lon="17.7384952">
        <ele>118.86</ele>
        <time>2013-04-25T18:20:00Z</time>
      </trkpt>
      <trkpt lat="59.9904374" lon="17.7384877">
        <ele>119.341</ele>
        <time>2013-04-25T18:20:01Z</time>
      </trkpt>
      <trkpt lat="59.9904204" lon="17.7384913">
        <ele>119.821</ele>
        <time>2013-04-25T18:20:02Z</time>
      </trkpt>
      <trkpt lat="59.9904007" lon="17.7384956">
        <ele>121.264</ele>
        <time>2013-04-25T18:20:03Z</time>
      </trkpt>
      <trkpt lat="59.9903813" lon="17.7385251">
        <ele>123.186</ele>
        <time>2013-04-25T18:20:04Z</time>
      </trkpt>
      <trkpt lat="59.9903604" lon="17.7385504">
        <ele>125.109</ele>
        <time>2013-04-25T18:20:05Z</time>
      </trkpt>
      <trkpt lat="59.9903393" lon="17.7385741">
        <ele>126.551</ele>
        <time>2013-04-25T18:20:06Z</time>
      </trkpt>
      <trkpt lat="59.9903152" lon="17.7385948">
        <ele>127.031</ele>
        <time>2013-04-25T18:20:07Z</time>
      </trkpt>
      <trkpt lat="59.9902898" lon="17.7386049">
        <ele>127.512</ele>
        <time>2013-04-25T18:20:08Z</time>
      </trkpt>
      <trkpt lat="59.9902691" lon="17.738613">
        <ele>128.473</ele>
        <time>2013-04-25T18:20:09Z</time>
      </trkpt>
      <trkpt lat="59.990248" lon="17.7386213">
        <ele>128.954</ele>
        <time>2013-04-25T18:20:10Z</time>
      </trkpt>
      <trkpt lat="59.9902261" lon="17.7386424">
        <ele>129.915</ele>
        <time>2013-04-25T18:20:11Z</time>
      </trkpt>
      <trkpt lat="59.990209" lon="17.7386623">
        <ele>131.838</ele>
        <time>2013-04-25T18:20:12Z</time>
      </trkpt>
      <trkpt lat="59.9901888" lon="17.7386639">
        <ele>131.357</ele>
        <time>2013-04-25T18:20:13Z</time>
      </trkpt>
      <trkpt lat="59.9901658" lon="17.7386628">
        <ele>130.877</ele>
        <time>2013-04-25T18:20:14Z</time>
      </trkpt>
      <trkpt lat="59.9901475" lon="17.7386874">
        <ele>132.319</ele>
        <time>2013-04-25T18:20:15Z</time>
      </trkpt>
      <trkpt lat="59.9901292" lon="17.7387078">
        <ele>132.319</ele>
        <time>2013-04-25T18:20:16Z</time>
      </trkpt>
      <trkpt lat="59.9901141" lon="17.73871">
        <ele>132.319</ele>
        <time>2013-04-25T18:20:17Z</time>
      </trkpt>
      <trkpt lat="59.9900914" lon="17.7387128">
        <ele>132.319</ele>
        <time>2013-04-25T18:20:18Z</time>
      </trkpt>
      <trkpt lat="59.9900702" lon="17.7387368">
        <ele>133.28</ele>
        <time>2013-04-25T18:20:19Z</time>
      </trkpt>
      <trkpt lat="59.9900467" lon="17.7387421">
        <ele>132.799</ele>
        <time>2013-04-25T18:20:20Z</time>
      </trkpt>
      <trkpt lat="59.990021" lon="17.7387432">
        <ele>132.319</ele>
        <time>2013-04-25T18:20:21Z</time>
      </trkpt>
      <trkpt lat="59.9899982" lon="17.7387405">
        <ele>131.357</ele>
        <time>2013-04-25T18:20:22Z</time>
      </trkpt>
      <trkpt lat="59.9899799" lon="17.7387263">
        <ele>129.915</ele>
        <time>2013-04-25T18:20:23Z</time>
      </trkpt>
      <trkpt lat="59.9899659" lon="17.7387265">
        <ele>130.396</ele>
        <time>2013-04-25T18:20:24Z</time>
      </trkpt>
      <trkpt lat="59.9899453" lon="17.7387301">
        <ele>129.915</ele>
        <time>2013-04-25T18:20:25Z</time>
      </trkpt>
      <trkpt lat="59.9899211" lon="17.7387379">
        <ele>130.877</ele>
        <time>2013-04-25T18:20:26Z</time>
      </trkpt>
      <trkpt lat="59.9899022" lon="17.7387508">
        <ele>131.838</ele>
        <time>2013-04-25T18:20:27Z</time>
      </trkpt>
      <trkpt lat="59.9898821" lon="17.7387518">
        <ele>130.877</ele>
        <time>2013-04-25T18:20:28Z</time>
      </trkpt>
      <trkpt lat="59.9898604" lon="17.7387646">
        <ele>130.877</ele>
        <time>2013-04-25T18:20:29Z</time>
      </trkpt>
      <trkpt lat="59.9898398" lon="17.7387888">
        <ele>132.319</ele>
        <time>2013-04-25T18:20:30Z</time>
      </trkpt>
      <trkpt lat="59.9898214" lon="17.7387965">
        <ele>133.28</ele>
        <time>2013-04-25T18:20:31Z</time>
      </trkpt>
      <trkpt lat="59.9898037" lon="17.7387943">
        <ele>132.799</ele>
        <time>2013-04-25T18:20:32Z</time>
      </trkpt>
      <trkpt lat="59.9897857" lon="17.7388048">
        <ele>133.76</ele>
        <time>2013-04-25T18:20:33Z</time>
      </trkpt>
      <trkpt lat="59.9897577" lon="17.7388258">
        <ele>134.722</ele>
        <time>2013-04-25T18:20:34Z</time>
      </trkpt>
      <trkpt lat="59.9897353" lon="17.738842">
        <ele>134.722</ele>
        <time>2013-04-25T18:20:35Z</time>
      </trkpt>
      <trkpt lat="59.9897155" lon="17.73886">
        <ele>135.203</ele>
        <time>2013-04-25T18:20:36Z</time>
      </trkpt>
      <trkpt lat="59.9896958" lon="17.7388761">
        <ele>136.164</ele>
        <time>2013-04-25T18:20:37Z</time>
      </trkpt>
      <trkpt lat="59.9896774" lon="17.7388832">
        <ele>136.645</ele>
        <time>2013-04-25T18:20:38Z</time>
      </trkpt>
      <trkpt lat="59.9896558" lon="17.7388674">
        <ele>135.203</ele>
        <time>2013-04-25T18:20:39Z</time>
      </trkpt>
      <trkpt lat="59.9896432" lon="17.738873">
        <ele>135.683</ele>
        <time>2013-04-25T18:20:40Z</time>
      </trkpt>
      <trkpt lat="59.989625" lon="17.7388749">
        <ele>134.722</ele>
        <time>2013-04-25T18:20:41Z</time>
      </trkpt>
      <trkpt lat="59.989603" lon="17.7388865">
        <ele>134.722</ele>
        <time>2013-04-25T18:20:42Z</time>
      </trkpt>
      <trkpt lat="59.9895776" lon="17.7389003">
        <ele>135.683</ele>
        <time>2013-04-25T18:20:43Z</time>
      </trkpt>
      <trkpt lat="59.9895541" lon="17.7389119">
        <ele>136.164</ele>
        <time>2013-04-25T18:20:44Z</time>
      </trkpt>
      <trkpt lat="59.9895335" lon="17.7389181">
        <ele>136.164</ele>
        <time>2013-04-25T18:20:45Z</time>
      </trkpt>
      <trkpt lat="59.9895097" lon="17.7389472">
        <ele>137.606</ele>
        <time>2013-04-25T18:20:46Z</time>
      </trkpt>
      <trkpt lat="59.9894843" lon="17.7389813">
        <ele>139.048</ele>
        <time>2013-04-25T18:20:47Z</time>
      </trkpt>
      <trkpt lat="59.9894627" lon="17.7389956">
        <ele>138.567</ele>
        <time>2013-04-25T18:20:48Z</time>
      </trkpt>
      <trkpt lat="59.9894445" lon="17.7389882">
        <ele>137.606</ele>
        <time>2013-04-25T18:20:49Z</time>
      </trkpt>
      <trkpt lat="59.9894246" lon="17.7389842">
        <ele>136.164</ele>
        <time>2013-04-25T18:20:50Z</time>
      </trkpt>
      <trkpt lat="59.9894004" lon="17.7389903">
        <ele>134.241</ele>
        <time>2013-04-25T18:20:51Z</time>
      </trkpt>
      <trkpt lat="59.9893761" lon="17.738997">
        <ele>132.319</ele>
        <time>2013-04-25T18:20:52Z</time>
      </trkpt>
      <trkpt lat="59.9893528" lon="17.7390032">
        <ele>130.877</ele>
        <time>2013-04-25T18:20:53Z</time>
      </trkpt>
      <trkpt lat="59.9893279" lon="17.7389995">
        <ele>129.435</ele>
        <time>2013-04-25T18:20:54Z</time>
      </trkpt>
      <trkpt lat="59.9893097" lon="17.7389964">
        <ele>127.993</ele>
        <time>2013-04-25T18:20:55Z</time>
      </trkpt>
      <trkpt lat="59.9892902" lon="17.7389967">
        <ele>127.512</ele>
        <time>2013-04-25T18:20:56Z</time>
      </trkpt>
      <trkpt lat="59.9892712" lon="17.738987">
        <ele>126.07</ele>
        <time>2013-04-25T18:20:57Z</time>
      </trkpt>
      <trkpt lat="59.9892516" lon="17.7389944">
        <ele>125.589</ele>
        <time>2013-04-25T18:20:58Z</time>
      </trkpt>
      <trkpt lat="59.9892301" lon="17.7390003">
        <ele>124.628</ele>
        <time>2013-04-25T18:20:59Z</time>
      </trkpt>
      <trkpt lat="59.9892076" lon="17.739019">
        <ele>125.109</ele>
        <time>2013-04-25T18:21:00Z</time>
      </trkpt>
      <trkpt lat="59.9891844" lon="17.7390413">
        <ele>125.109</ele>
        <time>2013-04-25T18:21:01Z</time>
      </trkpt>
      <trkpt lat="59.9891568" lon="17.7390622">
        <ele>125.109</ele>
        <time>2013-04-25T18:21:02Z</time>
      </trkpt>
      <trkpt lat="59.9891347" lon="17.7390772">
        <ele>124.628</ele>
        <time>2013-04-25T18:21:03Z</time>
      </trkpt>
      <trkpt lat="59.9891102" lon="17.7390953">
        <ele>125.109</ele>
        <time>2013-04-25T18:21:04Z</time>
      </trkpt>
      <trkpt lat="59.9890871" lon="17.7391281">
        <ele>125.109</ele>
        <time>2013-04-25T18:21:05Z</time>
      </trkpt>
      <trkpt lat="59.9890637" lon="17.7391491">
        <ele>124.628</ele>
        <time>2013-04-25T18:21:06Z</time>
      </trkpt>
      <trkpt lat="59.9890426" lon="17.7391897">
        <ele>125.109</ele>
        <time>2013-04-25T18:21:07Z</time>
      </trkpt>
      <trkpt lat="59.9890211" lon="17.7392264">
        <ele>126.07</ele>
        <time>2013-04-25T18:21:08Z</time>
      </trkpt>
      <trkpt lat="59.9889993" lon="17.7392632">
        <ele>128.473</ele>
        <time>2013-04-25T18:21:09Z</time>
      </trkpt>
      <trkpt lat="59.9889751" lon="17.7392725">
        <ele>128.473</ele>
        <time>2013-04-25T18:21:10Z</time>
      </trkpt>
      <trkpt lat="59.9889516" lon="17.7392864">
        <ele>127.993</ele>
        <time>2013-04-25T18:21:11Z</time>
      </trkpt>
      <trkpt lat="59.9889321" lon="17.7392752">
        <ele>127.512</ele>
        <time>2013-04-25T18:21:12Z</time>
      </trkpt>
      <trkpt lat="59.9889093" lon="17.7392875">
        <ele>127.031</ele>
        <time>2013-04-25T18:21:13Z</time>
      </trkpt>
      <trkpt lat="59.988887" lon="17.7393099">
        <ele>127.031</ele>
        <time>2013-04-25T18:21:14Z</time>
      </trkpt>
      <trkpt lat="59.9888695" lon="17.739309">
        <ele>126.551</ele>
        <time>2013-04-25T18:21:15Z</time>
      </trkpt>
      <trkpt lat="59.9888544" lon="17.7393098">
        <ele>126.07</ele>
        <time>2013-04-25T18:21:16Z</time>
      </trkpt>
      <trkpt lat="59.9888327" lon="17.7393189">
        <ele>125.589</ele>
        <time>2013-04-25T18:21:17Z</time>
      </trkpt>
      <trkpt lat="59.9888063" lon="17.7393491">
        <ele>126.07</ele>
        <time>2013-04-25T18:21:18Z</time>
      </trkpt>
      <trkpt lat="59.9887828" lon="17.739364">
        <ele>127.031</ele>
        <time>2013-04-25T18:21:19Z</time>
      </trkpt>
      <trkpt lat="59.9887564" lon="17.7393828">
        <ele>127.993</ele>
        <time>2013-04-25T18:21:20Z</time>
      </trkpt>
      <trkpt lat="59.9887346" lon="17.7393968">
        <ele>128.473</ele>
        <time>2013-04-25T18:21:21Z</time>
      </trkpt>
      <trkpt lat="59.9887115" lon="17.7394072">
        <ele>127.993</ele>
        <time>2013-04-25T18:21:22Z</time>
      </trkpt>
      <trkpt lat="59.9886897" lon="17.7394297">
        <ele>127.993</ele>
        <time>2013-04-25T18:21:23Z</time>
      </trkpt>
      <trkpt lat="59.9886727" lon="17.7394433">
        <ele>128.473</ele>
        <time>2013-04-25T18:21:24Z</time>
      </trkpt>
      <trkpt lat="59.9886514" lon="17.7394399">
        <ele>127.031</ele>
        <time>2013-04-25T18:21:25Z</time>
      </trkpt>
      <trkpt lat="59.9886301" lon="17.7394376">
        <ele>125.589</ele>
        <time>2013-04-25T18:21:26Z</time>
      </trkpt>
      <trkpt lat="59.9886081" lon="17.739451">
        <ele>126.07</ele>
        <time>2013-04-25T18:21:27Z</time>
      </trkpt>
      <trkpt lat="59.9885886" lon="17.7394767">
        <ele>126.551</ele>
        <time>2013-04-25T18:21:28Z</time>
      </trkpt>
      <trkpt lat="59.9885658" lon="17.7394753">
        <ele>125.109</ele>
        <time>2013-04-25T18:21:29Z</time>
      </trkpt>
      <trkpt lat="59.9885503" lon="17.7394943">
        <ele>125.589</ele>
        <time>2013-04-25T18:21:30Z</time>
      </trkpt>
      <trkpt lat="59.9885302" lon="17.7394802">
        <ele>125.109</ele>
        <time>2013-04-25T18:21:31Z</time>
      </trkpt>
      <trkpt lat="59.9885067" lon="17.739502">
        <ele>124.628</ele>
        <time>2013-04-25T18:21:32Z</time>
      </trkpt>
      <trkpt lat="59.9884812" lon="17.7395071">
        <ele>125.109</ele>
        <time>2013-04-25T18:21:33Z</time>
      </trkpt>
      <trkpt lat="59.9884509" lon="17.7395386">
        <ele>126.551</ele>
        <time>2013-04-25T18:21:34Z</time>
      </trkpt>
      <trkpt lat="59.9884248" lon="17.7395413">
        <ele>126.551</ele>
        <time>2013-04-25T18:21:35Z</time>
      </trkpt>
      <trkpt lat="59.9884058" lon="17.7395465">
        <ele>126.551</ele>
        <time>2013-04-25T18:21:36Z</time>
      </trkpt>
      <trkpt lat="59.9883892" lon="17.7395541">
        <ele>127.512</ele>
        <time>2013-04-25T18:21:37Z</time>
      </trkpt>
      <trkpt lat="59.9883613" lon="17.7395708">
        <ele>127.993</ele>
        <time>2013-04-25T18:21:38Z</time>
      </trkpt>
      <trkpt lat="59.9883327" lon="17.7395759">
        <ele>127.031</ele>
        <time>2013-04-25T18:21:39Z</time>
      </trkpt>
      <trkpt lat="59.9883017" lon="17.7395839">
        <ele>126.07</ele>
        <time>2013-04-25T18:21:40Z</time>
      </trkpt>
      <trkpt lat="59.9882783" lon="17.7395998">
        <ele>127.031</ele>
        <time>2013-04-25T18:21:41Z</time>
      </trkpt>
      <trkpt lat="59.988251" lon="17.7395999">
        <ele>125.109</ele>
        <time>2013-04-25T18:21:42Z</time>
      </trkpt>
      <trkpt lat="59.9882271" lon="17.7395989">
        <ele>123.667</ele>
        <time>2013-04-25T18:21:43Z</time>
      </trkpt>
      <trkpt lat="59.9882074" lon="17.7395911">
        <ele>122.705</ele>
        <time>2013-04-25T18:21:44Z</time>
      </trkpt>
      <trkpt lat="59.9881827" lon="17.7395843">
        <ele>120.783</ele>
        <time>2013-04-25T18:21:45Z</time>
      </trkpt>
      <trkpt lat="59.9881593" lon="17.7395912">
        <ele>119.821</ele>
        <time>2013-04-25T18:21:46Z</time>
      </trkpt>
      <trkpt lat="59.9881345" lon="17.7395969">
        <ele>120.302</ele>
        <time>2013-04-25T18:21:47Z</time>
      </trkpt>
      <trkpt lat="59.9881084" lon="17.7396108">
        <ele>121.264</ele>
        <time>2013-04-25T18:21:48Z</time>
      </trkpt>
      <trkpt lat="59.9880839" lon="17.739624">
        <ele>120.783</ele>
        <time>2013-04-25T18:21:49Z</time>
      </trkpt>
      <trkpt lat="59.9880587" lon="17.7396343">
        <ele>121.744</ele>
        <time>2013-04-25T18:21:50Z</time>
      </trkpt>
      <trkpt lat="59.988038" lon="17.7396439">
        <ele>122.705</ele>
        <time>2013-04-25T18:21:51Z</time>
      </trkpt>
      <trkpt lat="59.9880178" lon="17.7396434">
        <ele>122.705</ele>
        <time>2013-04-25T18:21:52Z</time>
      </trkpt>
      <trkpt lat="59.9879946" lon="17.739632">
        <ele>122.225</ele>
        <time>2013-04-25T18:21:53Z</time>
      </trkpt>
      <trkpt lat="59.9879671" lon="17.7396282">
        <ele>122.225</ele>
        <time>2013-04-25T18:21:54Z</time>
      </trkpt>
      <trkpt lat="59.9879375" lon="17.7396194">
        <ele>120.783</ele>
        <time>2013-04-25T18:21:55Z</time>
      </trkpt>
      <trkpt lat="59.9879107" lon="17.7396114">
        <ele>119.821</ele>
        <time>2013-04-25T18:21:56Z</time>
      </trkpt>
      <trkpt lat="59.9878897" lon="17.7396057">
        <ele>119.821</ele>
        <time>2013-04-25T18:21:57Z</time>
      </trkpt>
      <trkpt lat="59.9878655" lon="17.7396127">
        <ele>121.264</ele>
        <time>2013-04-25T18:21:58Z</time>
      </trkpt>
      <trkpt lat="59.987839" lon="17.7396071">
        <ele>121.264</ele>
        <time>2013-04-25T18:21:59Z</time>
      </trkpt>
      <trkpt lat="59.9878236" lon="17.739615">
        <ele>121.264</ele>
        <time>2013-04-25T18:22:00Z</time>
      </trkpt>
      <trkpt lat="59.9877987" lon="17.7396261">
        <ele>122.225</ele>
        <time>2013-04-25T18:22:01Z</time>
      </trkpt>
      <trkpt lat="59.9877712" lon="17.7396438">
        <ele>123.667</ele>
        <time>2013-04-25T18:22:02Z</time>
      </trkpt>
      <trkpt lat="59.9877381" lon="17.7396437">
        <ele>122.705</ele>
        <time>2013-04-25T18:22:03Z</time>
      </trkpt>
      <trkpt lat="59.9877149" lon="17.7396587">
        <ele>123.186</ele>
        <time>2013-04-25T18:22:04Z</time>
      </trkpt>
      <trkpt lat="59.9876914" lon="17.7396593">
        <ele>123.186</ele>
        <time>2013-04-25T18:22:05Z</time>
      </trkpt>
      <trkpt lat="59.9876683" lon="17.7396645">
        <ele>123.667</ele>
        <time>2013-04-25T18:22:06Z</time>
      </trkpt>
      <trkpt lat="59.9876467" lon="17.7396874">
        <ele>124.628</ele>
        <time>2013-04-25T18:22:07Z</time>
      </trkpt>
      <trkpt lat="59.9876169" lon="17.7396931">
        <ele>124.147</ele>
        <time>2013-04-25T18:22:08Z</time>
      </trkpt>
      <trkpt lat="59.9875934" lon="17.7396976">
        <ele>124.628</ele>
        <time>2013-04-25T18:22:09Z</time>
      </trkpt>
      <trkpt lat="59.9875708" lon="17.7397014">
        <ele>124.628</ele>
        <time>2013-04-25T18:22:10Z</time>
      </trkpt>
      <trkpt lat="59.9875527" lon="17.7397128">
        <ele>125.589</ele>
        <time>2013-04-25T18:22:11Z</time>
      </trkpt>
      <trkpt lat="59.9875343" lon="17.7397148">
        <ele>125.109</ele>
        <time>2013-04-25T18:22:12Z</time>
      </trkpt>
      <trkpt lat="59.987512" lon="17.7397227">
        <ele>124.628</ele>
        <time>2013-04-25T18:22:13Z</time>
      </trkpt>
      <trkpt lat="59.9874831" lon="17.7397284">
        <ele>124.147</ele>
        <time>2013-04-25T18:22:14Z</time>
      </trkpt>
      <trkpt lat="59.9874621" lon="17.7397152">
        <ele>123.186</ele>
        <time>2013-04-25T18:22:15Z</time>
      </trkpt>
      <trkpt lat="59.9874401" lon="17.7397053">
        <ele>123.186</ele>
        <time>2013-04-25T18:22:16Z</time>
      </trkpt>
      <trkpt lat="59.9874139" lon="17.7396883">
        <ele>122.705</ele>
        <time>2013-04-25T18:22:17Z</time>
      </trkpt>
      <trkpt lat="59.9873939" lon="17.7396925">
        <ele>123.186</ele>
        <time>2013-04-25T18:22:18Z</time>
      </trkpt>
      <trkpt lat="59.9873682" lon="17.7397127">
        <ele>123.667</ele>
        <time>2013-04-25T18:22:19Z</time>
      </trkpt>
      <trkpt lat="59.9873429" lon="17.7397325">
        <ele>125.109</ele>
        <time>2013-04-25T18:22:20Z</time>
      </trkpt>
      <trkpt lat="59.9873178" lon="17.7397517">
        <ele>126.07</ele>
        <time>2013-04-25T18:22:21Z</time>
      </trkpt>
      <trkpt lat="59.9872947" lon="17.7397452">
        <ele>126.07</ele>
        <time>2013-04-25T18:22:22Z</time>
      </trkpt>
      <trkpt lat="59.9872709" lon="17.7397319">
        <ele>125.109</ele>
        <time>2013-04-25T18:22:23Z</time>
      </trkpt>
      <trkpt lat="59.9872427" lon="17.7397307">
        <ele>124.147</ele>
        <time>2013-04-25T18:22:24Z</time>
      </trkpt>
      <trkpt lat="59.9872148" lon="17.739732">
        <ele>125.109</ele>
        <time>2013-04-25T18:22:25Z</time>
      </trkpt>
      <trkpt lat="59.9871895" lon="17.739731">
        <ele>125.109</ele>
        <time>2013-04-25T18:22:26Z</time>
      </trkpt>
      <trkpt lat="59.9871672" lon="17.7397227">
        <ele>125.109</ele>
        <time>2013-04-25T18:22:27Z</time>
      </trkpt>
      <trkpt lat="59.9871419" lon="17.7397091">
        <ele>125.109</ele>
        <time>2013-04-25T18:22:28Z</time>
      </trkpt>
      <trkpt lat="59.9871108" lon="17.7396849">
        <ele>123.186</ele>
        <time>2013-04-25T18:22:29Z</time>
      </trkpt>
      <trkpt lat="59.9870858" lon="17.7396641">
        <ele>122.225</ele>
        <time>2013-04-25T18:22:30Z</time>
      </trkpt>
      <trkpt lat="59.9870643" lon="17.7396373">
        <ele>121.264</ele>
        <time>2013-04-25T18:22:31Z</time>
      </trkpt>
      <trkpt lat="59.9870435" lon="17.7396107">
        <ele>120.302</ele>
        <time>2013-04-25T18:22:32Z</time>
      </trkpt>
      <trkpt lat="59.9870264" lon="17.7395842">
        <ele>119.341</ele>
        <time>2013-04-25T18:22:33Z</time>
      </trkpt>
      <trkpt lat="59.9870138" lon="17.7395475">
        <ele>118.379</ele>
        <time>2013-04-25T18:22:34Z</time>
      </trkpt>
      <trkpt lat="59.9869958" lon="17.7395228">
        <ele>117.899</ele>
        <time>2013-04-25T18:22:35Z</time>
      </trkpt>
      <trkpt lat="59.9869714" lon="17.7394867">
        <ele>115.015</ele>
        <time>2013-04-25T18:22:36Z</time>
      </trkpt>
      <trkpt lat="59.9869484" lon="17.7394538">
        <ele>113.573</ele>
        <time>2013-04-25T18:22:37Z</time>
      </trkpt>
      <trkpt lat="59.9869218" lon="17.7394287">
        <ele>112.612</ele>
        <time>2013-04-25T18:22:38Z</time>
      </trkpt>
      <trkpt lat="59.9868979" lon="17.7394065">
        <ele>111.65</ele>
        <time>2013-04-25T18:22:39Z</time>
      </trkpt>
      <trkpt lat="59.9868699" lon="17.7393755">
        <ele>109.728</ele>
        <time>2013-04-25T18:22:40Z</time>
      </trkpt>
      <trkpt lat="59.9868451" lon="17.7393485">
        <ele>107.324</ele>
        <time>2013-04-25T18:22:41Z</time>
      </trkpt>
      <trkpt lat="59.9868306" lon="17.7393253">
        <ele>106.363</ele>
        <time>2013-04-25T18:22:42Z</time>
      </trkpt>
      <trkpt lat="59.9868027" lon="17.7392848">
        <ele>104.44</ele>
        <time>2013-04-25T18:22:43Z</time>
      </trkpt>
      <trkpt lat="59.9867782" lon="17.739274">
        <ele>104.44</ele>
        <time>2013-04-25T18:22:44Z</time>
      </trkpt>
      <trkpt lat="59.98675" lon="17.7392461">
        <ele>104.44</ele>
        <time>2013-04-25T18:22:45Z</time>
      </trkpt>
      <trkpt lat="59.9867242" lon="17.7392072">
        <ele>103.96</ele>
        <time>2013-04-25T18:22:46Z</time>
      </trkpt>
      <trkpt lat="59.9867034" lon="17.739184">
        <ele>103.96</ele>
        <time>2013-04-25T18:22:47Z</time>
      </trkpt>
      <trkpt lat="59.9866741" lon="17.7391492">
        <ele>103.479</ele>
        <time>2013-04-25T18:22:48Z</time>
      </trkpt>
      <trkpt lat="59.9866528" lon="17.7391182">
        <ele>102.037</ele>
        <time>2013-04-25T18:22:49Z</time>
      </trkpt>
      <trkpt lat="59.986628" lon="17.7390829">
        <ele>100.595</ele>
        <time>2013-04-25T18:22:50Z</time>
      </trkpt>
      <trkpt lat="59.9866011" lon="17.7390466">
        <ele>100.115</ele>
        <time>2013-04-25T18:22:51Z</time>
      </trkpt>
      <trkpt lat="59.9865862" lon="17.7390291">
        <ele>99.6338</ele>
        <time>2013-04-25T18:22:52Z</time>
      </trkpt>
      <trkpt lat="59.98657" lon="17.7390127">
        <ele>99.1531</ele>
        <time>2013-04-25T18:22:53Z</time>
      </trkpt>
      <trkpt lat="59.9865587" lon="17.739007">
        <ele>100.115</ele>
        <time>2013-04-25T18:22:54Z</time>
      </trkpt>
      <trkpt lat="59.9865466" lon="17.7389948">
        <ele>101.076</ele>
        <time>2013-04-25T18:22:55Z</time>
      </trkpt>
      <trkpt lat="59.9865301" lon="17.738974">
        <ele>101.076</ele>
        <time>2013-04-25T18:22:56Z</time>
      </trkpt>
      <trkpt lat="59.9865052" lon="17.7389526">
        <ele>100.595</ele>
        <time>2013-04-25T18:22:57Z</time>
      </trkpt>
      <trkpt lat="59.9864903" lon="17.738954">
        <ele>101.556</ele>
        <time>2013-04-25T18:22:58Z</time>
      </trkpt>
      <trkpt lat="59.9864766" lon="17.738956">
        <ele>102.998</ele>
        <time>2013-04-25T18:22:59Z</time>
      </trkpt>
      <trkpt lat="59.9864574" lon="17.73896">
        <ele>104.44</ele>
        <time>2013-04-25T18:23:00Z</time>
      </trkpt>
      <trkpt lat="59.9864362" lon="17.7389611">
        <ele>105.882</ele>
        <time>2013-04-25T18:23:01Z</time>
      </trkpt>
      <trkpt lat="59.9864113" lon="17.7389405">
        <ele>104.921</ele>
        <time>2013-04-25T18:23:02Z</time>
      </trkpt>
      <trkpt lat="59.9863909" lon="17.7389275">
        <ele>103.96</ele>
        <time>2013-04-25T18:23:03Z</time>
      </trkpt>
      <trkpt lat="59.9863712" lon="17.7389065">
        <ele>103.479</ele>
        <time>2013-04-25T18:23:04Z</time>
      </trkpt>
      <trkpt lat="59.9863499" lon="17.7388953">
        <ele>104.44</ele>
        <time>2013-04-25T18:23:05Z</time>
      </trkpt>
      <trkpt lat="59.986331" lon="17.7388834">
        <ele>103.96</ele>
        <time>2013-04-25T18:23:06Z</time>
      </trkpt>
      <trkpt lat="59.9863088" lon="17.7388683">
        <ele>103.96</ele>
        <time>2013-04-25T18:23:07Z</time>
      </trkpt>
      <trkpt lat="59.9862902" lon="17.7388656">
        <ele>105.882</ele>
        <time>2013-04-25T18:23:08Z</time>
      </trkpt>
      <trkpt lat="59.986266" lon="17.7388573">
        <ele>106.363</ele>
        <time>2013-04-25T18:23:09Z</time>
      </trkpt>
      <trkpt lat="59.9862446" lon="17.7388575">
        <ele>107.324</ele>
        <time>2013-04-25T18:23:10Z</time>
      </trkpt>
      <trkpt lat="59.986215" lon="17.7388461">
        <ele>106.363</ele>
        <time>2013-04-25T18:23:11Z</time>
      </trkpt>
      <trkpt lat="59.9861873" lon="17.7388404">
        <ele>106.363</ele>
        <time>2013-04-25T18:23:12Z</time>
      </trkpt>
      <trkpt lat="59.9861654" lon="17.7388377">
        <ele>106.844</ele>
        <time>2013-04-25T18:23:13Z</time>
      </trkpt>
      <trkpt lat="59.9861478" lon="17.7388393">
        <ele>108.286</ele>
        <time>2013-04-25T18:23:14Z</time>
      </trkpt>
      <trkpt lat="59.9861238" lon="17.7388353">
        <ele>109.728</ele>
        <time>2013-04-25T18:23:15Z</time>
      </trkpt>
      <trkpt lat="59.9860912" lon="17.7388312">
        <ele>109.728</ele>
        <time>2013-04-25T18:23:16Z</time>
      </trkpt>
      <trkpt lat="59.9860654" lon="17.7388288">
        <ele>111.17</ele>
        <time>2013-04-25T18:23:17Z</time>
      </trkpt>
      <trkpt lat="59.9860426" lon="17.7388125">
        <ele>110.689</ele>
        <time>2013-04-25T18:23:18Z</time>
      </trkpt>
      <trkpt lat="59.9860256" lon="17.7388157">
        <ele>112.612</ele>
        <time>2013-04-25T18:23:19Z</time>
      </trkpt>
      <trkpt lat="59.98601" lon="17.7388178">
        <ele>113.573</ele>
        <time>2013-04-25T18:23:20Z</time>
      </trkpt>
      <trkpt lat="59.9859906" lon="17.7388186">
        <ele>115.496</ele>
        <time>2013-04-25T18:23:21Z</time>
      </trkpt>
      <trkpt lat="59.9859732" lon="17.7388202">
        <ele>116.938</ele>
        <time>2013-04-25T18:23:22Z</time>
      </trkpt>
      <trkpt lat="59.9859462" lon="17.7388026">
        <ele>115.976</ele>
        <time>2013-04-25T18:23:23Z</time>
      </trkpt>
      <trkpt lat="59.9859181" lon="17.7387828">
        <ele>114.054</ele>
        <time>2013-04-25T18:23:24Z</time>
      </trkpt>
      <trkpt lat="59.9858884" lon="17.7387586">
        <ele>112.131</ele>
        <time>2013-04-25T18:23:25Z</time>
      </trkpt>
      <trkpt lat="59.9858615" lon="17.7387348">
        <ele>110.689</ele>
        <time>2013-04-25T18:23:26Z</time>
      </trkpt>
      <trkpt lat="59.9858328" lon="17.7387177">
        <ele>108.766</ele>
        <time>2013-04-25T18:23:27Z</time>
      </trkpt>
      <trkpt lat="59.9858099" lon="17.7387172">
        <ele>107.805</ele>
        <time>2013-04-25T18:23:28Z</time>
      </trkpt>
      <trkpt lat="59.9857785" lon="17.7387036">
        <ele>106.844</ele>
        <time>2013-04-25T18:23:29Z</time>
      </trkpt>
      <trkpt lat="59.9857531" lon="17.7386882">
        <ele>105.402</ele>
        <time>2013-04-25T18:23:30Z</time>
      </trkpt>
      <trkpt lat="59.9857302" lon="17.7386699">
        <ele>103.96</ele>
        <time>2013-04-25T18:23:31Z</time>
      </trkpt>
      <trkpt lat="59.9857086" lon="17.7386514">
        <ele>103.96</ele>
        <time>2013-04-25T18:23:32Z</time>
      </trkpt>
      <trkpt lat="59.9856882" lon="17.7386389">
        <ele>103.96</ele>
        <time>2013-04-25T18:23:33Z</time>
      </trkpt>
      <trkpt lat="59.9856641" lon="17.7386379">
        <ele>103.96</ele>
        <time>2013-04-25T18:23:34Z</time>
      </trkpt>
      <trkpt lat="59.9856376" lon="17.7386362">
        <ele>103.479</ele>
        <time>2013-04-25T18:23:35Z</time>
      </trkpt>
      <trkpt lat="59.9856126" lon="17.7386387">
        <ele>103.96</ele>
        <time>2013-04-25T18:23:36Z</time>
      </trkpt>
      <trkpt lat="59.9855947" lon="17.7386483">
        <ele>104.921</ele>
        <time>2013-04-25T18:23:37Z</time>
      </trkpt>
      <trkpt lat="59.985574" lon="17.7386456">
        <ele>104.921</ele>
        <time>2013-04-25T18:23:38Z</time>
      </trkpt>
      <trkpt lat="59.9855498" lon="17.7386442">
        <ele>106.363</ele>
        <time>2013-04-25T18:23:39Z</time>
      </trkpt>
      <trkpt lat="59.9855278" lon="17.7386364">
        <ele>105.402</ele>
        <time>2013-04-25T18:23:40Z</time>
      </trkpt>
      <trkpt lat="59.9855038" lon="17.7386227">
        <ele>104.921</ele>
        <time>2013-04-25T18:23:41Z</time>
      </trkpt>
      <trkpt lat="59.9854783" lon="17.7386113">
        <ele>105.402</ele>
        <time>2013-04-25T18:23:42Z</time>
      </trkpt>
      <trkpt lat="59.9854507" lon="17.7385954">
        <ele>103.96</ele>
        <time>2013-04-25T18:23:43Z</time>
      </trkpt>
      <trkpt lat="59.9854324" lon="17.7386072">
        <ele>104.921</ele>
        <time>2013-04-25T18:23:44Z</time>
      </trkpt>
      <trkpt lat="59.9854133" lon="17.7386033">
        <ele>104.921</ele>
        <time>2013-04-25T18:23:45Z</time>
      </trkpt>
      <trkpt lat="59.9853858" lon="17.7385922">
        <ele>104.44</ele>
        <time>2013-04-25T18:23:46Z</time>
      </trkpt>
      <trkpt lat="59.9853593" lon="17.7385861">
        <ele>104.921</ele>
        <time>2013-04-25T18:23:47Z</time>
      </trkpt>
      <trkpt lat="59.9853309" lon="17.7385643">
        <ele>103.96</ele>
        <time>2013-04-25T18:23:48Z</time>
      </trkpt>
      <trkpt lat="59.9853055" lon="17.73854">
        <ele>102.518</ele>
        <time>2013-04-25T18:23:49Z</time>
      </trkpt>
      <trkpt lat="59.9852877" lon="17.7385178">
        <ele>102.518</ele>
        <time>2013-04-25T18:23:50Z</time>
      </trkpt>
      <trkpt lat="59.9852652" lon="17.7385018">
        <ele>102.037</ele>
        <time>2013-04-25T18:23:51Z</time>
      </trkpt>
      <trkpt lat="59.9852432" lon="17.7384955">
        <ele>101.076</ele>
        <time>2013-04-25T18:23:52Z</time>
      </trkpt>
      <trkpt lat="59.9852164" lon="17.7384908">
        <ele>100.115</ele>
        <time>2013-04-25T18:23:53Z</time>
      </trkpt>
      <trkpt lat="59.9851903" lon="17.7384943">
        <ele>100.595</ele>
        <time>2013-04-25T18:23:54Z</time>
      </trkpt>
      <trkpt lat="59.9851594" lon="17.7385043">
        <ele>101.556</ele>
        <time>2013-04-25T18:23:55Z</time>
      </trkpt>
      <trkpt lat="59.9851342" lon="17.7385141">
        <ele>102.037</ele>
        <time>2013-04-25T18:23:56Z</time>
      </trkpt>
      <trkpt lat="59.985108" lon="17.7384984">
        <ele>101.556</ele>
        <time>2013-04-25T18:23:57Z</time>
      </trkpt>
      <trkpt lat="59.9850827" lon="17.7384898">
        <ele>101.076</ele>
        <time>2013-04-25T18:23:58Z</time>
      </trkpt>
      <trkpt lat="59.9850584" lon="17.7384919">
        <ele>100.595</ele>
        <time>2013-04-25T18:23:59Z</time>
      </trkpt>
      <trkpt lat="59.9850386" lon="17.738497">
        <ele>100.115</ele>
        <time>2013-04-25T18:24:00Z</time>
      </trkpt>
      <trkpt lat="59.9850248" lon="17.738501">
        <ele>99.6338</ele>
        <time>2013-04-25T18:24:01Z</time>
      </trkpt>
      <trkpt lat="59.9849989" lon="17.7384811">
        <ele>98.1919</ele>
        <time>2013-04-25T18:24:02Z</time>
      </trkpt>
      <trkpt lat="59.9849828" lon="17.7384862">
        <ele>99.1531</ele>
        <time>2013-04-25T18:24:03Z</time>
      </trkpt>
      <trkpt lat="59.9849744" lon="17.7384984">
        <ele>99.6338</ele>
        <time>2013-04-25T18:24:04Z</time>
      </trkpt>
      <trkpt lat="59.9849582" lon="17.7384991">
        <ele>100.115</ele>
        <time>2013-04-25T18:24:05Z</time>
      </trkpt>
      <trkpt lat="59.9849387" lon="17.7384928">
        <ele>99.1531</ele>
        <time>2013-04-25T18:24:06Z</time>
      </trkpt>
      <trkpt lat="59.9849116" lon="17.7384714">
        <ele>99.1531</ele>
        <time>2013-04-25T18:24:07Z</time>
      </trkpt>
      <trkpt lat="59.9848958" lon="17.7384701">
        <ele>99.6338</ele>
        <time>2013-04-25T18:24:08Z</time>
      </trkpt>
      <trkpt lat="59.984879" lon="17.7384659">
        <ele>99.1531</ele>
        <time>2013-04-25T18:24:09Z</time>
      </trkpt>
      <trkpt lat="59.9848481" lon="17.7384362">
        <ele>98.6725</ele>
        <time>2013-04-25T18:24:10Z</time>
      </trkpt>
      <trkpt lat="59.9848218" lon="17.7384157">
        <ele>98.1919</ele>
        <time>2013-04-25T18:24:11Z</time>
      </trkpt>
      <trkpt lat="59.9847956" lon="17.7384083">
        <ele>97.7112</ele>
        <time>2013-04-25T18:24:12Z</time>
      </trkpt>
      <trkpt lat="59.984775" lon="17.7384146">
        <ele>97.7112</ele>
        <time>2013-04-25T18:24:13Z</time>
      </trkpt>
      <trkpt lat="59.9847533" lon="17.7384246">
        <ele>97.7112</ele>
        <time>2013-04-25T18:24:14Z</time>
      </trkpt>
      <trkpt lat="59.98473" lon="17.7384391">
        <ele>97.7112</ele>
        <time>2013-04-25T18:24:15Z</time>
      </trkpt>
      <trkpt lat="59.9847125" lon="17.7384369">
        <ele>97.2305</ele>
        <time>2013-04-25T18:24:16Z</time>
      </trkpt>
      <trkpt lat="59.9846984" lon="17.7384311">
        <ele>96.7499</ele>
        <time>2013-04-25T18:24:17Z</time>
      </trkpt>
      <trkpt lat="59.984668" lon="17.7384181">
        <ele>96.2693</ele>
        <time>2013-04-25T18:24:18Z</time>
      </trkpt>
      <trkpt lat="59.9846507" lon="17.7384194">
        <ele>96.2693</ele>
        <time>2013-04-25T18:24:19Z</time>
      </trkpt>
      <trkpt lat="59.9846342" lon="17.7384236">
        <ele>96.7499</ele>
        <time>2013-04-25T18:24:20Z</time>
      </trkpt>
      <trkpt lat="59.9846001" lon="17.7384069">
        <ele>97.2305</ele>
        <time>2013-04-25T18:24:21Z</time>
      </trkpt>
      <trkpt lat="59.9845638" lon="17.7383919">
        <ele>98.1919</ele>
        <time>2013-04-25T18:24:22Z</time>
      </trkpt>
      <trkpt lat="59.9845321" lon="17.7383794">
        <ele>98.6725</ele>
        <time>2013-04-25T18:24:23Z</time>
      </trkpt>
      <trkpt lat="59.9845053" lon="17.738366">
        <ele>100.115</ele>
        <time>2013-04-25T18:24:24Z</time>
      </trkpt>
      <trkpt lat="59.9844803" lon="17.738351">
        <ele>101.076</ele>
        <time>2013-04-25T18:24:25Z</time>
      </trkpt>
      <trkpt lat="59.9844569" lon="17.7383286">
        <ele>101.556</ele>
        <time>2013-04-25T18:24:26Z</time>
      </trkpt>
      <trkpt lat="59.9844335" lon="17.7383136">
        <ele>102.998</ele>
        <time>2013-04-25T18:24:27Z</time>
      </trkpt>
      <trkpt lat="59.9844051" lon="17.7382996">
        <ele>102.518</ele>
        <time>2013-04-25T18:24:28Z</time>
      </trkpt>
      <trkpt lat="59.9843756" lon="17.7382963">
        <ele>102.518</ele>
        <time>2013-04-25T18:24:29Z</time>
      </trkpt>
      <trkpt lat="59.9843494" lon="17.7383048">
        <ele>102.998</ele>
        <time>2013-04-25T18:24:30Z</time>
      </trkpt>
      <trkpt lat="59.9843213" lon="17.7383177">
        <ele>103.479</ele>
        <time>2013-04-25T18:24:31Z</time>
      </trkpt>
      <trkpt lat="59.984298" lon="17.7383205">
        <ele>104.921</ele>
        <time>2013-04-25T18:24:32Z</time>
      </trkpt>
      <trkpt lat="59.9842708" lon="17.7383023">
        <ele>103.96</ele>
        <time>2013-04-25T18:24:33Z</time>
      </trkpt>
      <trkpt lat="59.9842408" lon="17.7383028">
        <ele>103.479</ele>
        <time>2013-04-25T18:24:34Z</time>
      </trkpt>
      <trkpt lat="59.9842121" lon="17.7382897">
        <ele>102.037</ele>
        <time>2013-04-25T18:24:35Z</time>
      </trkpt>
      <trkpt lat="59.9841929" lon="17.7382803">
        <ele>101.076</ele>
        <time>2013-04-25T18:24:36Z</time>
      </trkpt>
      <trkpt lat="59.9841737" lon="17.738297">
        <ele>102.037</ele>
        <time>2013-04-25T18:24:37Z</time>
      </trkpt>
      <trkpt lat="59.9841488" lon="17.7383068">
        <ele>102.518</ele>
        <time>2013-04-25T18:24:38Z</time>
      </trkpt>
      <trkpt lat="59.9841217" lon="17.7383127">
        <ele>102.518</ele>
        <time>2013-04-25T18:24:39Z</time>
      </trkpt>
      <trkpt lat="59.9840944" lon="17.7383132">
        <ele>102.998</ele>
        <time>2013-04-25T18:24:40Z</time>
      </trkpt>
      <trkpt lat="59.9840691" lon="17.7383364">
        <ele>103.96</ele>
        <time>2013-04-25T18:24:41Z</time>
      </trkpt>
      <trkpt lat="59.9840472" lon="17.7383467">
        <ele>104.44</ele>
        <time>2013-04-25T18:24:42Z</time>
      </trkpt>
      <trkpt lat="59.9840215" lon="17.7383593">
        <ele>104.44</ele>
        <time>2013-04-25T18:24:43Z</time>
      </trkpt>
      <trkpt lat="59.9839963" lon="17.738381">
        <ele>104.921</ele>
        <time>2013-04-25T18:24:44Z</time>
      </trkpt>
      <trkpt lat="59.983965" lon="17.7384007">
        <ele>106.363</ele>
        <time>2013-04-25T18:24:45Z</time>
      </trkpt>
      <trkpt lat="59.9839359" lon="17.7384162">
        <ele>106.844</ele>
        <time>2013-04-25T18:24:46Z</time>
      </trkpt>
      <trkpt lat="59.9839115" lon="17.7384168">
        <ele>106.363</ele>
        <time>2013-04-25T18:24:47Z</time>
      </trkpt>
      <trkpt lat="59.9838898" lon="17.7384157">
        <ele>106.363</ele>
        <time>2013-04-25T18:24:48Z</time>
      </trkpt>
      <trkpt lat="59.983865" lon="17.7384203">
        <ele>106.363</ele>
        <time>2013-04-25T18:24:49Z</time>
      </trkpt>
      <trkpt lat="59.9838388" lon="17.738426">
        <ele>106.363</ele>
        <time>2013-04-25T18:24:50Z</time>
      </trkpt>
      <trkpt lat="59.9838136" lon="17.7384291">
        <ele>106.363</ele>
        <time>2013-04-25T18:24:51Z</time>
      </trkpt>
      <trkpt lat="59.9837888" lon="17.7384399">
        <ele>105.882</ele>
        <time>2013-04-25T18:24:52Z</time>
      </trkpt>
      <trkpt lat="59.9837598" lon="17.7384405">
        <ele>105.882</ele>
        <time>2013-04-25T18:24:53Z</time>
      </trkpt>
      <trkpt lat="59.983734" lon="17.7384334">
        <ele>105.402</ele>
        <time>2013-04-25T18:24:54Z</time>
      </trkpt>
      <trkpt lat="59.9837147" lon="17.7384476">
        <ele>104.44</ele>
        <time>2013-04-25T18:24:55Z</time>
      </trkpt>
      <trkpt lat="59.9836888" lon="17.7384383">
        <ele>102.518</ele>
        <time>2013-04-25T18:24:56Z</time>
      </trkpt>
      <trkpt lat="59.9836608" lon="17.7384472">
        <ele>102.998</ele>
        <time>2013-04-25T18:24:57Z</time>
      </trkpt>
      <trkpt lat="59.9836339" lon="17.7384538">
        <ele>102.998</ele>
        <time>2013-04-25T18:24:58Z</time>
      </trkpt>
      <trkpt lat="59.9836125" lon="17.7384637">
        <ele>102.998</ele>
        <time>2013-04-25T18:24:59Z</time>
      </trkpt>
      <trkpt lat="59.9835853" lon="17.738472">
        <ele>103.479</ele>
        <time>2013-04-25T18:25:00Z</time>
      </trkpt>
      <trkpt lat="59.9835552" lon="17.7384885">
        <ele>105.882</ele>
        <time>2013-04-25T18:25:01Z</time>
      </trkpt>
      <trkpt lat="59.9835313" lon="17.7384979">
        <ele>107.324</ele>
        <time>2013-04-25T18:25:02Z</time>
      </trkpt>
      <trkpt lat="59.9835091" lon="17.7384989">
        <ele>107.805</ele>
        <time>2013-04-25T18:25:03Z</time>
      </trkpt>
      <trkpt lat="59.9834867" lon="17.7385042">
        <ele>109.247</ele>
        <time>2013-04-25T18:25:04Z</time>
      </trkpt>
      <trkpt lat="59.9834638" lon="17.7385046">
        <ele>108.286</ele>
        <time>2013-04-25T18:25:05Z</time>
      </trkpt>
      <trkpt lat="59.9834395" lon="17.7385173">
        <ele>107.805</ele>
        <time>2013-04-25T18:25:06Z</time>
      </trkpt>
      <trkpt lat="59.9834169" lon="17.7385243">
        <ele>108.286</ele>
        <time>2013-04-25T18:25:07Z</time>
      </trkpt>
      <trkpt lat="59.9833985" lon="17.7385171">
        <ele>107.805</ele>
        <time>2013-04-25T18:25:08Z</time>
      </trkpt>
      <trkpt lat="59.9833766" lon="17.7385306">
        <ele>108.286</ele>
        <time>2013-04-25T18:25:09Z</time>
      </trkpt>
      <trkpt lat="59.9833472" lon="17.7385237">
        <ele>107.805</ele>
        <time>2013-04-25T18:25:10Z</time>
      </trkpt>
      <trkpt lat="59.9833198" lon="17.738526">
        <ele>106.844</ele>
        <time>2013-04-25T18:25:11Z</time>
      </trkpt>
      <trkpt lat="59.983295" lon="17.7385387">
        <ele>106.363</ele>
        <time>2013-04-25T18:25:12Z</time>
      </trkpt>
      <trkpt lat="59.9832714" lon="17.7385287">
        <ele>106.844</ele>
        <time>2013-04-25T18:25:13Z</time>
      </trkpt>
      <trkpt lat="59.983244" lon="17.7385292">
        <ele>107.324</ele>
        <time>2013-04-25T18:25:14Z</time>
      </trkpt>
      <trkpt lat="59.9832224" lon="17.7385327">
        <ele>107.805</ele>
        <time>2013-04-25T18:25:15Z</time>
      </trkpt>
      <trkpt lat="59.9831967" lon="17.7385368">
        <ele>108.766</ele>
        <time>2013-04-25T18:25:16Z</time>
      </trkpt>
      <trkpt lat="59.9831678" lon="17.7385379">
        <ele>108.766</ele>
        <time>2013-04-25T18:25:17Z</time>
      </trkpt>
      <trkpt lat="59.9831522" lon="17.7385463">
        <ele>110.208</ele>
        <time>2013-04-25T18:25:18Z</time>
      </trkpt>
      <trkpt lat="59.9831366" lon="17.7385471">
        <ele>111.17</ele>
        <time>2013-04-25T18:25:19Z</time>
      </trkpt>
      <trkpt lat="59.9831133" lon="17.738545">
        <ele>111.17</ele>
        <time>2013-04-25T18:25:20Z</time>
      </trkpt>
      <trkpt lat="59.9830926" lon="17.7385268">
        <ele>110.208</ele>
        <time>2013-04-25T18:25:21Z</time>
      </trkpt>
      <trkpt lat="59.9830693" lon="17.73851">
        <ele>109.728</ele>
        <time>2013-04-25T18:25:22Z</time>
      </trkpt>
      <trkpt lat="59.9830489" lon="17.7384925">
        <ele>108.286</ele>
        <time>2013-04-25T18:25:23Z</time>
      </trkpt>
      <trkpt lat="59.9830286" lon="17.7384939">
        <ele>108.286</ele>
        <time>2013-04-25T18:25:24Z</time>
      </trkpt>
      <trkpt lat="59.9829995" lon="17.7384761">
        <ele>107.324</ele>
        <time>2013-04-25T18:25:25Z</time>
      </trkpt>
      <trkpt lat="59.9829776" lon="17.7384636">
        <ele>107.805</ele>
        <time>2013-04-25T18:25:26Z</time>
      </trkpt>
      <trkpt lat="59.9829521" lon="17.7384781">
        <ele>110.689</ele>
        <time>2013-04-25T18:25:27Z</time>
      </trkpt>
      <trkpt lat="59.9829276" lon="17.738482">
        <ele>111.17</ele>
        <time>2013-04-25T18:25:28Z</time>
      </trkpt>
      <trkpt lat="59.9829019" lon="17.7384586">
        <ele>109.728</ele>
        <time>2013-04-25T18:25:29Z</time>
      </trkpt>
      <trkpt lat="59.9828798" lon="17.7384437">
        <ele>108.766</ele>
        <time>2013-04-25T18:25:30Z</time>
      </trkpt>
      <trkpt lat="59.9828508" lon="17.7384337">
        <ele>108.286</ele>
        <time>2013-04-25T18:25:31Z</time>
      </trkpt>
      <trkpt lat="59.9828217" lon="17.7384507">
        <ele>110.208</ele>
        <time>2013-04-25T18:25:32Z</time>
      </trkpt>
      <trkpt lat="59.9827931" lon="17.7384865">
        <ele>112.131</ele>
        <time>2013-04-25T18:25:33Z</time>
      </trkpt>
      <trkpt lat="59.9827678" lon="17.738495">
        <ele>111.65</ele>
        <time>2013-04-25T18:25:34Z</time>
      </trkpt>
      <trkpt lat="59.9827453" lon="17.7384932">
        <ele>111.17</ele>
        <time>2013-04-25T18:25:35Z</time>
      </trkpt>
      <trkpt lat="59.9827215" lon="17.7384878">
        <ele>110.689</ele>
        <time>2013-04-25T18:25:36Z</time>
      </trkpt>
      <trkpt lat="59.9827004" lon="17.7384918">
        <ele>110.689</ele>
        <time>2013-04-25T18:25:37Z</time>
      </trkpt>
      <trkpt lat="59.9826759" lon="17.738499">
        <ele>111.65</ele>
        <time>2013-04-25T18:25:38Z</time>
      </trkpt>
      <trkpt lat="59.982658" lon="17.7385094">
        <ele>113.092</ele>
        <time>2013-04-25T18:25:39Z</time>
      </trkpt>
      <trkpt lat="59.9826394" lon="17.7385214">
        <ele>114.534</ele>
        <time>2013-04-25T18:25:40Z</time>
      </trkpt>
      <trkpt lat="59.9826134" lon="17.7385295">
        <ele>115.496</ele>
        <time>2013-04-25T18:25:41Z</time>
      </trkpt>
      <trkpt lat="59.9825664" lon="17.7385416">
        <ele>117.418</ele>
        <time>2013-04-25T18:25:43Z</time>
      </trkpt>
      <trkpt lat="59.9825389" lon="17.7385354">
        <ele>116.457</ele>
        <time>2013-04-25T18:25:44Z</time>
      </trkpt>
      <trkpt lat="59.9825135" lon="17.738541">
        <ele>115.976</ele>
        <time>2013-04-25T18:25:45Z</time>
      </trkpt>
      <trkpt lat="59.9824917" lon="17.7385458">
        <ele>115.976</ele>
        <time>2013-04-25T18:25:46Z</time>
      </trkpt>
      <trkpt lat="59.9824684" lon="17.7385539">
        <ele>116.457</ele>
        <time>2013-04-25T18:25:47Z</time>
      </trkpt>
      <trkpt lat="59.9824413" lon="17.7385756">
        <ele>117.418</ele>
        <time>2013-04-25T18:25:48Z</time>
      </trkpt>
      <trkpt lat="59.9824164" lon="17.7385898">
        <ele>117.418</ele>
        <time>2013-04-25T18:25:49Z</time>
      </trkpt>
      <trkpt lat="59.982391" lon="17.7385772">
        <ele>115.015</ele>
        <time>2013-04-25T18:25:50Z</time>
      </trkpt>
      <trkpt lat="59.9823673" lon="17.7385866">
        <ele>116.457</ele>
        <time>2013-04-25T18:25:51Z</time>
      </trkpt>
      <trkpt lat="59.9823446" lon="17.7385942">
        <ele>116.457</ele>
        <time>2013-04-25T18:25:52Z</time>
      </trkpt>
      <trkpt lat="59.982318" lon="17.7386048">
        <ele>116.938</ele>
        <time>2013-04-25T18:25:53Z</time>
      </trkpt>
      <trkpt lat="59.9822929" lon="17.7386071">
        <ele>117.418</ele>
        <time>2013-04-25T18:25:54Z</time>
      </trkpt>
      <trkpt lat="59.9822706" lon="17.7386167">
        <ele>117.418</ele>
        <time>2013-04-25T18:25:55Z</time>
      </trkpt>
      <trkpt lat="59.9822492" lon="17.7386255">
        <ele>117.899</ele>
        <time>2013-04-25T18:25:56Z</time>
      </trkpt>
      <trkpt lat="59.9822263" lon="17.7386346">
        <ele>118.86</ele>
        <time>2013-04-25T18:25:57Z</time>
      </trkpt>
      <trkpt lat="59.9822002" lon="17.7386416">
        <ele>118.86</ele>
        <time>2013-04-25T18:25:58Z</time>
      </trkpt>
      <trkpt lat="59.9821755" lon="17.7386556">
        <ele>119.341</ele>
        <time>2013-04-25T18:25:59Z</time>
      </trkpt>
      <trkpt lat="59.9821446" lon="17.7386683">
        <ele>118.86</ele>
        <time>2013-04-25T18:26:00Z</time>
      </trkpt>
      <trkpt lat="59.9821141" lon="17.7386818">
        <ele>118.379</ele>
        <time>2013-04-25T18:26:01Z</time>
      </trkpt>
      <trkpt lat="59.9820855" lon="17.7387121">
        <ele>119.341</ele>
        <time>2013-04-25T18:26:02Z</time>
      </trkpt>
      <trkpt lat="59.9820589" lon="17.7387508">
        <ele>121.744</ele>
        <time>2013-04-25T18:26:03Z</time>
      </trkpt>
      <trkpt lat="59.9820373" lon="17.7387835">
        <ele>124.147</ele>
        <time>2013-04-25T18:26:04Z</time>
      </trkpt>
      <trkpt lat="59.9820165" lon="17.7387828">
        <ele>123.186</ele>
        <time>2013-04-25T18:26:05Z</time>
      </trkpt>
      <trkpt lat="59.9819968" lon="17.7387653">
        <ele>121.744</ele>
        <time>2013-04-25T18:26:06Z</time>
      </trkpt>
      <trkpt lat="59.9819732" lon="17.738747">
        <ele>119.341</ele>
        <time>2013-04-25T18:26:07Z</time>
      </trkpt>
      <trkpt lat="59.9819491" lon="17.7387445">
        <ele>118.379</ele>
        <time>2013-04-25T18:26:08Z</time>
      </trkpt>
      <trkpt lat="59.9819271" lon="17.7387394">
        <ele>116.457</ele>
        <time>2013-04-25T18:26:09Z</time>
      </trkpt>
      <trkpt lat="59.9819026" lon="17.7387322">
        <ele>114.534</ele>
        <time>2013-04-25T18:26:10Z</time>
      </trkpt>
      <trkpt lat="59.9818806" lon="17.7387364">
        <ele>114.054</ele>
        <time>2013-04-25T18:26:11Z</time>
      </trkpt>
      <trkpt lat="59.9818525" lon="17.7387337">
        <ele>112.612</ele>
        <time>2013-04-25T18:26:12Z</time>
      </trkpt>
      <trkpt lat="59.9818233" lon="17.7387384">
        <ele>111.65</ele>
        <time>2013-04-25T18:26:13Z</time>
      </trkpt>
      <trkpt lat="59.9817981" lon="17.738734">
        <ele>110.208</ele>
        <time>2013-04-25T18:26:14Z</time>
      </trkpt>
      <trkpt lat="59.981772" lon="17.7387228">
        <ele>108.286</ele>
        <time>2013-04-25T18:26:15Z</time>
      </trkpt>
      <trkpt lat="59.9817472" lon="17.7387177">
        <ele>105.402</ele>
        <time>2013-04-25T18:26:16Z</time>
      </trkpt>
      <trkpt lat="59.9817219" lon="17.738726">
        <ele>104.44</ele>
        <time>2013-04-25T18:26:17Z</time>
      </trkpt>
      <trkpt lat="59.9817021" lon="17.738741">
        <ele>103.96</ele>
        <time>2013-04-25T18:26:18Z</time>
      </trkpt>
      <trkpt lat="59.9816783" lon="17.7387582">
        <ele>104.44</ele>
        <time>2013-04-25T18:26:19Z</time>
      </trkpt>
      <trkpt lat="59.9816591" lon="17.7387642">
        <ele>105.402</ele>
        <time>2013-04-25T18:26:20Z</time>
      </trkpt>
      <trkpt lat="59.9816344" lon="17.7387491">
        <ele>104.44</ele>
        <time>2013-04-25T18:26:21Z</time>
      </trkpt>
      <trkpt lat="59.9816122" lon="17.7387405">
        <ele>103.96</ele>
        <time>2013-04-25T18:26:22Z</time>
      </trkpt>
      <trkpt lat="59.9815846" lon="17.7387317">
        <ele>101.556</ele>
        <time>2013-04-25T18:26:23Z</time>
      </trkpt>
      <trkpt lat="59.9815583" lon="17.7387333">
        <ele>101.076</ele>
        <time>2013-04-25T18:26:24Z</time>
      </trkpt>
      <trkpt lat="59.9815327" lon="17.7387508">
        <ele>102.037</ele>
        <time>2013-04-25T18:26:25Z</time>
      </trkpt>
      <trkpt lat="59.9815028" lon="17.7387794">
        <ele>103.479</ele>
        <time>2013-04-25T18:26:26Z</time>
      </trkpt>
      <trkpt lat="59.9814723" lon="17.7387958">
        <ele>102.518</ele>
        <time>2013-04-25T18:26:27Z</time>
      </trkpt>
      <trkpt lat="59.9814441" lon="17.738804">
        <ele>101.076</ele>
        <time>2013-04-25T18:26:28Z</time>
      </trkpt>
      <trkpt lat="59.9814138" lon="17.7388238">
        <ele>101.076</ele>
        <time>2013-04-25T18:26:29Z</time>
      </trkpt>
      <trkpt lat="59.9813831" lon="17.7388563">
        <ele>102.037</ele>
        <time>2013-04-25T18:26:30Z</time>
      </trkpt>
      <trkpt lat="59.981355" lon="17.7388653">
        <ele>99.6338</ele>
        <time>2013-04-25T18:26:31Z</time>
      </trkpt>
      <trkpt lat="59.9813298" lon="17.7388718">
        <ele>99.1531</ele>
        <time>2013-04-25T18:26:32Z</time>
      </trkpt>
      <trkpt lat="59.981306" lon="17.7388931">
        <ele>99.6338</ele>
        <time>2013-04-25T18:26:33Z</time>
      </trkpt>
      <trkpt lat="59.9812806" lon="17.7389258">
        <ele>100.595</ele>
        <time>2013-04-25T18:26:34Z</time>
      </trkpt>
      <trkpt lat="59.9812593" lon="17.7389341">
        <ele>100.115</ele>
        <time>2013-04-25T18:26:35Z</time>
      </trkpt>
      <trkpt lat="59.981241" lon="17.7389777">
        <ele>105.402</ele>
        <time>2013-04-25T18:26:36Z</time>
      </trkpt>
      <trkpt lat="59.981217" lon="17.7390008">
        <ele>109.728</ele>
        <time>2013-04-25T18:26:37Z</time>
      </trkpt>
      <trkpt lat="59.9811947" lon="17.739033">
        <ele>113.092</ele>
        <time>2013-04-25T18:26:38Z</time>
      </trkpt>
      <trkpt lat="59.9811739" lon="17.739058">
        <ele>115.496</ele>
        <time>2013-04-25T18:26:39Z</time>
      </trkpt>
      <trkpt lat="59.98115" lon="17.739062">
        <ele>115.496</ele>
        <time>2013-04-25T18:26:40Z</time>
      </trkpt>
      <trkpt lat="59.981124" lon="17.7390462">
        <ele>113.573</ele>
        <time>2013-04-25T18:26:41Z</time>
      </trkpt>
      <trkpt lat="59.9811008" lon="17.7390487">
        <ele>113.092</ele>
        <time>2013-04-25T18:26:42Z</time>
      </trkpt>
      <trkpt lat="59.9810743" lon="17.7390661">
        <ele>114.054</ele>
        <time>2013-04-25T18:26:43Z</time>
      </trkpt>
      <trkpt lat="59.9810459" lon="17.739085">
        <ele>115.015</ele>
        <time>2013-04-25T18:26:44Z</time>
      </trkpt>
      <trkpt lat="59.9810143" lon="17.7390796">
        <ele>112.612</ele>
        <time>2013-04-25T18:26:45Z</time>
      </trkpt>
      <trkpt lat="59.9809965" lon="17.739075">
        <ele>112.612</ele>
        <time>2013-04-25T18:26:46Z</time>
      </trkpt>
      <trkpt lat="59.9809751" lon="17.739071">
        <ele>110.689</ele>
        <time>2013-04-25T18:26:47Z</time>
      </trkpt>
      <trkpt lat="59.9809485" lon="17.7390694">
        <ele>108.286</ele>
        <time>2013-04-25T18:26:48Z</time>
      </trkpt>
      <trkpt lat="59.9809237" lon="17.7390656">
        <ele>106.363</ele>
        <time>2013-04-25T18:26:49Z</time>
      </trkpt>
      <trkpt lat="59.9808974" lon="17.7390729">
        <ele>106.363</ele>
        <time>2013-04-25T18:26:50Z</time>
      </trkpt>
      <trkpt lat="59.9808777" lon="17.7391088">
        <ele>109.728</ele>
        <time>2013-04-25T18:26:51Z</time>
      </trkpt>
      <trkpt lat="59.9808544" lon="17.7391172">
        <ele>110.208</ele>
        <time>2013-04-25T18:26:52Z</time>
      </trkpt>
      <trkpt lat="59.9808273" lon="17.7391036">
        <ele>107.324</ele>
        <time>2013-04-25T18:26:53Z</time>
      </trkpt>
      <trkpt lat="59.9808012" lon="17.7391042">
        <ele>106.363</ele>
        <time>2013-04-25T18:26:54Z</time>
      </trkpt>
      <trkpt lat="59.9807684" lon="17.7391004">
        <ele>103.96</ele>
        <time>2013-04-25T18:26:55Z</time>
      </trkpt>
      <trkpt lat="59.9807444" lon="17.7391281">
        <ele>106.844</ele>
        <time>2013-04-25T18:26:56Z</time>
      </trkpt>
      <trkpt lat="59.980715" lon="17.7391377">
        <ele>106.844</ele>
        <time>2013-04-25T18:26:57Z</time>
      </trkpt>
      <trkpt lat="59.9806926" lon="17.7391439">
        <ele>106.363</ele>
        <time>2013-04-25T18:26:58Z</time>
      </trkpt>
      <trkpt lat="59.9806705" lon="17.7391436">
        <ele>106.844</ele>
        <time>2013-04-25T18:26:59Z</time>
      </trkpt>
      <trkpt lat="59.9806531" lon="17.7391676">
        <ele>110.208</ele>
        <time>2013-04-25T18:27:00Z</time>
      </trkpt>
      <trkpt lat="59.9806344" lon="17.7391961">
        <ele>114.054</ele>
        <time>2013-04-25T18:27:01Z</time>
      </trkpt>
      <trkpt lat="59.9806093" lon="17.7392005">
        <ele>114.054</ele>
        <time>2013-04-25T18:27:02Z</time>
      </trkpt>
      <trkpt lat="59.9805859" lon="17.7391915">
        <ele>113.092</ele>
        <time>2013-04-25T18:27:03Z</time>
      </trkpt>
      <trkpt lat="59.9805532" lon="17.7391821">
        <ele>109.728</ele>
        <time>2013-04-25T18:27:04Z</time>
      </trkpt>
      <trkpt lat="59.980526" lon="17.7391886">
        <ele>109.728</ele>
        <time>2013-04-25T18:27:05Z</time>
      </trkpt>
      <trkpt lat="59.9805046" lon="17.7392128">
        <ele>111.17</ele>
        <time>2013-04-25T18:27:06Z</time>
      </trkpt>
      <trkpt lat="59.9804731" lon="17.7392">
        <ele>108.286</ele>
        <time>2013-04-25T18:27:07Z</time>
      </trkpt>
      <trkpt lat="59.9804467" lon="17.7391868">
        <ele>105.882</ele>
        <time>2013-04-25T18:27:08Z</time>
      </trkpt>
      <trkpt lat="59.9804155" lon="17.7391699">
        <ele>104.921</ele>
        <time>2013-04-25T18:27:09Z</time>
      </trkpt>
      <trkpt lat="59.9803822" lon="17.7391492">
        <ele>103.96</ele>
        <time>2013-04-25T18:27:10Z</time>
      </trkpt>
      <trkpt lat="59.9803428" lon="17.7391066">
        <ele>98.6725</ele>
        <time>2013-04-25T18:27:11Z</time>
      </trkpt>
      <trkpt lat="59.9803128" lon="17.7390844">
        <ele>95.7885</ele>
        <time>2013-04-25T18:27:12Z</time>
      </trkpt>
      <trkpt lat="59.9802882" lon="17.7390874">
        <ele>95.7885</ele>
        <time>2013-04-25T18:27:13Z</time>
      </trkpt>
      <trkpt lat="59.9802528" lon="17.7390623">
        <ele>91.9432</ele>
        <time>2013-04-25T18:27:14Z</time>
      </trkpt>
      <trkpt lat="59.9802248" lon="17.7390392">
        <ele>87.1366</ele>
        <time>2013-04-25T18:27:15Z</time>
      </trkpt>
      <trkpt lat="59.9802032" lon="17.7390373">
        <ele>83.772</ele>
        <time>2013-04-25T18:27:16Z</time>
      </trkpt>
      <trkpt lat="59.980181" lon="17.73904">
        <ele>81.3688</ele>
        <time>2013-04-25T18:27:17Z</time>
      </trkpt>
      <trkpt lat="59.9801485" lon="17.7390221">
        <ele>79.9266</ele>
        <time>2013-04-25T18:27:18Z</time>
      </trkpt>
      <trkpt lat="59.9801186" lon="17.7390186">
        <ele>80.8882</ele>
        <time>2013-04-25T18:27:19Z</time>
      </trkpt>
      <trkpt lat="59.9800866" lon="17.7390053">
        <ele>79.446</ele>
        <time>2013-04-25T18:27:20Z</time>
      </trkpt>
      <trkpt lat="59.9800513" lon="17.7389711">
        <ele>75.6008</ele>
        <time>2013-04-25T18:27:21Z</time>
      </trkpt>
      <trkpt lat="59.9800161" lon="17.7389389">
        <ele>73.1976</ele>
        <time>2013-04-25T18:27:22Z</time>
      </trkpt>
      <trkpt lat="59.9799762" lon="17.7389026">
        <ele>69.3523</ele>
        <time>2013-04-25T18:27:23Z</time>
      </trkpt>
      <trkpt lat="59.9799586" lon="17.7389136">
        <ele>67.4297</ele>
        <time>2013-04-25T18:27:24Z</time>
      </trkpt>
      <trkpt lat="59.9799311" lon="17.7389317">
        <ele>66.949</ele>
        <time>2013-04-25T18:27:25Z</time>
      </trkpt>
      <trkpt lat="59.9799015" lon="17.7389523">
        <ele>66.4683</ele>
        <time>2013-04-25T18:27:26Z</time>
      </trkpt>
      <trkpt lat="59.97987" lon="17.7389661">
        <ele>65.0264</ele>
        <time>2013-04-25T18:27:27Z</time>
      </trkpt>
      <trkpt lat="59.9798375" lon="17.7389804">
        <ele>63.1036</ele>
        <time>2013-04-25T18:27:28Z</time>
      </trkpt>
      <trkpt lat="59.9798243" lon="17.7389812">
        <ele>65.9877</ele>
        <time>2013-04-25T18:27:29Z</time>
      </trkpt>
      <trkpt lat="59.9797968" lon="17.7389872">
        <ele>65.5071</ele>
        <time>2013-04-25T18:27:30Z</time>
      </trkpt>
      <trkpt lat="59.9797675" lon="17.7389876">
        <ele>63.1036</ele>
        <time>2013-04-25T18:27:31Z</time>
      </trkpt>
      <trkpt lat="59.9797404" lon="17.7390037">
        <ele>63.1036</ele>
        <time>2013-04-25T18:27:32Z</time>
      </trkpt>
      <trkpt lat="59.9797137" lon="17.7390252">
        <ele>63.1036</ele>
        <time>2013-04-25T18:27:33Z</time>
      </trkpt>
      <trkpt lat="59.9796891" lon="17.7390409">
        <ele>62.6229</ele>
        <time>2013-04-25T18:27:34Z</time>
      </trkpt>
      <trkpt lat="59.9796675" lon="17.7390491">
        <ele>62.1423</ele>
        <time>2013-04-25T18:27:35Z</time>
      </trkpt>
      <trkpt lat="59.9796462" lon="17.7390677">
        <ele>62.6229</ele>
        <time>2013-04-25T18:27:36Z</time>
      </trkpt>
      <trkpt lat="59.9796217" lon="17.7390793">
        <ele>62.6229</ele>
        <time>2013-04-25T18:27:37Z</time>
      </trkpt>
      <trkpt lat="59.9795941" lon="17.7390672">
        <ele>60.2197</ele>
        <time>2013-04-25T18:27:38Z</time>
      </trkpt>
      <trkpt lat="59.9795732" lon="17.739072">
        <ele>59.7391</ele>
        <time>2013-04-25T18:27:39Z</time>
      </trkpt>
      <trkpt lat="59.9795474" lon="17.7390653">
        <ele>56.3745</ele>
        <time>2013-04-25T18:27:40Z</time>
      </trkpt>
      <trkpt lat="59.9795251" lon="17.7390802">
        <ele>55.4131</ele>
        <time>2013-04-25T18:27:41Z</time>
      </trkpt>
      <trkpt lat="59.9794989" lon="17.7390925">
        <ele>54.4518</ele>
        <time>2013-04-25T18:27:42Z</time>
      </trkpt>
      <trkpt lat="59.9794681" lon="17.7391005">
        <ele>51.5679</ele>
        <time>2013-04-25T18:27:43Z</time>
      </trkpt>
      <trkpt lat="59.9794397" lon="17.7391217">
        <ele>49.6453</ele>
        <time>2013-04-25T18:27:44Z</time>
      </trkpt>
      <trkpt lat="59.9794089" lon="17.739128">
        <ele>47.2418</ele>
        <time>2013-04-25T18:27:45Z</time>
      </trkpt>
      <trkpt lat="59.9793801" lon="17.7391388">
        <ele>45.7999</ele>
        <time>2013-04-25T18:27:46Z</time>
      </trkpt>
      <trkpt lat="59.979351" lon="17.7391482">
        <ele>44.8386</ele>
        <time>2013-04-25T18:27:47Z</time>
      </trkpt>
      <trkpt lat="59.9793207" lon="17.739158">
        <ele>43.3966</ele>
        <time>2013-04-25T18:27:48Z</time>
      </trkpt>
      <trkpt lat="59.9792868" lon="17.7391694">
        <ele>41.474</ele>
        <time>2013-04-25T18:27:49Z</time>
      </trkpt>
      <trkpt lat="59.9792548" lon="17.7391843">
        <ele>40.9934</ele>
        <time>2013-04-25T18:27:50Z</time>
      </trkpt>
      <trkpt lat="59.9792158" lon="17.7391886">
        <ele>40.0321</ele>
        <time>2013-04-25T18:27:51Z</time>
      </trkpt>
      <trkpt lat="59.9791852" lon="17.7392">
        <ele>40.0321</ele>
        <time>2013-04-25T18:27:52Z</time>
      </trkpt>
      <trkpt lat="59.9791615" lon="17.7392119">
        <ele>40.5128</ele>
        <time>2013-04-25T18:27:53Z</time>
      </trkpt>
      <trkpt lat="59.9791361" lon="17.7392113">
        <ele>39.0707</ele>
        <time>2013-04-25T18:27:54Z</time>
      </trkpt>
      <trkpt lat="59.9791137" lon="17.7392106">
        <ele>38.1094</ele>
        <time>2013-04-25T18:27:55Z</time>
      </trkpt>
      <trkpt lat="59.97909" lon="17.7392293">
        <ele>38.5901</ele>
        <time>2013-04-25T18:27:56Z</time>
      </trkpt>
      <trkpt lat="59.9790698" lon="17.7392516">
        <ele>40.0321</ele>
        <time>2013-04-25T18:27:57Z</time>
      </trkpt>
      <trkpt lat="59.9790454" lon="17.7392638">
        <ele>39.5513</ele>
        <time>2013-04-25T18:27:58Z</time>
      </trkpt>
      <trkpt lat="59.9790232" lon="17.7392755">
        <ele>39.0707</ele>
        <time>2013-04-25T18:27:59Z</time>
      </trkpt>
      <trkpt lat="59.9790013" lon="17.7392819">
        <ele>39.0707</ele>
        <time>2013-04-25T18:28:00Z</time>
      </trkpt>
      <trkpt lat="59.978978" lon="17.7393018">
        <ele>40.0321</ele>
        <time>2013-04-25T18:28:01Z</time>
      </trkpt>
    </trkseg>
  </trk>
</gpx>